[[{"header":{"parameterUnit":"m.s-1","parameterCategory":1,"la1":31.0,"la2":29.5877,"lo1":-88.7671,"lo2":-86.6584,"dx":0.0162,"dy":0.0185,"nx":115,"ny":88,"refTime":"2023-02-03T06:00:00:Z","depth":0,"parameterNumber":2,"parameterNumberName":"U-component_of_WINDS"},"data":[0.0,0.0,0.0,0.0,0.0,0.0,0.0,0.0,0.0,0.0,0.0,0.0,0.0,0.0,0.0,0.0,0.0,0.0,0.0,0.0,0.0,0.0,0.0,0.0,0.0,0.0,0.0,0.0,0.0,0.0,0.0,0.0,0.0,0.0,0.0,0.0,0.0,0.0,0.0,0.0,0.0,0.0,0.0,0.0,0.0,0.0,0.0,0.0,0.0,0.0,0.0,0.0,0.0,0.0,0.0,0.0,0.0,0.0,0.0,0.0,0.0,0.0,0.0,0.0,0.0,0.0,0.0,0.0,0.0,0.0,0.0,0.0,0.0,0.0,0.0,0.0,0.0,0.0,0.0,0.0,0.0,0.0,0.0,0.0,0.0,0.0,0.0,0.0,0.0,0.0,0.0,0.0,0.0,0.0,0.0,0.0,0.0,0.0,0.0,0.0,0.0,0.0,0.0,0.0,0.0,0.0,0.0,0.0,0.0,0.0,0.0,0.0,0.0,0.0,0.0,0.0,0.0,0.0,0.0,0.0,0.0,0.0,0.0,0.0,0.0,0.0,0.0,0.0,0.0,0.0,0.0,0.0,0.0,0.0,0.0,0.0,0.0,0.0,0.0,0.0,0.0,0.0,0.0,0.0,0.0,0.0,0.0,0.0,0.0,0.0,0.0,0.0,0.0,0.0,0.0,0.0,0.0,0.0,0.0,0.0,0.0,0.0,0.0,0.0,0.0,0.0,0.0,0.0,0.0,0.0,0.0,0.0,0.0,0.0,0.0,0.0,0.0,0.0,0.0,0.0,0.0,0.0,0.0,0.0,0.0,0.0,0.0,0.0,0.0,0.0,0.0,0.0,0.0,0.0,0.0,0.0,0.0,0.0,0.0,0.0,0.0,0.0,0.0,0.0,0.0,0.0,0.0,0.0,0.0,0.0,0.0,0.0,0.0,0.0,0.0,0.0,0.0,0.0,0.0,0.0,0.0,0.0,0.0,0.0,0.0,0.0,0.0,0.0,0.0,0.0,0.0,0.0,0.0,0.0,0.0,0.0,0.0,0.0,0.0,0.0,0.0,0.0,0.0,0.0,0.0,0.0,0.0,0.0,0.0,0.0,0.0,0.0,0.0,0.0,0.0,0.0,0.0,0.0,0.0,0.0,0.0,0.0,0.0,0.0,0.0,0.0,0.0,0.0,0.0,0.0,0.0,0.0,0.0,0.0,0.0,0.0,0.0,0.0,0.0,0.0,0.0,0.0,0.0,0.0,0.0,0.0,0.0,0.0,0.0,0.0,0.0,0.0,0.0,0.0,0.0,0.0,0.0,0.0,0.0,0.0,0.0,0.0,0.0,0.0,0.0,0.0,0.0,0.0,0.0,0.0,0.0,0.0,0.0,0.0,0.0,0.0,0.0,0.0,0.0,0.0,0.0,0.0,0.0,0.0,0.0,0.0,0.0,0.0,0.0,0.0,0.0,0.0,0.0,0.0,0.0,0.0,0.0,0.0,0.0,0.0,0.0,0.0,0.0,0.0,0.0,0.0,0.0,0.0,0.0,0.0,0.0,0.0,0.0,0.0,0.0,0.0,0.0,0.0,0.0,0.0,0.0,0.0,0.0,0.0,0.0,0.0,0.0,0.0,0.0,0.0,0.0,0.0,0.0,0.0,0.0,0.0,0.0,0.0,0.0,0.0,0.0,0.0,0.0,0.0,0.0,0.0,0.0,0.0,0.0,0.0,0.0,0.0,0.0,0.0,0.0,0.0,0.0,0.0,0.0,0.0,0.0,0.0,0.0,0.0,0.0,0.0,0.0,0.0,0.0,0.0,0.0,0.0,0.0,0.0,0.0,0.0,0.0,0.0,0.0,0.0,0.0,0.0,0.0,0.0,0.0,0.0,0.0,0.0,0.0,0.0,0.0,0.0,0.0,0.0,0.0,0.0,0.0,0.0,0.0,0.0,0.0,0.0,0.0,0.0,0.0,0.0,0.0,0.0,0.0,0.0,0.0,0.0,0.0,0.0,0.0,0.0,0.0,0.0,0.0,0.0,0.0,0.0,0.0,0.0,0.0,0.0,0.0,0.0,0.0,0.0,0.0,0.0,0.0,0.0,0.0,0.0,0.0,0.0,0.0,0.0,0.0,0.0,0.0,0.0,0.0,0.0,0.0,0.0,0.0,0.0,0.0,0.0,0.0,0.0,0.0,0.0,0.0,0.0,0.0,0.0,0.0,0.0,0.0,0.0,0.0,0.0,0.0,0.0,0.0,0.0,0.0,0.0,0.0,0.0,0.0,0.0,0.0,0.0,0.0,0.0,0.0,0.0,0.0,0.0,0.0,0.0,0.0,0.0,0.0,0.0,0.0,0.0,0.0,0.0,0.0,0.0,0.0,0.0,0.0,0.0,0.0,0.0,0.0,0.0,0.0,0.0,0.0,0.0,0.0,0.0,0.0,0.0,0.0,0.0,0.0,0.0,0.0,0.0,0.0,0.0,0.0,0.0,0.0,0.0,0.0,0.0,0.0,0.0,0.0,0.0,0.0,0.0,0.0,0.0,0.0,0.0,0.0,0.0,0.0,0.0,0.0,0.0,0.0,0.0,0.0,0.0,0.0,0.0,0.0,0.0,0.0,0.0,0.0,0.0,0.0,0.0,0.0,0.0,0.0,0.0,0.0,0.0,0.0,0.0,0.0,0.0,0.0,0.0,0.0,0.0,0.0,0.0,0.0,0.0,0.0,0.0,0.0,0.0,0.0,0.0,0.0,0.0,0.0,0.0,0.0,0.0,0.0,0.0,0.0,0.0,0.0,0.0,0.0,0.0,0.0,0.0,0.0,0.0,0.0,0.0,0.0,0.0,0.0,0.0,0.0,0.0,0.0,0.0,0.0,0.0,0.0,0.0,0.0,0.0,0.0,0.0,0.0,0.0,0.0,0.0,0.0,0.0,0.0,0.0,0.0,0.0,0.0,0.0,0.0,0.0,0.0,0.0,0.0,0.0,0.0,0.0,0.0,0.0,0.0,0.0,0.0,0.0,0.0,0.0,0.0,0.0,0.0,0.0,0.0,0.0,0.0,0.0,0.0,0.0,0.0,0.0,0.0,0.0,0.0,0.0,0.0,0.0,0.0,0.0,0.0,0.0,0.0,0.0,0.0,0.0,0.0,0.0,0.0,0.0,0.0,0.0,0.0,0.0,0.0,0.0,0.0,0.0,0.0,0.0,0.0,0.0,0.0,0.0,0.0,0.0,0.0,0.0,0.0,0.0,0.0,0.0,0.0,0.0,0.0,0.0,0.0,0.0,0.0,0.0,0.0,0.0,0.0,0.0,0.0,0.0,0.0,0.0,0.0,0.0,0.0,0.0,0.0,0.0,0.0,0.0,0.0,0.0,0.0,0.0,0.0,0.0,0.0,0.0,0.0,0.0,0.0,0.0,0.0,0.0,0.0,0.0,0.0,0.0,0.0,0.0,0.0,0.0,0.0,0.0,0.0,0.0,0.0,0.0,0.0,0.0,0.0,0.0,0.0,0.0,0.0,0.0,0.0,0.0,0.0,0.0,0.0,0.0,0.0,0.0,0.0,0.0,0.0,0.0,0.0,0.0,0.0,0.0,0.0,0.0,0.0,0.0,0.0,0.0,0.0,0.0,0.0,0.0,0.0,0.0,0.0,0.0,0.0,0.0,0.0,0.0,0.0,0.0,0.0,0.0,0.0,0.0,0.0,0.0,0.0,0.0,0.0,0.0,0.0,0.0,0.0,0.0,0.0,0.0,0.0,0.0,0.0,0.0,0.0,0.0,0.0,0.0,0.0,0.0,0.0,0.0,0.0,0.0,0.0,0.0,0.0,0.0,0.0,0.0,0.0,0.0,0.0,0.0,0.0,0.0,0.0,0.0,0.0,0.0,0.0,0.0,0.0,0.0,0.0,0.0,0.0,0.0,0.0,0.0,0.0,0.0,0.0,0.0,0.0,0.0,0.0,0.0,0.0,0.0,0.0,0.0,0.0,0.0,0.0,0.0,0.0,0.0,0.0,0.0,0.0,0.0,0.0,0.0,0.0,0.0,0.0,0.0,0.0,0.0,0.0,0.0,0.0,0.0,0.0,0.0,0.0,0.0,0.0,0.0,0.0,0.0,0.0,0.0,0.0,0.0,0.0,0.0,0.0,0.0,0.0,0.0,0.0,0.0,0.0,0.0,0.0,0.0,0.0,0.0,0.0,0.0,0.0,0.0,0.0,0.0,0.0,0.0,0.0,0.0,0.0,0.0,0.0,0.0,0.0,0.0,0.0,0.0,2.5191,0.0,0.0,0.0,0.0,0.0,0.0,0.0,0.0,0.0,0.0,0.0,0.0,0.0,0.0,0.0,0.0,0.0,0.0,0.0,0.0,0.0,0.0,0.0,0.0,0.0,0.0,0.0,0.0,0.0,0.0,0.0,0.0,0.0,0.0,0.0,0.0,0.0,0.0,0.0,0.0,0.0,0.0,0.0,0.0,0.0,0.0,0.0,0.0,0.0,0.0,0.0,0.0,0.0,0.0,0.0,0.0,0.0,0.0,0.0,0.0,0.0,0.0,0.0,0.0,0.0,0.0,0.0,0.0,0.0,0.0,0.0,0.0,0.0,0.0,0.0,0.0,0.0,0.0,0.0,0.0,0.0,0.0,0.0,0.0,0.0,0.0,0.0,0.0,0.0,0.0,0.0,0.0,0.0,0.0,0.0,0.0,0.0,0.0,0.0,0.0,0.0,0.0,0.0,0.0,0.0,0.0,0.0,0.0,0.0,0.0,2.5019,2.518,2.5191,2.5191,2.5191,0.0,0.0,0.0,0.0,0.0,0.0,0.0,0.0,0.0,0.0,0.0,0.0,0.0,0.0,0.0,0.0,0.0,0.0,0.0,0.0,0.0,0.0,0.0,0.0,0.0,0.0,0.0,0.0,0.0,0.0,0.0,0.0,0.0,0.0,0.0,0.0,0.0,0.0,0.0,0.0,0.0,0.0,0.0,0.0,0.0,0.0,0.0,0.0,0.0,0.0,0.0,0.0,0.0,0.0,0.0,0.0,0.0,0.0,0.0,0.0,0.0,0.0,0.0,0.0,0.0,0.0,0.0,0.0,0.0,0.0,0.0,0.0,0.0,0.0,0.0,0.0,0.0,0.0,0.0,0.0,0.0,0.0,0.0,0.0,0.0,0.0,0.0,0.0,0.0,0.0,0.0,0.0,0.0,0.0,0.0,0.0,0.0,0.0,0.0,0.0,0.0,0.0,0.0,0.0,0.0,0.0,0.0,0.0,0.0,0.0,0.0,0.0,2.565,2.5765,2.5765,0.0,0.0,0.0,0.0,0.0,0.0,0.0,0.0,0.0,0.0,0.0,0.0,0.0,0.0,0.0,0.0,0.0,0.0,0.0,0.0,0.0,0.0,0.0,0.0,0.0,0.0,0.0,0.0,0.0,0.0,0.0,0.0,0.0,0.0,0.0,0.0,0.0,0.0,0.0,0.0,0.0,0.0,0.0,0.0,0.0,0.0,0.0,0.0,0.0,0.0,0.0,0.0,0.0,0.0,0.0,0.0,0.0,0.0,0.0,0.0,0.0,0.0,0.0,0.0,0.0,0.0,0.0,0.0,0.0,0.0,0.0,0.0,0.0,0.0,0.0,0.0,0.0,0.0,0.0,0.0,0.0,0.0,0.0,0.0,0.0,0.0,0.0,0.0,0.0,0.0,0.0,0.0,0.0,0.0,0.0,0.0,0.0,0.0,0.0,0.0,0.0,0.0,0.0,0.0,0.0,0.0,0.0,0.0,0.0,0.0,2.5523,2.6288,2.7052,0.0,2.7396,0.0,0.0,0.0,0.0,0.0,0.0,0.0,0.0,0.0,0.0,0.0,0.0,0.0,0.0,0.0,0.0,0.0,0.0,0.0,0.0,0.0,0.0,0.0,0.0,0.0,0.0,0.0,0.0,0.0,0.0,0.0,0.0,0.0,0.0,0.0,0.0,0.0,0.0,0.0,0.0,0.0,0.0,0.0,0.0,0.0,0.0,0.0,0.0,0.0,0.0,0.0,0.0,0.0,0.0,0.0,0.0,0.0,0.0,0.0,0.0,0.0,0.0,0.0,0.0,0.0,0.0,0.0,0.0,0.0,0.0,0.0,0.0,0.0,0.0,0.0,0.0,0.0,0.0,0.0,0.0,0.0,0.0,0.0,0.0,0.0,0.0,0.0,0.0,0.0,0.0,0.0,0.0,0.0,0.0,0.0,0.0,0.0,0.0,0.0,0.0,0.0,0.0,0.0,0.0,0.0,0.0,0.0,0.0,0.0,0.0,2.5662,2.663,2.6835,2.6708,0.0,0.0,0.0,0.0,0.0,0.0,0.0,0.0,0.0,0.0,0.0,0.0,0.0,0.0,0.0,0.0,0.0,0.0,0.0,0.0,0.0,0.0,0.0,0.0,0.0,0.0,0.0,0.0,0.0,0.0,0.0,0.0,0.0,0.0,0.0,0.0,0.0,0.0,0.0,0.0,0.0,0.0,0.0,0.0,0.0,0.0,0.0,0.0,0.0,0.0,0.0,0.0,0.0,0.0,0.0,0.0,0.0,0.0,0.0,0.0,0.0,0.0,0.0,0.0,0.0,0.0,0.0,0.0,0.0,0.0,0.0,0.0,0.0,0.0,0.0,0.0,0.0,0.0,0.0,0.0,0.0,0.0,0.0,0.0,0.0,0.0,0.0,0.0,0.0,0.0,0.0,0.0,0.0,0.0,0.0,0.0,0.0,0.0,0.0,0.0,0.0,0.0,0.0,0.0,0.0,0.0,0.0,0.0,0.0,0.0,2.5662,2.6109,2.7242,2.6529,2.5994,2.5879,0.0,0.0,0.0,0.0,0.0,0.0,0.0,0.0,0.0,0.0,0.0,0.0,0.0,0.0,0.0,0.0,0.0,0.0,0.0,0.0,0.0,0.0,0.0,0.0,0.0,0.0,0.0,0.0,0.0,0.0,0.0,0.0,0.0,0.0,0.0,0.0,0.0,0.0,0.0,0.0,0.0,0.0,0.0,0.0,0.0,0.0,0.0,0.0,0.0,0.0,0.0,0.0,0.0,0.0,0.0,0.0,0.0,0.0,0.0,0.0,0.0,0.0,0.0,0.0,0.0,0.0,0.0,0.0,0.0,0.0,0.0,0.0,0.0,0.0,0.0,0.0,0.0,0.0,0.0,0.0,0.0,0.0,0.0,0.0,0.0,0.0,0.0,0.0,0.0,0.0,0.0,0.0,0.0,0.0,0.0,0.0,0.0,0.0,0.0,0.0,0.0,0.0,0.0,0.0,0.0,0.0,0.0,0.0,2.7434,2.6746,2.7128,2.8618,2.6479,2.5994,0.0,0.0,0.0,0.0,0.0,0.0,0.0,0.0,0.0,0.0,0.0,0.0,0.0,0.0,0.0,0.0,0.0,0.0,0.0,0.0,0.0,0.0,0.0,0.0,0.0,0.0,0.0,0.0,0.0,0.0,0.0,0.0,0.0,0.0,0.0,0.0,0.0,0.0,0.0,0.0,0.0,0.0,0.0,0.0,0.0,0.0,0.0,0.0,0.0,0.0,0.0,0.0,0.0,0.0,0.0,0.0,0.0,0.0,0.0,0.0,0.0,0.0,0.0,0.0,0.0,0.0,0.0,0.0,0.0,0.0,0.0,0.0,0.0,0.0,0.0,0.0,0.0,0.0,0.0,0.0,0.0,0.0,0.0,0.0,0.0,0.0,0.0,0.0,0.0,0.0,0.0,0.0,0.0,0.0,0.0,0.0,0.0,0.0,0.0,0.0,0.0,0.0,0.0,0.0,0.0,0.0,0.0,0.0,0.0,2.6056,2.6546,2.6973,2.7369,2.6502,2.6337,0.0,0.0,0.0,0.0,0.0,0.0,0.0,0.0,0.0,0.0,0.0,0.0,0.0,0.0,0.0,0.0,0.0,0.0,0.0,0.0,0.0,0.0,0.0,0.0,0.0,0.0,0.0,0.0,0.0,0.0,0.0,0.0,0.0,0.0,0.0,0.0,0.0,0.0,0.0,0.0,0.0,0.0,0.0,0.0,0.0,0.0,0.0,0.0,0.0,0.0,0.0,0.0,0.0,0.0,0.0,0.0,0.0,0.0,0.0,0.0,0.0,0.0,0.0,0.0,0.0,0.0,0.0,0.0,0.0,0.0,0.0,0.0,0.0,0.0,0.0,0.0,0.0,0.0,0.0,0.0,0.0,0.0,0.0,0.0,0.0,0.0,0.0,0.0,0.0,0.0,0.0,0.0,0.0,0.0,0.0,0.0,0.0,0.0,0.0,0.0,0.0,0.0,0.0,0.0,0.0,0.0,0.0,0.0,0.0,2.6069,0.0,2.7507,2.7073,2.6709,2.642,0.0,0.0,0.0,0.0,0.0,0.0,0.0,0.0,0.0,0.0,0.0,0.0,0.0,0.0,0.0,0.0,0.0,0.0,0.0,0.0,0.0,0.0,0.0,0.0,0.0,0.0,0.0,0.0,0.0,0.0,0.0,0.0,0.0,0.0,0.0,0.0,0.0,0.0,0.0,0.0,0.0,0.0,0.0,0.0,0.0,0.0,0.0,0.0,0.0,0.0,0.0,0.0,0.0,0.0,0.0,0.0,0.0,0.0,0.0,0.0,0.0,0.0,0.0,0.0,0.0,0.0,0.0,0.0,0.0,0.0,0.0,0.0,0.0,0.0,0.0,0.0,0.0,0.0,0.0,0.0,0.0,0.0,0.0,0.0,0.0,0.0,0.0,0.0,0.0,0.0,0.0,0.0,0.0,0.0,0.0,0.0,0.0,0.0,0.0,0.0,0.0,0.0,0.0,0.0,0.0,0.0,0.0,0.0,2.6041,2.7653,2.8651,2.8729,2.8001,2.7082,2.6208,0.0,0.0,0.0,0.0,0.0,0.0,0.0,0.0,0.0,0.0,0.0,0.0,0.0,0.0,0.0,0.0,0.0,0.0,0.0,0.0,0.0,0.0,0.0,0.0,0.0,0.0,0.0,0.0,0.0,0.0,0.0,0.0,0.0,0.0,0.0,0.0,0.0,0.0,0.0,0.0,0.0,0.0,0.0,0.0,0.0,0.0,0.0,0.0,0.0,0.0,0.0,0.0,0.0,0.0,0.0,0.0,0.0,0.0,0.0,0.0,0.0,0.0,0.0,0.0,0.0,0.0,0.0,0.0,0.0,0.0,0.0,0.0,0.0,0.0,0.0,0.0,0.0,0.0,0.0,0.0,0.0,0.0,0.0,0.0,0.0,0.0,0.0,0.0,0.0,0.0,0.0,0.0,0.0,0.0,0.0,0.0,0.0,0.0,0.0,0.0,0.0,0.0,0.0,0.0,0.0,0.0,0.0,0.0,0.0,2.6173,2.7065,2.7723,2.8001,2.72,2.6851,0.0,0.0,0.0,0.0,0.0,0.0,0.0,0.0,0.0,0.0,0.0,0.0,0.0,0.0,0.0,0.0,0.0,0.0,0.0,0.0,0.0,0.0,0.0,0.0,0.0,0.0,0.0,0.0,0.0,0.0,0.0,0.0,0.0,0.0,0.0,0.0,0.0,0.0,0.0,0.0,0.0,0.0,0.0,0.0,0.0,0.0,0.0,0.0,0.0,0.0,0.0,0.0,0.0,0.0,0.0,0.0,0.0,0.0,0.0,0.0,0.0,0.0,0.0,0.0,0.0,0.0,0.0,0.0,0.0,0.0,0.0,0.0,0.0,0.0,0.0,0.0,0.0,0.0,0.0,0.0,0.0,0.0,0.0,0.0,0.0,0.0,0.0,0.0,0.0,0.0,0.0,0.0,0.0,0.0,0.0,0.0,0.0,0.0,0.0,0.0,0.0,0.0,0.0,0.0,0.0,0.0,0.0,0.0,0.0,2.6528,2.7994,2.8863,2.9086,2.8554,2.7868,2.7128,0.0,0.0,0.0,0.0,0.0,0.0,0.0,0.0,0.0,0.0,0.0,0.0,0.0,0.0,0.0,0.0,0.0,0.0,0.0,0.0,0.0,0.0,0.0,0.0,0.0,0.0,0.0,0.0,0.0,0.0,0.0,0.0,0.0,0.0,0.0,0.0,0.0,0.0,0.0,0.0,0.0,0.0,0.0,0.0,0.0,0.0,0.0,0.0,0.0,0.0,0.0,0.0,0.0,0.0,0.0,0.0,0.0,0.0,0.0,0.0,0.0,0.0,0.0,0.0,0.0,0.0,0.0,0.0,0.0,0.0,0.0,0.0,0.0,0.0,0.0,0.0,0.0,0.0,0.0,0.0,0.0,0.0,0.0,0.0,0.0,0.0,0.0,0.0,0.0,0.0,0.0,0.0,0.0,0.0,0.0,0.0,0.0,0.0,0.0,0.0,0.0,0.0,0.0,0.0,0.0,0.0,0.0,0.0,2.8398,3.0976,3.1831,3.0872,3.0728,2.9177,0.0,0.0,0.0,0.0,0.0,0.0,0.0,0.0,0.0,0.0,0.0,0.0,0.0,0.0,0.0,0.0,0.0,0.0,0.0,0.0,0.0,0.0,0.0,0.0,0.0,0.0,0.0,0.0,0.0,0.0,0.0,0.0,0.0,0.0,0.0,0.0,0.0,0.0,0.0,0.0,0.0,0.0,0.0,0.0,0.0,0.0,0.0,0.0,0.0,0.0,0.0,0.0,0.0,0.0,0.0,0.0,0.0,0.0,0.0,0.0,0.0,0.0,0.0,0.0,0.0,0.0,0.0,0.0,0.0,0.0,0.0,0.0,0.0,0.0,0.0,0.0,0.0,0.0,0.0,0.0,0.0,0.0,0.0,0.0,0.0,0.0,0.0,0.0,0.0,0.0,0.0,0.0,0.0,0.0,0.0,0.0,0.0,0.0,0.0,0.0,0.0,0.0,0.0,0.0,0.0,0.0,0.0,0.0,0.0,3.1054,3.3631,3.394,3.1856,3.1145,3.0037,0.0,0.0,0.0,0.0,0.0,0.0,0.0,0.0,0.0,0.0,0.0,0.0,0.0,0.0,0.0,0.0,0.0,0.0,0.0,0.0,0.0,0.0,0.0,0.0,0.0,0.0,0.0,0.0,0.0,0.0,0.0,0.0,0.0,0.0,0.0,0.0,0.0,0.0,0.0,0.0,0.0,0.0,0.0,0.0,0.0,0.0,0.0,0.0,0.0,0.0,0.0,0.0,0.0,0.0,0.0,0.0,0.0,0.0,0.0,0.0,0.0,0.0,0.0,0.0,0.0,0.0,0.0,0.0,0.0,0.0,0.0,0.0,0.0,0.0,0.0,0.0,0.0,0.0,0.0,0.0,0.0,0.0,0.0,0.0,0.0,0.0,0.0,0.0,0.0,0.0,0.0,0.0,0.0,0.0,0.0,0.0,0.0,0.0,0.0,0.0,0.0,0.0,0.0,0.0,0.0,0.0,0.0,0.0,2.9644,3.1516,3.4765,3.5584,3.3745,3.2884,3.1352,0.0,0.0,0.0,0.0,0.0,0.0,0.0,0.0,0.0,0.0,0.0,0.0,0.0,0.0,0.0,0.0,0.0,0.0,0.0,0.0,0.0,0.0,0.0,0.0,0.0,0.0,0.0,0.0,0.0,0.0,0.0,0.0,0.0,0.0,0.0,0.0,0.0,0.0,0.0,0.0,0.0,0.0,0.0,0.0,0.0,0.0,0.0,0.0,0.0,0.0,0.0,0.0,0.0,0.0,0.0,0.0,0.0,0.0,0.0,0.0,0.0,0.0,0.0,0.0,0.0,0.0,0.0,0.0,0.0,0.0,0.0,0.0,0.0,0.0,0.0,0.0,0.0,0.0,0.0,0.0,0.0,0.0,0.0,0.0,0.0,0.0,0.0,0.0,0.0,0.0,0.0,0.0,0.0,0.0,0.0,0.0,0.0,0.0,0.0,0.0,0.0,0.0,0.0,0.0,0.0,0.0,0.0,0.0,3.0086,3.0992,3.5031,3.6757,3.5898,3.4961,3.2575,0.0,0.0,0.0,0.0,0.0,0.0,0.0,0.0,0.0,0.0,0.0,0.0,0.0,0.0,0.0,0.0,0.0,0.0,0.0,0.0,0.0,0.0,0.0,0.0,0.0,0.0,0.0,0.0,0.0,0.0,0.0,0.0,0.0,0.0,0.0,0.0,0.0,0.0,0.0,0.0,0.0,0.0,0.0,0.0,0.0,0.0,0.0,0.0,0.0,0.0,0.0,0.0,0.0,0.0,0.0,0.0,0.0,0.0,0.0,0.0,0.0,0.0,0.0,0.0,0.0,0.0,0.0,0.0,0.0,0.0,0.0,0.0,0.0,0.0,0.0,0.0,0.0,0.0,0.0,0.0,0.0,0.0,0.0,0.0,0.0,0.0,0.0,0.0,0.0,0.0,0.0,0.0,0.0,0.0,0.0,0.0,0.0,0.0,0.0,0.0,0.0,0.0,0.0,0.0,0.0,0.0,0.0,0.0,3.1256,3.2742,3.5676,3.6784,3.5923,3.3788,3.191,0.0,0.0,0.0,0.0,0.0,0.0,0.0,0.0,0.0,0.0,0.0,0.0,0.0,0.0,0.0,0.0,0.0,0.0,0.0,0.0,0.0,0.0,0.0,0.0,0.0,0.0,0.0,0.0,0.0,0.0,0.0,0.0,0.0,0.0,0.0,0.0,0.0,0.0,0.0,0.0,0.0,0.0,0.0,0.0,0.0,0.0,0.0,0.0,2.5952,0.0,0.0,0.0,0.0,0.0,0.0,0.0,0.0,0.0,0.0,0.0,0.0,0.0,0.0,0.0,0.0,0.0,0.0,0.0,0.0,0.0,0.0,0.0,0.0,0.0,0.0,0.0,0.0,0.0,0.0,0.0,0.0,0.0,0.0,0.0,0.0,0.0,0.0,0.0,0.0,0.0,0.0,0.0,0.0,0.0,0.0,0.0,0.0,0.0,0.0,0.0,0.0,0.0,0.0,0.0,0.0,0.0,0.0,0.0,3.1538,3.3284,3.548,3.636,3.5853,3.3805,3.2064,0.0,0.0,0.0,0.0,0.0,0.0,0.0,0.0,0.0,0.0,0.0,0.0,0.0,0.0,0.0,0.0,0.0,0.0,0.0,0.0,0.0,0.0,0.0,0.0,0.0,0.0,0.0,0.0,0.0,0.0,0.0,0.0,0.0,0.0,0.0,0.0,0.0,0.0,0.0,0.0,0.0,0.0,0.0,0.0,0.0,0.0,0.0,0.0,0.0,0.0,0.0,0.0,0.0,0.0,0.0,0.0,0.0,0.0,0.0,0.0,0.0,0.0,0.0,0.0,0.0,0.0,0.0,0.0,0.0,0.0,0.0,0.0,0.0,0.0,0.0,0.0,0.0,0.0,0.0,0.0,0.0,0.0,0.0,0.0,0.0,0.0,0.0,0.0,0.0,0.0,0.0,0.0,0.0,0.0,0.0,0.0,0.0,0.0,0.0,0.0,0.0,0.0,0.0,0.0,0.0,0.0,0.0,2.9552,3.1607,3.3643,3.5107,3.5878,3.5839,3.4213,3.2517,3.0866,0.0,0.0,0.0,0.0,0.0,0.0,0.0,0.0,0.0,0.0,0.0,0.0,0.0,0.0,0.0,0.0,0.0,0.0,0.0,0.0,0.0,0.0,0.0,0.0,0.0,0.0,0.0,0.0,0.0,0.0,0.0,0.0,0.0,0.0,0.0,0.0,0.0,0.0,2.4974,2.5325,0.0,0.0,0.0,0.0,0.0,0.0,0.0,0.0,2.7512,0.0,0.0,0.0,0.0,0.0,0.0,0.0,0.0,0.0,0.0,0.0,0.0,0.0,0.0,0.0,0.0,0.0,0.0,0.0,0.0,0.0,0.0,0.0,0.0,0.0,0.0,0.0,0.0,0.0,0.0,0.0,0.0,0.0,0.0,0.0,0.0,0.0,0.0,0.0,0.0,0.0,0.0,0.0,0.0,0.0,0.0,0.0,0.0,0.0,0.0,0.0,0.0,0.0,0.0,0.0,0.0,2.9991,3.0444,3.215,3.5313,3.5671,3.5795,3.5764,3.4191,3.2488,3.0769,0.0,0.0,0.0,0.0,0.0,0.0,0.0,0.0,0.0,0.0,0.0,0.0,0.0,0.0,0.0,0.0,0.0,0.0,0.0,0.0,0.0,0.0,0.0,0.0,0.0,0.0,0.0,0.0,0.0,0.0,0.0,0.0,0.0,0.0,0.0,0.0,0.0,0.0,0.0,2.8551,2.8756,0.0,0.0,0.0,0.0,0.0,0.0,0.0,0.0,2.8429,0.0,0.0,0.0,0.0,0.0,0.0,0.0,0.0,0.0,0.0,0.0,0.0,0.0,0.0,0.0,0.0,0.0,0.0,0.0,0.0,0.0,0.0,0.0,0.0,0.0,0.0,0.0,0.0,0.0,0.0,0.0,0.0,0.0,0.0,0.0,0.0,0.0,0.0,0.0,0.0,0.0,0.0,0.0,0.0,0.0,0.0,0.0,0.0,0.0,0.0,0.0,0.0,0.0,0.0,0.0,2.9812,3.1187,3.3103,3.564,3.5793,3.581,3.5771,3.4124,3.246,0.0,0.0,0.0,0.0,0.0,0.0,0.0,0.0,0.0,0.0,0.0,0.0,0.0,0.0,0.0,0.0,0.0,0.0,0.0,0.0,0.0,0.0,0.0,0.0,0.0,0.0,0.0,0.0,0.0,0.0,0.0,0.0,0.0,0.0,0.0,0.0,0.0,0.0,0.0,0.0,2.913,2.9628,3.1461,0.0,0.0,0.0,0.0,0.0,0.0,2.886,2.8767,0.0,0.0,0.0,0.0,0.0,0.0,0.0,0.0,0.0,0.0,0.0,0.0,0.0,0.0,0.0,0.0,0.0,0.0,0.0,0.0,0.0,0.0,0.0,0.0,0.0,0.0,0.0,0.0,0.0,0.0,0.0,0.0,0.0,0.0,0.0,0.0,0.0,0.0,0.0,0.0,0.0,0.0,0.0,0.0,0.0,0.0,0.0,0.0,0.0,0.0,0.0,0.0,0.0,0.0,0.0,2.9466,3.178,3.387,3.557,3.5718,3.5793,3.5754,3.3779,3.2072,0.0,0.0,0.0,0.0,0.0,0.0,0.0,0.0,0.0,0.0,0.0,0.0,0.0,0.0,0.0,0.0,0.0,0.0,0.0,0.0,0.0,0.0,0.0,0.0,0.0,0.0,0.0,0.0,0.0,0.0,0.0,0.0,0.0,0.0,0.0,0.0,0.0,0.0,0.0,0.0,0.0,3.0734,3.2445,3.0762,0.0,0.0,0.0,0.0,2.8641,3.0179,0.0,0.0,0.0,0.0,0.0,0.0,0.0,0.0,0.0,0.0,0.0,0.0,0.0,0.0,0.0,0.0,0.0,0.0,0.0,0.0,0.0,0.0,0.0,0.0,0.0,0.0,0.0,0.0,0.0,0.0,0.0,0.0,0.0,0.0,0.0,0.0,0.0,0.0,0.0,0.0,0.0,0.0,0.0,0.0,0.0,0.0,0.0,0.0,0.0,0.0,0.0,0.0,0.0,0.0,0.0,0.0,3.0199,3.203,3.3763,3.5442,3.5637,3.5718,3.564,3.2589,3.0831,0.0,0.0,0.0,0.0,0.0,0.0,0.0,0.0,0.0,0.0,0.0,0.0,0.0,0.0,0.0,0.0,0.0,0.0,0.0,0.0,0.0,0.0,0.0,0.0,0.0,0.0,0.0,0.0,0.0,0.0,0.0,0.0,0.0,0.0,0.0,0.0,0.0,0.0,0.0,0.0,0.0,3.3888,3.2408,3.2286,3.196,0.0,0.0,3.2248,3.2286,3.5255,0.0,0.0,0.0,0.0,0.0,0.0,0.0,0.0,0.0,0.0,0.0,0.0,0.0,0.0,0.0,0.0,0.0,0.0,0.0,0.0,0.0,0.0,0.0,0.0,0.0,0.0,0.0,0.0,0.0,0.0,0.0,0.0,0.0,0.0,0.0,0.0,0.0,0.0,0.0,0.0,0.0,0.0,0.0,0.0,0.0,0.0,0.0,0.0,0.0,0.0,0.0,0.0,0.0,0.0,0.0,2.9063,3.0318,3.2875,3.463,3.5405,3.5546,3.5615,3.5707,3.2269,3.0501,0.0,0.0,0.0,0.0,0.0,0.0,0.0,0.0,0.0,0.0,0.0,0.0,0.0,0.0,0.0,0.0,0.0,0.0,0.0,0.0,0.0,0.0,0.0,0.0,0.0,0.0,0.0,0.0,0.0,0.0,0.0,0.0,0.0,0.0,0.0,0.0,0.0,0.0,0.0,0.0,0.0,0.0,3.3313,3.2961,0.0,0.0,0.0,3.2176,3.2563,0.0,0.0,0.0,0.0,0.0,0.0,0.0,0.0,0.0,0.0,0.0,0.0,0.0,0.0,0.0,0.0,0.0,0.0,0.0,0.0,0.0,0.0,0.0,0.0,0.0,0.0,0.0,0.0,0.0,0.0,0.0,0.0,0.0,0.0,0.0,0.0,0.0,0.0,0.0,0.0,0.0,0.0,0.0,0.0,0.0,0.0,0.0,0.0,0.0,0.0,0.0,0.0,0.0,0.0,0.0,0.0,0.0,3.0175,3.3424,3.5168,3.527,3.535,3.5445,3.5469,3.2519,0.0,0.0,0.0,0.0,0.0,0.0,0.0,0.0,0.0,0.0,0.0,0.0,0.0,0.0,0.0,0.0,0.0,0.0,0.0,0.0,0.0,0.0,0.0,0.0,0.0,0.0,0.0,0.0,0.0,0.0,0.0,0.0,0.0,0.0,0.0,0.0,0.0,0.0,0.0,0.0,0.0,0.0,3.3087,3.4052,3.3843,3.405,0.0,0.0,3.2958,3.3458,3.5557,3.5479,0.0,0.0,0.0,0.0,0.0,0.0,0.0,0.0,0.0,0.0,0.0,0.0,0.0,0.0,0.0,0.0,0.0,0.0,0.0,0.0,0.0,0.0,0.0,0.0,0.0,0.0,0.0,0.0,0.0,0.0,0.0,0.0,0.0,0.0,0.0,0.0,0.0,0.0,0.0,0.0,0.0,0.0,0.0,0.0,0.0,0.0,0.0,0.0,0.0,0.0,0.0,0.0,0.0,0.0,0.0,2.9935,3.3184,3.4908,3.4945,3.5051,3.5119,3.5098,3.3478,3.184,0.0,0.0,0.0,0.0,0.0,0.0,0.0,0.0,0.0,0.0,0.0,0.0,0.0,0.0,0.0,0.0,0.0,0.0,0.0,0.0,0.0,0.0,0.0,0.0,0.0,0.0,0.0,0.0,0.0,0.0,0.0,0.0,0.0,0.0,0.0,0.0,0.0,0.0,0.0,0.0,0.0,3.4457,3.3973,3.5485,3.6883,0.0,0.0,3.6488,3.647,3.9532,3.9574,3.2486,0.0,0.0,0.0,0.0,0.0,0.0,0.0,0.0,0.0,0.0,0.0,0.0,0.0,0.0,0.0,0.0,0.0,0.0,0.0,0.0,0.0,0.0,0.0,0.0,0.0,0.0,0.0,0.0,0.0,0.0,0.0,0.0,0.0,0.0,0.0,0.0,0.0,0.0,0.0,0.0,0.0,0.0,0.0,0.0,0.0,0.0,0.0,0.0,0.0,0.0,0.0,0.0,0.0,2.9626,2.979,3.3091,3.485,3.4908,3.4964,3.4999,3.5086,3.3435,3.179,0.0,0.0,0.0,0.0,0.0,0.0,0.0,0.0,0.0,0.0,0.0,0.0,0.0,0.0,0.0,0.0,0.0,0.0,0.0,0.0,0.0,0.0,0.0,0.0,0.0,0.0,0.0,0.0,2.5369,2.4901,2.4793,0.0,0.0,0.0,0.0,0.0,0.0,0.0,0.0,0.0,0.0,3.4267,3.4475,3.5704,0.0,0.0,3.6469,3.6098,3.6516,3.7351,3.6307,3.1467,2.9901,0.0,0.0,0.0,0.0,0.0,0.0,0.0,0.0,0.0,0.0,0.0,0.0,0.0,0.0,0.0,0.0,0.0,0.0,0.0,0.0,0.0,0.0,0.0,0.0,0.0,0.0,0.0,0.0,0.0,0.0,0.0,0.0,0.0,0.0,0.0,0.0,0.0,0.0,0.0,0.0,0.0,0.0,0.0,0.0,0.0,0.0,0.0,0.0,0.0,0.0,0.0,0.0,2.9485,2.9869,3.3043,3.4668,3.4713,3.4791,3.487,3.4926,3.3752,3.2368,0.0,0.0,0.0,0.0,0.0,0.0,0.0,0.0,0.0,0.0,0.0,0.0,0.0,0.0,0.0,0.0,0.0,0.0,0.0,0.0,0.0,0.0,0.0,0.0,0.0,0.0,0.0,0.0,2.602,2.5386,2.4942,0.0,0.0,0.0,0.0,0.0,0.0,0.0,0.0,0.0,0.0,3.437,3.4691,3.5502,3.6123,3.6095,3.5363,3.5015,3.5679,3.5632,3.4462,3.1639,0.0,0.0,0.0,0.0,0.0,0.0,0.0,0.0,0.0,0.0,0.0,0.0,0.0,0.0,0.0,0.0,0.0,0.0,0.0,0.0,0.0,0.0,0.0,0.0,0.0,0.0,0.0,0.0,0.0,0.0,2.4888,0.0,0.0,0.0,0.0,0.0,0.0,0.0,0.0,0.0,0.0,0.0,0.0,0.0,0.0,0.0,0.0,0.0,0.0,0.0,0.0,0.0,0.0,2.9365,3.0184,3.2966,3.4372,3.4335,3.4495,3.4642,3.4604,3.471,3.3958,3.2279,0.0,0.0,0.0,0.0,0.0,0.0,0.0,0.0,0.0,0.0,0.0,0.0,0.0,0.0,0.0,0.0,0.0,0.0,0.0,0.0,0.0,0.0,0.0,0.0,0.0,0.0,2.5289,2.5744,2.5613,0.0,0.0,0.0,0.0,0.0,0.0,0.0,0.0,0.0,0.0,3.2929,3.51,3.4419,3.4952,3.5508,3.5482,3.432,3.3625,3.4352,3.5458,3.5679,0.0,0.0,0.0,0.0,0.0,0.0,0.0,0.0,0.0,0.0,0.0,0.0,0.0,0.0,0.0,0.0,0.0,0.0,0.0,0.0,0.0,0.0,0.0,0.0,0.0,0.0,0.0,2.4504,2.4728,0.0,0.0,0.0,0.0,0.0,0.0,0.0,0.0,0.0,0.0,0.0,2.8216,2.8634,0.0,0.0,0.0,0.0,0.0,0.0,0.0,0.0,0.0,0.0,0.0,0.0,3.0501,3.0737,3.3987,3.5425,3.4932,3.5107,3.4965,3.4404,3.4561,3.4158,3.3084,0.0,0.0,0.0,0.0,0.0,0.0,0.0,0.0,0.0,0.0,0.0,0.0,0.0,0.0,0.0,0.0,0.0,0.0,0.0,0.0,0.0,0.0,0.0,0.0,0.0,2.5756,0.0,0.0,0.0,0.0,0.0,0.0,0.0,0.0,0.0,0.0,0.0,2.983,3.1229,3.2908,3.4281,3.4944,3.5626,3.64,0.0,0.0,0.0,0.0,0.0,0.0,0.0,0.0,0.0,0.0,0.0,0.0,0.0,0.0,3.5552,3.0717,2.999,2.9959,2.9264,0.0,0.0,0.0,0.0,0.0,0.0,0.0,0.0,0.0,0.0,0.0,0.0,0.0,0.0,2.5364,0.0,2.4924,0.0,0.0,0.0,0.0,0.0,0.0,0.0,0.0,2.8754,2.9589,3.004,3.0421,3.0421,0.0,2.9317,2.7629,0.0,0.0,0.0,0.0,0.0,0.0,0.0,0.0,3.1039,3.1232,3.452,3.5975,3.5283,3.5416,3.5341,3.5025,3.5289,3.5371,3.5108,3.3719,3.2367,0.0,0.0,0.0,0.0,0.0,0.0,0.0,0.0,0.0,0.0,0.0,0.0,0.0,0.0,0.0,0.0,0.0,0.0,0.0,0.0,0.0,0.0,0.0,2.6339,0.0,0.0,0.0,0.0,0.0,0.0,0.0,0.0,0.0,2.879,3.0243,3.1792,3.3235,3.3932,3.4622,3.5324,0.0,0.0,0.0,0.0,0.0,0.0,0.0,3.3403,3.4573,3.4257,3.4288,3.5616,3.7733,3.906,3.8586,0.0,0.0,3.4288,3.3372,3.3056,3.2171,3.1981,3.195,3.195,3.2139,3.2139,0.0,0.0,0.0,0.0,0.0,0.0,0.0,0.0,2.7391,2.7531,0.0,2.6183,0.0,0.0,0.0,0.0,0.0,2.7747,0.0,0.0,3.3187,3.4372,3.2976,3.2745,3.2662,3.2417,2.9533,2.844,2.9016,2.9627,0.0,0.0,0.0,0.0,0.0,0.0,3.1005,3.1893,3.4788,3.5988,3.5504,3.5539,3.58,3.6235,3.6746,3.7324,3.8075,3.5897,3.5033,3.5709,3.1221,0.0,0.0,0.0,0.0,0.0,0.0,0.0,0.0,0.0,0.0,0.0,0.0,0.0,0.0,0.0,0.0,0.0,0.0,0.0,0.0,2.716,0.0,0.0,0.0,0.0,0.0,0.0,0.0,0.0,0.0,0.0,3.0164,3.1981,3.3751,3.5047,0.0,0.0,0.0,0.0,3.4789,3.2972,3.257,3.2361,3.1792,3.432,3.6627,3.7385,0.0,0.0,4.0798,4.064,4.0293,3.8965,3.985,4.0419,3.9598,3.7259,3.5616,3.5458,3.451,3.3593,3.3561,3.4225,3.4225,2.4572,0.0,0.0,0.0,0.0,2.515,2.5928,2.6852,2.6881,2.6991,2.7029,2.719,0.0,0.0,0.0,0.0,0.0,0.0,2.9054,3.0492,3.1636,3.2475,3.3106,3.3974,3.3929,3.3106,3.3215,3.3388,3.3556,3.3778,3.1641,2.7279,0.0,0.0,0.0,0.0,3.3462,3.439,3.7058,3.7834,3.6583,3.6685,3.6454,3.5763,3.6054,3.6348,3.6573,3.7024,3.6535,3.5033,3.3607,0.0,0.0,0.0,0.0,0.0,0.0,0.0,0.0,0.0,0.0,0.0,0.0,0.0,0.0,0.0,0.0,0.0,0.0,0.0,2.8247,2.7827,2.6885,0.0,0.0,0.0,0.0,0.0,0.0,0.0,0.0,0.0,3.1737,3.2248,3.2708,0.0,0.0,3.4297,3.4549,3.5471,3.6442,3.7326,3.7038,0.0,0.0,3.7069,3.7006,3.8649,4.0609,4.1778,4.1367,4.2126,4.2695,4.2252,4.1715,4.1241,4.0988,4.0008,3.8934,3.8428,3.7986,3.7733,3.7733,3.7891,3.7859,2.4705,2.3744,2.3865,2.43,2.4987,2.5557,2.6598,2.7803,2.7678,2.7962,2.8437,2.8056,2.7948,2.8051,2.8214,0.0,0.0,0.0,2.9944,3.1807,3.1807,3.2305,3.3158,3.399,3.4137,3.3664,3.4306,3.4898,3.5396,3.4351,3.2591,3.0063,0.0,0.0,3.0318,3.3282,3.5048,3.5581,3.8077,3.8785,3.7499,3.7308,3.6796,3.6012,3.616,3.6279,3.6385,3.7286,3.7136,3.5634,3.4658,3.2906,0.0,0.0,0.0,0.0,0.0,0.0,0.0,0.0,0.0,0.0,0.0,2.7075,0.0,0.0,0.0,0.0,2.808,2.8971,2.8329,2.7517,0.0,0.0,0.0,0.0,0.0,0.0,0.0,2.9149,3.0463,3.165,3.218,3.2616,3.3184,3.3991,3.439,3.4971,3.59,0.0,3.7997,3.8967,3.8776,3.8713,3.925,3.8649,3.8776,4.083,4.1641,4.2108,4.2103,4.2466,4.2544,4.2202,4.1548,4.0863,4.0613,4.024,3.9713,3.8968,3.8843,3.878,3.8435,3.9123,3.9594,2.5099,2.4478,2.4632,2.4869,2.5327,2.6184,2.7667,2.9372,2.9211,2.9878,3.0908,2.8993,2.8576,2.9149,2.7919,0.0,3.0096,3.0225,3.1331,3.313,3.313,3.313,3.313,3.3182,3.3475,3.3917,3.3583,3.3966,3.5078,3.2816,3.2577,3.4336,3.3795,3.3126,3.2496,3.4596,3.5746,3.5782,3.8008,3.8852,3.8193,3.7403,3.6933,3.6656,3.6696,3.6721,3.685,3.6948,3.6986,3.6934,3.4846,3.3468,3.3075,0.0,0.0,0.0,0.0,0.0,0.0,0.0,0.0,0.0,0.0,0.0,0.0,0.0,0.0,0.0,2.8841,0.0,2.8045,2.6955,0.0,0.0,0.0,2.7933,2.9342,3.0186,3.0707,3.0709,0.0,0.0,3.189,3.2945,3.4544,3.6567,3.6754,3.7112,3.8364,3.8963,3.9187,3.8716,3.8591,3.8432,3.8183,3.9283,4.0789,4.2516,4.2958,4.2488,4.2364,4.1566,4.067,3.9999,3.9777,3.9564,3.9017,3.8804,3.8476,3.7741,3.7776,3.7746,3.7344,3.8558,3.9338,2.5247,2.5153,2.6319,2.6569,2.6375,2.7124,2.7938,2.8843,2.9086,2.9538,2.999,3.0248,3.0998,3.2143,3.1836,3.1757,3.1805,3.1836,3.2137,3.2571,3.2602,3.2602,3.2602,3.3002,3.3055,3.2841,3.3623,3.4219,3.4625,3.5078,3.4756,3.3728,3.4032,3.3726,3.2823,3.3921,3.4826,3.5437,3.6575,3.7535,3.8162,3.7546,3.6897,3.6229,3.5959,3.5565,3.5016,3.5754,3.6197,3.616,3.5634,3.4667,3.3156,3.0761,0.0,0.0,0.0,0.0,0.0,0.0,0.0,0.0,0.0,2.8106,2.6208,0.0,2.7743,0.0,2.8007,2.9462,3.0587,2.9798,0.0,0.0,2.9654,2.9813,3.0207,3.1427,3.1819,3.083,3.1796,3.2615,3.2764,3.3092,3.4065,3.6094,3.6676,3.6929,3.7223,3.8299,3.8977,3.8892,3.9235,3.9474,3.9327,3.9726,4.0217,4.0738,4.0729,4.0436,4.0047,3.9695,3.9291,3.8591,3.8044,3.7892,3.8165,3.7104,3.6327,3.6586,3.7745,3.8762,3.8397,3.8246,3.8153,2.466,2.5102,2.6451,2.6713,2.6321,2.7012,2.7765,2.8511,2.8279,2.8866,3.0068,3.0907,3.1697,3.2461,3.2461,3.2272,3.2023,3.2023,3.2023,3.2023,3.2023,3.2023,3.2023,3.2296,3.2437,3.2468,3.3339,3.4216,3.489,3.6067,3.6375,3.5893,3.6299,3.5892,3.4651,3.3973,3.3798,3.4235,3.5401,3.6712,3.8101,3.7507,3.665,3.5608,3.5018,3.4203,3.3138,3.3701,3.4008,3.4008,3.3971,3.3492,3.2376,3.0491,2.8919,0.0,0.0,0.0,0.0,0.0,0.0,0.0,0.0,0.0,0.0,0.0,2.8244,2.7308,2.8939,3.0195,3.0588,3.0127,3.0136,3.0835,3.1006,3.1372,3.2,3.2855,3.3095,3.2464,3.3028,3.3558,3.3657,3.3914,3.4522,3.5805,3.6546,3.7228,3.7803,3.8741,3.9373,3.9404,3.9677,3.9798,3.9525,3.9191,3.9078,3.9009,3.8901,3.8572,3.8241,3.7973,3.7595,3.6969,3.676,3.673,3.679,3.6081,3.5427,3.579,3.6454,3.6953,3.6767,3.6041,3.5646,2.3768,2.4594,2.5816,2.6161,2.5929,2.6462,2.7242,2.7984,2.7003,2.7963,3.0313,3.115,3.1482,3.1482,3.1482,3.1482,3.1482,3.1482,3.1482,3.1482,3.1482,3.1482,3.1482,3.1482,3.1796,3.2272,3.3118,3.415,3.5379,3.6386,3.7441,3.8531,3.8667,3.7922,3.6344,3.4151,3.3049,3.302,3.4658,3.6386,3.8138,3.7305,3.6168,3.4775,3.4036,3.3036,3.1616,3.1589,3.1589,3.1589,3.1589,3.1616,3.1654,2.9963,2.8979,0.0,2.7323,0.0,0.0,0.0,0.0,0.0,0.0,0.0,0.0,2.9603,2.9264,2.9526,3.0464,3.0767,2.992,2.9827,3.0492,3.1974,3.2158,3.2706,3.407,3.4179,3.4221,3.4409,3.4399,3.4399,3.437,3.4922,3.5241,3.5514,3.6299,3.7272,3.85,3.914,3.9546,3.9586,3.9556,3.9143,3.8641,3.8137,3.7805,3.7745,3.7494,3.706,3.7001,3.6553,3.6067,3.5514,3.5689,3.5863,3.5328,3.531,3.5281,3.5252,3.4884,3.4464,3.4362,3.3752,3.3126,2.3229,2.4014,2.5311,2.61,2.6504,2.6632,2.6277,2.5598,2.5745,2.6957,2.9086,3.0761,3.1482,3.1482,3.1482,3.1482,3.1482,3.1482,3.1482,3.1482,3.1482,3.1482,3.1482,3.1482,3.1539,3.1769,3.3349,3.4314,3.4739,3.7084,3.7498,3.6161,3.6827,3.6129,3.4134,0.0,0.0,0.0,3.557,3.7199,3.8101,3.6761,3.5307,3.3742,3.3696,0.0,3.1458,3.1494,3.1589,3.1589,3.1589,0.0,0.0,0.0,0.0,0.0,0.0,0.0,0.0,0.0,0.0,0.0,3.0634,2.9947,3.017,2.9556,2.9468,3.023,3.0503,3.1072,3.214,3.2235,3.2813,3.4091,3.3908,3.402,3.4842,3.4596,3.4351,3.4399,3.4399,3.4399,3.4428,3.4516,3.4777,3.5241,3.5561,3.6038,3.672,3.777,3.8311,3.793,3.7856,3.7549,3.6934,3.6699,3.6593,3.657,3.6599,3.6295,3.5857,3.5671,3.5328,3.4748,3.469,3.4777,3.4632,3.4603,3.4632,3.4603,3.408,3.3784,3.4061,3.3443,3.2883,2.3144,0.0,2.5424,2.6223,0.0,2.6918,2.6378,2.5328,2.5876,2.7053,2.8683,3.0601,3.1336,3.1014,3.0681,3.0582,3.0552,2.9894,3.0103,3.1001,3.1031,3.139,3.1959,3.1959,3.2018,3.2048,3.327,3.4439,3.5545,3.7261,3.7936,3.7663,3.8179,3.7821,3.6738,3.6525,3.6084,3.5292,3.6434,3.7721,3.9189,3.8572,3.7196,3.5276,0.0,0.0,0.0,0.0,0.0,0.0,0.0,0.0,0.0,0.0,0.0,3.3137,3.2685,3.2652,3.3242,3.3092,3.3141,3.3543,3.2641,3.1746,3.079,3.0943,3.1401,3.1982,3.2021,3.2456,3.3336,3.3457,3.3819,3.4579,3.4381,3.4398,3.4714,3.4601,3.4399,3.4399,3.4399,3.4399,3.4399,3.4399,3.4516,3.4864,3.5183,3.5357,3.5473,3.646,3.7128,3.6838,3.6519,3.6228,3.5909,3.5561,3.5386,3.5386,3.5386,3.5241,3.4951,3.4893,3.4777,3.4486,3.4399,3.4399,3.4399,3.4399,3.4399,3.437,3.3906,3.342,3.3358,3.2713,3.2126,2.3465,2.4998,2.5946,2.6621,2.704,2.7535,2.7256,2.6553,0.0,0.0,0.0,3.0747,3.1308,3.0659,3.0268,3.0103,3.0043,2.8936,2.9385,3.1001,3.1031,3.1629,3.2677,3.2677,3.2677,3.2706,3.3533,3.4841,3.6596,3.7503,3.854,3.9714,3.9885,3.9884,3.9901,3.9768,3.9029,3.7732,3.7404,3.8322,4.042,4.0238,3.9115,3.7084,3.7631,3.6689,3.3973,3.4335,3.4341,3.3804,3.3502,3.3422,3.3654,3.3523,3.3494,3.3599,3.3634,3.3945,3.4753,3.4881,3.5095,3.5525,3.4906,3.377,3.2064,3.2793,3.3427,3.3635,3.3583,3.3636,3.3942,3.3967,3.4133,3.4341,3.4399,3.4399,3.4399,3.4399,3.4399,3.4399,3.4399,3.4399,3.4399,3.4399,3.4399,3.4486,3.4835,3.5038,3.469,3.5473,3.6199,3.6112,3.5793,3.5386,3.5154,3.4835,3.4428,3.4516,3.4486,3.4399,3.4399,3.4399,3.4399,3.4428,3.4399,3.4399,3.4399,3.4399,3.4399,3.4399,3.3906,3.3267,3.2629,3.199,3.143,2.4493,2.6271,2.6967,2.7564,2.8177,2.8769,2.9262,2.9656,2.8721,2.8455,2.8742,3.1249,3.1989,3.1366,3.187,3.2108,3.2108,3.1898,3.2287,3.3066,3.3095,3.3155,3.3365,3.3365,3.3365,3.3517,3.5109,3.6153,3.6603,3.833,3.9348,3.9506,3.9177,3.9041,3.9174,3.9747,4.0109,4.0205,3.8989,3.9045,4.042,3.9188,3.8065,3.7084,3.716,3.6653,3.553,3.4987,3.4749,3.5094,3.4487,3.4896,3.6465,3.6534,3.7055,3.8199,3.8339,3.7965,3.7186,3.7428,3.7152,3.6214,3.5934,3.5605,3.4881,3.4029,3.364,3.3846,3.3517,3.3324,3.355,3.3609,3.3871,3.4312,3.4399,3.4399,3.4399,3.4399,3.4399,3.4399,3.4399,3.4399,3.4399,3.4399,3.4399,3.4428,3.4632,3.4574,3.4661,3.5009,3.5444,3.5473,3.5415,3.5125,3.4719,3.4516,3.4399,3.4399,3.4399,3.4399,3.4399,3.4457,3.4428,3.4399,3.4428,3.4428,3.4428,3.4399,3.4399,3.437,3.3906,3.3267,3.2622,3.2014,3.1426,2.6043,2.7012,2.7515,2.8196,2.8882,2.917,2.9741,3.0365,3.0207,3.0135,3.0344,3.2224,3.2675,3.2046,3.1961,3.1988,3.1958,3.124,3.1659,3.2916,3.2976,3.3365,3.3993,3.4023,3.4179,3.4547,3.5064,3.6063,3.7367,3.776,3.8253,3.8835,3.8422,3.825,3.8497,3.9512,4.0353,4.0767,4.0403,4.0593,4.1384,4.0998,4.0347,3.9586,3.9948,3.9586,3.8391,3.8427,3.8325,3.8007,3.7578,3.7683,3.8447,3.8395,3.8631,3.9252,3.8901,3.8405,3.7954,3.7746,3.7386,3.6864,3.6432,3.6291,3.6527,3.5034,3.4112,3.4027,3.3806,3.3785,3.3972,3.4002,3.4118,3.437,3.4399,3.4399,3.4399,3.4399,3.4399,3.4399,3.4399,3.4399,3.4399,3.4399,3.4399,3.4428,3.4661,3.5038,3.5357,3.5648,3.559,3.5009,3.4835,3.4748,3.4486,3.4399,3.4399,3.4399,3.4399,3.4399,3.4428,3.4612,3.4738,3.4486,3.4709,3.4738,3.4486,3.4399,3.4399,3.437,3.3906,3.3354,3.2774,3.216,3.1528,2.7705,2.8206,2.8566,2.9181,2.99,2.9795,3.0331,3.128,3.1706,3.2065,3.2536,3.3347,3.3357,3.2717,3.2287,3.2198,3.2048,3.115,3.1599,3.3066,3.3185,3.3724,3.4622,3.4711,3.4969,3.5278,3.4941,3.5765,3.7472,3.6854,3.694,3.7902,3.7968,3.7913,3.7922,3.9512,4.0492,4.0886,4.1511,4.2053,4.2465,4.2943,4.2774,4.2085,4.2556,4.2303,4.1144,4.1396,4.132,4.0699,4.0328,4.0055,4.0029,3.9898,3.9814,3.9779,3.9182,3.8703,3.8559,3.7719,3.7321,3.7556,3.6851,3.6589,3.6958,3.5672,3.4699,3.4498,3.4332,3.4244,3.4351,3.4399,3.4399,3.4399,3.4399,3.4399,3.4399,3.4399,3.4486,3.4574,3.4516,3.4486,3.4748,3.4719,3.4748,3.4951,3.527,3.5764,3.6199,3.6286,3.5851,3.5212,3.4835,3.4922,3.4835,3.4893,3.4922,3.4835,3.4893,3.4951,3.4951,3.5215,3.5283,3.4932,3.4942,3.501,3.47,3.4486,3.4361,3.4235,3.3772,3.3149,3.2559,3.1797,3.1197,2.9527,3.0563,3.0589,3.1162,3.1685,3.127,3.2097,3.3686,3.3521,3.4032,3.4961,3.4588,3.4083,3.3543,3.3963,3.4143,3.4143,3.4083,3.4382,3.507,3.522,3.531,3.537,3.54,3.5389,3.5339,3.5278,3.5654,3.6443,3.6335,3.6397,3.6734,3.7968,3.8385,3.8227,3.9986,4.112,4.1205,4.2277,4.294,4.3202,4.3696,4.3607,4.281,4.2846,4.2846,4.2556,4.1861,4.1633,4.2007,4.1191,4.0948,4.1297,4.1358,4.1358,4.1279,4.092,4.0481,3.9747,3.8465,3.7829,3.8181,3.7488,3.6747,3.6165,3.5537,3.5284,3.5409,3.4853,3.438,3.4399,3.4399,3.4399,3.4399,3.4457,3.4399,3.4457,3.4399,3.4632,3.5212,3.4864,3.4835,3.5735,3.559,3.5503,3.5996,3.6141,3.6286,3.646,3.6489,3.646,3.6199,3.6141,3.6083,3.6054,3.6112,3.5967,3.5996,3.6083,3.5967,3.5892,3.5682,3.5497,3.5718,3.5212,3.4903,3.502,3.4835,3.4264,3.3934,3.3436,3.273,3.1734,3.0971,3.0317,3.0543,3.0529,3.0843,3.1394,3.2046,3.2301,3.3394,3.4835,3.5107,3.5683,3.65,3.6327,3.5639,3.4711,3.4981,3.51,3.507,3.51,3.525,3.5489,3.5489,3.5489,3.5489,3.5489,3.5609,3.582,3.5519,3.5791,3.6568,3.6781,3.6721,3.6659,3.7663,3.8048,3.8058,3.9648,4.0527,4.0595,4.2243,4.2861,4.259,4.323,4.3404,4.2991,4.2882,4.2844,4.2729,4.2325,4.2092,4.205,4.1676,4.1505,4.1569,4.1604,4.1515,4.1255,4.0685,4.0027,3.9242,3.8645,3.8384,3.8375,3.7594,3.6906,3.6383,3.5688,3.5299,3.5335,3.4868,3.4399,3.4399,3.4428,3.4399,3.4457,3.4748,3.498,3.498,3.5328,3.5648,3.588,3.5706,3.5677,3.6141,3.6083,3.6199,3.6751,3.6896,3.6983,3.7331,3.7418,3.7418,3.7418,3.7418,3.707,3.6548,3.6286,3.6315,3.6315,3.6286,3.6286,3.6315,3.6574,3.6558,3.6373,3.5805,3.5369,3.5369,3.4658,3.3991,3.363,3.3227,3.2569,3.1777,3.1199,3.0501,3.1753,3.1294,3.1676,3.2426,3.3262,3.3691,3.4577,3.5839,3.6406,3.6891,3.7336,3.7404,3.6926,3.6088,3.5848,3.5759,3.5759,3.5579,3.5489,3.5519,3.5669,3.5734,3.5778,3.5764,3.5889,3.5958,3.5546,3.5849,3.6828,3.7203,3.7102,3.6961,3.758,3.81,3.852,3.9851,4.0593,4.078,4.2313,4.2808,4.2403,4.28,4.3116,4.3084,4.3387,4.3385,4.2933,4.2893,4.2507,4.1917,4.1831,4.1744,4.1604,4.1515,4.1105,4.0444,3.9695,3.9093,3.8572,3.8467,3.8404,3.8375,3.7535,3.6845,3.6445,3.5688,3.5169,3.4971,3.4601,3.4399,3.4428,3.4574,3.4661,3.4719,3.5241,3.5619,3.5648,3.6083,3.6344,3.6519,3.6344,3.6402,3.6548,3.6722,3.707,3.7447,3.7564,3.7651,3.8086,3.8173,3.8144,3.8202,3.8173,3.7825,3.7012,3.6925,3.6809,3.6809,3.6896,3.6925,3.678,3.7201,3.7405,3.7041,3.6633,3.6241,3.5941,3.5052,3.376,3.3466,3.303,3.2494,3.2011,3.1564,3.1031,3.3065,3.3723,3.3973,3.4782,3.6041,3.5503,3.6035,3.7237,3.7366,3.7366,3.7494,3.7494,3.7404,3.7285,3.6746,3.6447,3.6357,3.5914,3.5644,3.5609,3.6214,3.6386,3.6382,3.6416,3.6072,3.5565,3.5595,3.5817,3.6365,3.7034,3.7303,3.7336,3.8254,3.8974,3.9711,4.1037,4.1862,4.1937,4.2665,4.3037,4.2927,4.2824,4.3067,4.3451,4.4489,4.457,4.3832,4.3519,4.2988,4.1909,4.1692,4.1604,4.156,4.1209,4.0328,3.9117,3.8314,3.7987,3.817,3.7807,3.7728,3.8133,3.7298,3.6507,3.6039,3.5494,3.4971,3.4467,3.4399,3.4399,3.4457,3.4806,3.5183,3.527,3.5851,3.617,3.6257,3.6402,3.6635,3.7012,3.6809,3.6751,3.7215,3.7767,3.7941,3.8086,3.8115,3.8144,3.8173,3.8202,3.8202,3.8202,3.8202,3.8173,3.8086,3.7825,3.7912,3.7854,3.7709,3.7941,3.7883,3.7796,3.7796,3.7622,3.6997,3.6563,3.6372,3.5536,3.4199,3.3393,3.2715,3.2191,3.2126,3.1656,3.1205,3.5079,3.53,3.5495,3.6072,3.6881,3.7175,3.7585,3.8063,3.8512,3.8691,3.8691,3.8691,3.8691,3.8661,3.8003,3.7464,3.7143,3.7273,3.697,3.631,3.6854,3.6645,3.5937,3.6216,3.6322,3.6069,3.6356,3.6635,3.7011,3.81,3.8753,3.9039,4.0093,4.0883,4.1184,4.1619,4.1887,4.1976,4.2244,4.2375,4.2441,4.3045,4.3528,4.3652,4.4117,4.4298,4.412,4.3579,4.2856,4.2125,4.1533,4.1117,4.0814,4.0021,3.9404,3.8851,3.8288,3.8284,3.8718,3.8329,3.8116,3.823,3.7058,3.6165,3.5785,3.5169,3.4601,3.4399,3.4428,3.4399,3.4428,3.4632,3.4922,3.5357,3.5938,3.6519,3.6925,3.7273,3.7622,3.7796,3.7651,3.7651,3.7767,3.8086,3.8202,3.8202,3.8202,3.8202,3.8202,3.8202,3.8202,3.8202,3.8202,3.8202,3.8202,3.8173,3.8202,3.8173,3.8144,3.8115,3.8057,3.8028,3.8028,3.7941,3.7331,3.6735,3.6453,3.5124,3.3907,3.3211,3.2527,3.2255,3.2182,3.1748,3.1487,3.6788,3.6825,3.691,3.7386,3.7915,3.827,3.8512,3.8751,3.92,3.929,3.911,3.908,3.899,3.8781,3.8512,3.8182,3.7743,3.7825,3.7344,3.6572,3.6983,3.6901,3.6506,3.6598,3.6689,3.6731,3.7279,3.7861,3.8678,3.9648,4.0113,4.0354,4.1288,4.1855,4.2022,4.2088,4.2088,4.2144,4.2144,4.22,4.2378,4.2989,4.3634,4.3985,4.4044,4.4077,4.4225,4.3711,4.2917,4.2071,4.1457,4.0886,4.022,3.9327,3.8706,3.8571,3.812,3.8143,3.8784,3.8362,3.8149,3.8319,3.7058,3.6102,3.5849,3.5169,3.4668,3.4496,3.4632,3.4719,3.4777,3.4922,3.5183,3.5706,3.6402,3.707,3.7564,3.7941,3.8144,3.8173,3.8144,3.8173,3.8202,3.8202,3.8202,3.8202,3.8202,3.8202,3.8202,3.8202,3.8202,3.8173,3.7999,3.7883,3.7738,3.7593,3.7912,3.7999,3.8115,3.8144,3.8202,3.8202,3.8173,3.8115,3.7659,3.7032,3.6014,3.4715,3.3798,3.3043,3.2535,3.2182,3.2074,3.1884,3.1703,3.8173,3.8206,3.8305,3.865,3.9098,3.8571,3.8751,3.929,3.9349,3.902,3.8691,3.8512,3.8402,3.7893,3.8472,3.8462,3.837,3.7563,3.704,3.6748,3.6884,3.7498,3.8136,3.7778,3.7676,3.763,3.8196,3.9453,4.1044,4.121,4.1309,4.1375,4.1508,4.2062,4.2535,4.2535,4.256,4.2675,4.2732,4.2789,4.2936,4.2912,4.3384,4.4238,4.4238,4.4143,4.4044,4.4044,4.3253,4.1783,4.146,4.1002,3.9868,3.9093,3.8589,3.8202,3.7584,3.7562,3.8196,3.7851,3.789,3.8302,3.7392,3.6474,3.6186,3.5574,3.5074,3.4787,3.5067,3.5357,3.5473,3.588,3.6257,3.6431,3.7244,3.7883,3.8115,3.8173,3.8202,3.8202,3.8202,3.8202,3.8202,3.8202,3.8202,3.8202,3.8202,3.8202,3.8202,3.8202,3.8202,3.8086,3.7825,3.7535,3.7186,3.6896,3.736,3.7767,3.7941,3.8057,3.8173,3.8202,3.8127,3.8023,3.7491,3.6787,3.5975,3.4699,3.3813,3.3078,3.2616,3.2236,3.2074,3.1992,3.2046,3.9046,3.8957,3.8519,3.8781,3.923,3.8212,3.8332,3.932,3.8931,3.8871,3.905,3.908,3.9244,3.9512,3.9734,3.9794,3.98,3.9399,3.8989,3.8735,3.9471,3.9532,3.9269,3.9425,3.9747,4.009,4.0376,4.0762,4.1385,4.1939,4.217,4.227,4.2667,4.3032,4.323,4.3264,4.3264,4.3322,4.3322,4.3356,4.3381,4.3322,4.3514,4.3798,4.3864,4.3814,4.3809,4.3824,4.3268,4.1948,4.1354,4.0337,3.902,3.8535,3.8351,3.8214,3.7996,3.846,3.9412,3.8743,3.8602,3.9178,3.8028,3.7174,3.7152,3.6476,3.5926,3.5677,3.5909,3.5996,3.6112,3.6606,3.6954,3.7012,3.736,3.7825,3.8144,3.8202,3.8202,3.8202,3.8202,3.8202,3.8202,3.8202,3.8202,3.8202,3.8202,3.8202,3.8202,3.8202,3.8202,3.8144,3.768,3.7302,3.7128,3.6896,3.6983,3.7418,3.768,3.7854,3.7999,3.7982,3.7936,3.7501,3.707,3.6465,3.5604,3.4904,3.3914,3.3295,3.2888,3.2562,3.2264,3.2236,3.2318,3.926,3.902,3.8841,3.902,3.932,3.8482,3.8631,3.932,3.896,3.8871,3.902,3.9305,3.9542,3.9831,4.0225,4.0469,4.0546,4.1024,4.1055,4.0606,4.0546,4.0534,4.0236,4.0587,4.1198,4.1692,4.1791,4.1923,4.227,4.2667,4.2932,4.3032,4.3396,4.3595,4.3628,4.3628,4.3628,4.3628,4.3628,4.3628,4.3628,4.3628,4.3628,4.3628,4.3628,4.3628,4.3595,4.3709,4.3305,4.2344,4.1498,4.05,3.9487,3.9454,3.9388,3.9421,3.9454,3.9852,4.0525,3.9789,3.9509,3.9983,3.8717,3.7659,3.7758,3.706,3.657,3.6315,3.6548,3.6693,3.6751,3.7244,3.7593,3.7651,3.768,3.7796,3.8144,3.8202,3.8202,3.8202,3.8202,3.8202,3.8202,3.8202,3.8202,3.8202,3.8202,3.8202,3.8202,3.8202,3.8202,3.8086,3.7651,3.7389,3.7273,3.6983,3.6664,3.7012,3.7389,3.7535,3.768,3.7457,3.7307,3.6552,3.5962,3.5626,3.4958,3.4753,3.419,3.3702,3.3186,3.2888,3.2643,3.2562,3.2562,3.899,3.8512,3.902,3.926,3.9379,3.9242,3.9283,3.9481,3.9474,3.9184,3.8931,3.9405,3.9344,3.9175,4.0193,4.0736,4.0928,4.1977,4.2518,4.204,4.1174,4.0744,4.1486,4.1617,4.2071,4.2634,4.27,4.2999,4.3529,4.3628,4.3661,4.3562,4.3595,4.3628,4.3628,4.3628,4.3628,4.3628,4.3628,4.3628,4.3628,4.3628,4.3628,4.3628,4.3628,4.3628,4.3628,4.3588,4.3256,4.2535,4.1797,4.1299,4.1309,4.1409,4.1177,4.111,4.1342,4.1309,4.1295,4.0671,4.048,4.0619,3.9629,3.8635,3.8189,3.7764,3.7234,3.6736,3.707,3.7331,3.7447,3.7796,3.8086,3.8173,3.8086,3.8144,3.8202,3.8202,3.8202,3.8202,3.8202,3.8202,3.8202,3.8202,3.8202,3.8202,3.8202,3.8202,3.8202,3.8202,3.8202,3.797,3.7651,3.7418,3.7273,3.678,3.6548,3.7012,3.7331,3.7476,3.7445,3.7221,3.6874,3.6059,3.5168,3.4826,3.4671,3.46,3.4384,3.3919,3.3512,3.324,3.2996,3.2806,3.2589,3.8542,3.8362,3.8063,3.8512,3.9272,3.8948,3.9344,4.0147,4.0194,4.008,3.9955,4.0121,4.0469,4.0704,4.1054,4.1757,4.2574,4.3136,4.3355,4.3262,4.2906,4.2643,4.2973,4.2999,4.3389,4.3992,4.4037,4.4235,4.4423,4.4423,4.4158,4.3661,4.3761,4.3694,4.3628,4.3694,4.3628,4.3628,4.3628,4.3661,4.3661,4.3628,4.3628,4.3628,4.3628,4.3628,4.3628,4.3628,4.3264,4.2535,4.1806,4.1442,4.1508,4.1508,4.1574,4.1541,4.1508,4.1707,4.1923,4.1194,4.0998,4.1749,4.0418,3.9468,3.9412,3.8912,3.8368,3.7886,3.7912,3.7941,3.797,3.8086,3.8202,3.8202,3.8202,3.8202,3.8202,3.8202,3.8202,3.8202,3.8202,3.8202,3.8202,3.8202,3.8202,3.8202,3.8202,3.8202,3.8202,3.8202,3.8202,3.8028,3.7767,3.7476,3.7157,3.6664,3.6577,3.7099,3.7389,3.749,3.744,3.7282,3.6803,3.623,3.5244,3.4685,3.4766,3.4714,3.4389,3.3958,3.3607,3.3235,3.2976,3.2752,3.2481,3.7973,3.7973,3.7853,3.8482,3.9395,3.9388,3.9941,4.0769,4.0918,4.0893,4.0954,4.127,4.1564,4.1973,4.2266,4.2772,4.3568,4.3628,4.3734,4.4125,4.4329,4.4191,4.386,4.3833,4.4263,4.4721,4.5032,4.516,4.5185,4.5152,4.4887,4.4688,4.4556,4.4556,4.4589,4.4191,4.4059,4.4026,4.3827,4.3727,4.4026,4.3761,4.386,4.3893,4.3827,4.3628,4.3628,4.3628,4.3396,4.2999,4.2568,4.2336,4.2336,4.2336,4.2336,4.2336,4.2336,4.2568,4.2683,4.1945,4.1805,4.2171,4.1049,4.0411,4.0078,3.9595,3.887,3.862,3.8352,3.8202,3.8202,3.8202,3.8202,3.8202,3.8202,3.8202,3.8202,3.8202,3.8202,3.8202,3.8202,3.8202,3.8202,3.8202,3.8202,3.8202,3.8202,3.8202,3.8202,3.8202,3.8173,3.8057,3.7999,3.7796,3.7531,3.7082,3.688,3.7284,3.7175,3.7394,3.6959,3.6747,3.608,3.5429,3.5009,3.4686,3.4552,3.4444,3.4177,3.378,3.3542,3.3167,3.2791,3.2648,3.2353,3.7494,3.7554,3.8153,3.8841,3.9671,4.0337,4.093,4.1525,4.1723,4.1724,4.1725,4.23,4.2361,4.2613,4.3084,4.3641,4.3794,4.4026,4.4324,4.4821,4.5218,4.5052,4.4257,4.4561,4.4953,4.5218,4.5689,4.5854,4.5818,4.5814,4.5682,4.5317,4.5351,4.545,4.5019,4.4787,4.4655,4.4357,4.4059,4.4092,4.439,4.4125,4.4125,4.439,4.3926,4.3661,4.3628,4.3628,4.3595,4.3628,4.3628,4.3495,4.3529,4.3562,4.3529,4.3495,4.3337,4.3403,4.335,4.2668,4.2326,4.2108,4.1238,4.0727,4.0362,3.9707,3.9128,3.9017,3.8575,3.8352,3.8202,3.8202,3.8202,3.8202,3.8202,3.8202,3.8202,3.8202,3.8202,3.8202,3.8202,3.8202,3.8202,3.8202,3.8202,3.8202,3.8202,3.8202,3.8202,3.8202,3.8202,3.8173,3.8144,3.8173,3.789,3.7529,3.7443,3.7501,3.709,3.6831,3.5925,3.5531,3.4831,3.4281,3.4228,3.4058,3.4009,3.3901,3.3706,3.3684,3.3401,3.2906,3.2515,3.2437,3.2279,3.8182,3.8182,3.8332,3.9113,4.03,4.0997,4.1754,4.2429,4.2929,4.279,4.2458,4.2512,4.2602,4.2657,4.344,4.3965,4.4556,4.4986,4.545,4.5549,4.5682,4.5682,4.5317,4.5611,4.591,4.6278,4.655,4.6649,4.6546,4.6113,4.5516,4.5086,4.4854,4.4158,4.4324,4.4754,4.439,4.4059,4.4224,4.4489,4.4589,4.4522,4.4489,4.4688,4.4092,4.3694,4.3661,4.3628,4.3628,4.3628,4.3694,4.3794,4.3661,4.3628,4.3628,4.3628,4.3568,4.3509,4.3136,4.2439,4.1714,4.1434,4.0515,3.9846,3.9915,3.9708,3.9364,3.92,3.8943,3.8649,3.8277,3.8202,3.8202,3.8202,3.8202,3.8202,3.8202,3.8202,3.8202,3.8202,3.8202,3.8202,3.8202,3.8202,3.8202,3.8202,3.8202,3.8202,3.8202,3.8202,3.8202,3.8202,3.8202,3.8127,3.772,3.7232,3.6844,3.6766,3.648,3.6136,3.525,3.4741,3.4313,3.3878,3.3579,3.3579,3.3534,3.3301,3.3148,3.3191,3.3097,3.272,3.2418,3.2346,3.2197,3.9001,3.9893,3.9893,4.0515,4.162,4.2618,4.346,4.3968,4.4075,4.3926,4.3635,4.3596,4.3558,4.3568,4.4348,4.497,4.5322,4.5947,4.6311,4.6411,4.6643,4.6841,4.6941,4.7104,4.7336,4.7106,4.6878,4.7075,4.7139,4.6742,4.6378,4.6212,4.545,4.5417,4.5052,4.5152,4.4821,4.4357,4.4456,4.4688,4.4688,4.4688,4.492,4.5119,4.4854,4.4622,4.4688,4.4688,4.4655,4.4622,4.4589,4.4257,4.3727,4.3628,4.3661,4.3628,4.3628,4.3337,4.2769,4.2201,4.1541,4.0852,3.9848,3.985,3.9741,3.9663,3.9459,3.9384,3.9235,3.887,3.8277,3.8202,3.8202,3.8202,3.8202,3.8202,3.8202,3.8202,3.8202,3.8202,3.8202,3.8202,3.8202,3.8202,3.8202,3.8202,3.8202,3.8202,3.8202,3.8202,3.8202,3.8202,3.8202,3.8052,3.7491,3.6844,3.5869,3.5655,3.5251,3.4924,3.4406,3.4158,3.3933,3.3674,3.3335,3.3275,3.3199,3.2896,3.255,3.2426,3.2339,3.2322,3.224,3.2122,3.2016,4.0177,4.1942,4.1942,4.2365,4.3136,4.4269,4.5048,4.5586,4.5119,4.4854,4.4859,4.4854,4.4731,4.4995,4.5553,4.598,4.6311,4.6676,4.7073,4.7139,4.7537,4.7835,4.8166,4.8464,4.8497,4.7502,4.7669,4.7968,4.81,4.757,4.7272,4.7669,4.6974,4.6278,4.6378,4.6113,4.545,4.4953,4.492,4.5119,4.5185,4.5218,4.5483,4.5814,4.5682,4.5582,4.5549,4.5616,4.5682,4.5781,4.5781,4.5119,4.4357,4.3959,4.386,4.3893,4.4026,4.3932,4.3323,4.255,4.1666,4.0647,3.9752,3.9598,3.9942,3.9699,3.949,3.9436,3.9307,3.8723,3.8277,3.8202,3.8202,3.8202,3.8202,3.8202,3.8202,3.8202,3.8202,3.8202,3.8202,3.8202,3.8202,3.8202,3.8202,3.8202,3.8202,3.8202,3.8202,3.8202,3.8202,3.8202,3.8202,3.7796,3.7337,3.6346,3.5467,3.465,3.4262,3.3843,3.353,3.3189,3.3018,3.336,3.3189,3.2957,3.2698,3.2463,3.2113,3.1761,3.1753,3.1969,3.1994,3.1846,3.1938,4.242,4.3368,4.3368,4.3805,4.4399,4.4756,4.5276,4.5719,4.5715,4.5611,4.564,4.5645,4.5619,4.5821,4.638,4.7007,4.7403,4.7635,4.7734,4.7734,4.8,4.833,4.8994,4.9227,4.9427,4.9926,4.9759,4.9725,4.9326,4.8597,4.8132,4.7769,4.6938,4.6341,4.6245,4.5847,4.5881,4.5549,4.5549,4.5814,4.6079,4.6378,4.6543,4.6742,4.6444,4.6146,4.598,4.5881,4.5781,4.5781,4.5814,4.5682,4.545,4.5384,4.5152,4.4754,4.4953,4.4925,4.4381,4.335,4.2197,4.1082,4.0197,3.9598,3.9755,3.9679,3.9763,3.9536,3.906,3.8352,3.8202,3.8202,3.8231,3.8231,3.8289,3.8318,3.8318,3.8376,3.8405,3.8492,3.8376,3.8202,3.8202,3.8202,3.8202,3.8202,3.8202,3.8202,3.8202,3.8202,3.8202,3.8202,3.8202,3.7644,3.7106,3.6029,3.4979,3.4069,3.3505,3.2993,3.2587,3.2176,3.2089,3.2612,3.2612,3.2176,3.2025,3.2025,3.1937,3.1761,3.1737,3.1713,3.1865,3.2016,3.2131,4.4349,4.5307,4.5373,4.5538,4.5897,4.6323,4.6618,4.681,4.6543,4.6411,4.6347,4.6347,4.635,4.6614,4.7206,4.7697,4.7761,4.8127,4.8028,4.7828,4.8061,4.8692,4.9491,4.9759,5.046,5.1128,5.1393,5.1092,5.0426,4.9426,4.8994,4.9028,4.8227,4.7498,4.7071,4.7135,4.6573,4.6242,4.6212,4.6378,4.6543,4.7007,4.7603,4.7835,4.7736,4.7537,4.7438,4.704,4.6974,4.6974,4.6941,4.6742,4.6576,4.6576,4.6411,4.5616,4.5649,4.5553,4.5131,4.4089,4.3182,4.1833,4.1271,4.1023,4.0801,4.0826,4.0442,3.9798,3.9277,3.8501,3.8277,3.826,3.8376,3.8638,3.8725,3.887,3.9073,3.9131,3.9102,3.8957,3.8609,3.8405,3.8202,3.8202,3.8202,3.8202,3.8231,3.8289,3.8347,3.8376,3.8463,3.8102,3.8007,3.7282,3.6571,3.5492,3.4607,3.3734,3.3032,3.2512,3.2162,3.1946,3.1809,3.2089,3.1849,3.1858,3.1785,3.1874,3.1785,3.1721,3.1834,3.193,3.201,3.2178,3.2352,4.5963,4.7106,4.7106,4.7106,4.7206,4.7736,4.7968,4.7868,4.7371,4.7141,4.7144,4.7141,4.7141,4.7308,4.7734,4.7992,4.768,4.8283,4.8082,4.7718,4.8383,4.9086,4.972,5.0526,5.1296,5.2169,5.2469,5.2335,5.1396,5.0492,5.0393,5.0226,5.0058,4.9359,4.8597,4.833,4.7566,4.7303,4.7007,4.7007,4.7106,4.7802,4.8696,4.926,4.9326,4.9193,4.8796,4.8398,4.8001,4.7901,4.7835,4.7703,4.7338,4.7669,4.7438,4.6477,4.6245,4.5881,4.5616,4.5127,4.4384,4.3027,4.2875,4.2655,4.2236,4.1771,4.1386,4.0385,3.9828,3.9327,3.8935,3.8638,3.887,3.9189,3.9392,3.9509,3.9799,3.9886,3.9828,3.9538,3.8986,3.8841,3.8899,3.8899,3.9015,3.9015,3.9044,3.9015,3.9044,3.8957,3.8804,3.8274,3.7698,3.6794,3.5923,3.494,3.4132,3.3532,3.2867,3.239,3.214,3.1937,3.1978,3.214,3.2026,3.201,3.1889,3.1961,3.2226,3.2322,3.2082,3.213,3.2491,3.264,3.2787,4.7074,4.7868,4.7868,4.7868,4.7868,4.7968,4.8001,4.8001,4.7835,4.7868,4.7671,4.7769,4.7703,4.7867,4.8096,4.8289,4.8349,4.8413,4.8212,4.7843,4.8815,4.9617,5.0118,5.1128,5.2102,5.2876,5.3078,5.2974,5.2302,5.1698,5.1396,5.1227,5.0693,5.0092,4.9593,4.936,4.926,4.9392,4.9028,4.9028,4.9425,4.9723,4.9922,5.0055,5.0055,4.9856,4.9425,4.9094,4.8763,4.8233,4.8067,4.7968,4.7901,4.7901,4.7968,4.7769,4.7736,4.7703,4.724,4.6616,4.5764,4.4625,4.4333,4.3645,4.3151,4.2768,4.2314,4.1115,4.0799,4.0406,3.978,3.977,3.9915,3.9944,4.0002,4.006,4.0234,4.0641,4.0583,4.0495,4.006,3.9973,3.9973,3.9944,3.9915,3.9886,3.9857,3.977,3.9683,3.9538,3.9402,3.8896,3.8126,3.7208,3.6102,3.4986,3.4022,3.3301,3.2907,3.2461,3.2274,3.225,3.2394,3.2418,3.2418,3.2491,3.2563,3.2707,3.2971,3.2899,3.2659,3.2827,3.314,3.3239,3.31,4.7704,4.8001,4.8001,4.8001,4.8001,4.8001,4.8001,4.7901,4.7602,4.7531,4.7398,4.7162,4.7291,4.7788,4.8283,4.8375,4.8298,4.8568,4.8664,4.8467,4.9308,5.0315,5.1223,5.1831,5.2572,5.3247,5.3349,5.2977,5.2775,5.2674,5.2505,5.1799,5.1564,5.0827,5.0226,5.0126,4.9893,4.9759,4.9658,4.9889,5.0253,5.0585,5.0817,5.0817,5.0817,5.0585,5.032,4.9889,4.9657,4.9193,4.8928,4.863,4.8498,4.8266,4.8001,4.8001,4.7968,4.7968,4.7901,4.7539,4.6782,4.629,4.5896,4.5495,4.45,4.3812,4.3097,4.167,4.1249,4.0772,4.0304,4.0089,4.035,4.0495,4.067,4.0902,4.1018,4.1192,4.1366,4.1279,4.1221,4.1163,4.0989,4.0641,4.0466,4.0292,4.0234,4.0147,4.0031,3.9915,3.9807,3.96,3.8771,3.7841,3.6695,3.5574,3.4223,3.3514,3.3276,3.2827,3.2611,3.2611,3.2827,3.3092,3.3236,3.3284,3.3308,3.314,3.3092,3.314,3.3119,3.3335,3.3433,3.303,3.2677,4.8001,4.8001,4.8001,4.8001,4.8001,4.8066,4.7933,4.7701,4.7395,4.7191,4.712,4.7015,4.734,4.7833,4.85,4.8596,4.8308,4.8781,4.8815,4.9052,4.9695,5.0642,5.1319,5.1928,5.2739,5.3484,5.3145,5.2977,5.2976,5.2774,5.2539,5.1866,5.2,5.1327,5.0591,5.0659,5.0894,5.0592,5.072,5.0817,5.0949,5.1313,5.1512,5.1545,5.1545,5.1479,5.1214,5.0817,5.0485,5.0021,4.9657,4.9293,4.8995,4.863,4.8233,4.81,4.8001,4.8001,4.8001,4.7803,4.7604,4.7342,4.7045,4.6471,4.5667,4.4978,4.4133,4.2591,4.1953,4.1381,4.0771,4.067,4.0931,4.1221,4.1366,4.1686,4.1947,4.186,4.1976,4.2121,4.215,4.2382,4.2063,4.1424,4.1018,4.0728,4.0612,4.0554,4.0525,4.0495,4.002,3.989,3.9173,3.807,3.6619,3.5596,3.4388,3.385,3.3611,3.3356,3.3188,3.3188,3.3356,3.3645,3.3791,3.3935,3.3911,3.3573,3.3188,3.3645,3.3887,3.3768,3.3577,3.3078,3.246,4.8098,4.8001,4.8034,4.8034,4.8001,4.8098,4.7764,4.7395,4.7354,4.7378,4.7345,4.7977,4.8241,4.8601,4.8697,4.8861,4.8917,4.8984,4.8849,4.8917,4.939,5.0371,5.115,5.1961,5.2706,5.3179,5.3044,5.3044,5.3078,5.2773,5.2132,5.1292,5.2067,5.153,5.1095,5.1129,5.1764,5.1724,5.1914,5.1877,5.1943,5.2075,5.2175,5.2175,5.2175,5.2009,5.1347,5.1247,5.1015,5.0518,5.0253,4.9922,4.9558,4.9193,4.8829,4.8498,4.8365,4.8398,4.8365,4.8133,4.7737,4.7439,4.7169,4.6965,4.6287,4.5714,4.4775,4.3793,4.2995,4.2435,4.207,4.1947,4.1744,4.1744,4.1773,4.186,4.2063,4.2179,4.2353,4.276,4.2992,4.3137,4.3195,4.2528,4.2005,4.1715,4.1395,4.1337,4.1372,4.1208,4.0463,3.9953,3.9289,3.8076,3.6225,3.5273,3.4715,3.4332,3.4028,3.3933,3.3813,3.3885,3.3933,3.403,3.4174,3.4414,3.4558,3.415,3.4102,3.4511,3.4606,3.4124,3.3445,3.284,3.2309,4.8429,4.8762,4.8729,4.8464,4.8065,4.773,4.7725,4.7885,4.7642,4.7295,4.7113,4.7787,4.8158,4.8354,4.8821,4.8956,4.9086,4.9526,4.9627,5.0236,5.0913,5.1386,5.186,5.2232,5.301,5.2942,5.2841,5.2773,5.2672,5.2942,5.257,5.2301,5.2707,5.1932,5.1597,5.1564,5.2027,5.2424,5.2483,5.2208,5.181,5.2142,5.2175,5.1744,5.2274,5.2241,5.2009,5.1976,5.1777,5.1479,5.1082,5.0684,5.032,4.9988,4.9624,4.9293,4.9226,4.9226,4.8995,4.8564,4.7935,4.7836,4.7638,4.737,4.6929,4.641,4.552,4.4675,4.3741,4.3031,4.2444,4.2146,4.2034,4.2063,4.2121,4.215,4.2324,4.2528,4.2818,4.3253,4.3515,4.3689,4.3718,4.3689,4.3166,4.2731,4.2382,4.2121,4.2067,4.1789,4.0887,3.9913,3.9183,3.8225,3.6427,3.5713,3.5114,3.4776,3.4463,3.4342,3.4246,3.4463,3.4511,3.4486,3.4462,3.4582,3.4654,3.4799,3.4726,3.4726,3.4457,3.404,3.3423,3.2555,3.2141,4.899,4.9359,4.926,4.8961,4.8494,4.8092,4.8018,4.8111,4.7861,4.7511,4.7192,4.7902,4.824,4.8409,4.8714,4.9018,4.9187,4.9695,5.0304,5.0811,5.1352,5.2029,5.2435,5.2739,5.2909,5.2773,5.3112,5.3213,5.3281,5.3619,5.3653,5.3754,5.3957,5.345,5.2303,5.21,5.2427,5.2557,5.2682,5.2307,5.1843,5.2075,5.2241,5.1777,5.2175,5.234,5.2307,5.2274,5.2274,5.2108,5.1843,5.1512,5.1181,5.085,5.0485,5.032,5.022,5.0253,4.9889,4.9193,4.8365,4.8365,4.8001,4.7737,4.7404,4.6828,4.5953,4.5227,4.4297,4.3427,4.2799,4.2526,4.2432,4.2548,4.2469,4.2557,4.2934,4.3195,4.3456,4.3747,4.4008,4.4327,4.4501,4.4501,4.395,4.3515,4.3253,4.2847,4.2444,4.1992,4.1227,4.011,3.8917,3.7834,3.6684,3.5808,3.5041,3.4824,3.4607,3.4583,3.4583,3.4751,3.4823,3.463,3.463,3.4799,3.4823,3.4823,3.4628,3.4531,3.4064,3.3469,3.2778,3.2006,3.1993,4.9751,4.9588,4.9655,4.9557,4.9392,4.949,4.8815,4.7962,4.7916,4.7909,4.797,4.8612,4.8883,4.8917,4.9052,4.9187,4.939,4.9932,5.0439,5.0777,5.1555,5.186,5.2266,5.2706,5.3247,5.345,5.3788,5.4126,5.4431,5.4532,5.4803,5.5446,5.5784,5.5513,5.3653,5.3746,5.3606,5.3068,5.3313,5.3009,5.2644,5.2644,5.2605,5.2274,5.2605,5.2804,5.2605,5.2605,5.2672,5.2738,5.2539,5.2175,5.181,5.1578,5.1181,5.0684,5.0485,5.0386,5.022,4.9491,4.9226,4.9061,4.873,4.8299,4.7601,4.7026,4.6737,4.6421,4.5166,4.4311,4.3626,4.3129,4.3084,4.3069,4.3018,4.3079,4.3427,4.3834,4.4066,4.4298,4.4676,4.5024,4.5256,4.5285,4.4705,4.4298,4.4066,4.3631,4.305,4.191,4.1022,3.9876,3.8559,3.7402,3.6307,3.5667,3.509,3.4896,3.4751,3.4703,3.4703,3.4775,3.4823,3.4823,3.4823,3.4823,3.4726,3.475,3.4359,3.3988,3.3224,3.2499,3.1905,3.168,3.1666,5.0924,5.1229,5.1128,5.1128,5.0994,5.0121,4.9274,4.8624,4.8585,4.8646,4.868,4.8951,4.9018,4.912,4.9526,4.9729,4.9932,5.1116,5.1555,5.1657,5.23,5.2773,5.3179,5.3585,5.3923,5.4296,5.4634,5.4972,5.531,5.5412,5.5818,5.6461,5.6968,5.6761,5.5673,5.519,5.4544,5.4372,5.4362,5.405,5.3451,5.3506,5.3334,5.2572,5.3268,5.3467,5.3102,5.3102,5.3235,5.35,5.3334,5.3069,5.3036,5.2937,5.2539,5.2175,5.2009,5.1645,5.1479,5.0982,5.032,5.0021,4.9558,4.9258,4.9154,4.9085,4.8637,4.787,4.6611,4.5882,4.5501,4.44,4.3969,4.3828,4.3831,4.3774,4.395,4.4356,4.4676,4.485,4.514,4.5401,4.5663,4.5663,4.5227,4.4879,4.4647,4.3921,4.3282,4.1618,4.0398,3.9338,3.8107,3.7057,3.6048,3.5404,3.5017,3.4799,3.4799,3.4799,3.4799,3.4823,3.4823,3.4823,3.4823,3.4823,3.4628,3.4359,3.3837,3.3238,3.2667,3.2218,3.1768,3.1542,3.1586,5.1763,5.2168,5.2371,5.2303,5.2034,5.109,5.0345,4.9864,4.9763,4.9763,4.9796,4.9796,4.983,4.9965,5.0202,5.0473,5.0642,5.1691,5.2604,5.2773,5.3518,5.3957,5.4363,5.4702,5.4871,5.5209,5.5683,5.6089,5.6122,5.6393,5.6731,5.7205,5.7611,5.7403,5.6785,5.6303,5.5693,5.542,5.5001,5.4855,5.4349,5.4177,5.403,5.3665,5.3864,5.4262,5.393,5.3897,5.3997,5.4262,5.4229,5.403,5.4229,5.4129,5.3798,5.3599,5.3467,5.3102,5.2975,5.2804,5.2274,5.1943,5.0949,5.0253,5.022,4.9986,4.9538,4.8868,4.8222,4.7387,4.6505,4.5341,4.4902,4.4846,4.4909,4.488,4.5256,4.5721,4.5547,4.5692,4.5488,4.575,4.5895,4.5866,4.5692,4.543,4.5198,4.4385,4.3631,4.216,4.0556,3.9321,3.816,3.7124,3.6118,3.5211,3.492,3.4823,3.4823,3.4823,3.4823,3.4823,3.4823,3.4823,3.4823,3.4628,3.4335,3.3965,3.3415,3.2914,3.2488,3.2037,3.1629,3.1629,3.1629,5.2334,5.2435,5.3179,5.3044,5.2369,5.2135,5.1796,5.1217,5.115,5.1116,5.115,5.1014,5.0947,5.1082,5.1217,5.1319,5.1488,5.2198,5.2942,5.3551,5.4194,5.4871,5.5412,5.5716,5.5852,5.6055,5.6427,5.6833,5.69,5.7205,5.7611,5.778,5.7814,5.778,5.7606,5.7499,5.678,5.6236,5.6151,5.587,5.5429,5.504,5.4933,5.4659,5.4759,5.4792,5.4626,5.4593,5.4659,5.4725,5.4626,5.4626,5.4626,5.4593,5.456,5.446,5.4361,5.4302,5.4203,5.403,5.4063,5.3434,5.1943,5.0883,5.0717,5.1148,5.0895,5.0188,4.9405,4.8215,4.7194,4.6554,4.5898,4.6108,4.6314,4.6632,4.7148,4.7143,4.6766,4.6475,4.6011,4.5953,4.5895,4.5895,4.5924,4.5692,4.5401,4.5024,4.424,4.3488,4.1775,3.9932,3.8709,3.7402,3.6377,3.5379,3.492,3.4823,3.4823,3.4823,3.4823,3.4871,3.4919,3.4944,3.475,3.4433,3.3819,3.3346,3.3069,3.2566,3.2148,3.2002,3.1695,3.1651,3.1695,5.3145,5.3179,5.3416,5.3348,5.3179,5.3112,5.2673,5.1995,5.1488,5.1217,5.1217,5.1217,5.1386,5.1251,5.1758,5.23,5.2706,5.3213,5.4059,5.4566,5.4735,5.548,5.6055,5.6494,5.6765,5.7103,5.7408,5.7476,5.7577,5.7881,5.7915,5.7848,5.8084,5.8017,5.8186,5.8349,5.7842,5.7533,5.7581,5.7156,5.6838,5.6687,5.6236,5.5719,5.5719,5.5653,5.5388,5.5322,5.5454,5.5885,5.5521,5.5454,5.6051,5.5587,5.5156,5.4575,5.4501,5.4494,5.4485,5.4485,5.4626,5.4692,5.3632,5.3533,5.3301,5.2997,5.2825,5.1834,5.0794,4.9724,4.8883,4.8207,4.7583,4.7524,4.7607,4.7775,4.8144,4.784,4.7433,4.694,4.6475,4.6301,4.6185,4.6011,4.604,4.5808,4.5518,4.5198,4.4646,4.3805,4.2559,4.0597,3.9033,3.7704,3.6658,3.5667,3.5187,3.4823,3.4823,3.4871,3.4968,3.5016,3.5064,3.4915,3.4766,3.3907,3.2924,3.2813,3.296,3.2383,3.2016,3.1826,3.1782,3.1848,3.1935,5.3518,5.3518,5.3518,5.3518,5.3518,5.3518,5.3213,5.2739,5.23,5.2131,5.2131,5.2164,5.2131,5.2232,5.2638,5.301,5.3382,5.345,5.4025,5.4702,5.5141,5.5852,5.6494,5.7103,5.7408,5.778,5.7881,5.778,5.7983,5.8254,5.8355,5.8423,5.8524,5.8727,5.893,5.9235,5.9201,5.8991,5.8875,5.8724,5.8428,5.8174,5.731,5.6823,5.6812,5.6382,5.615,5.6084,5.6316,5.6647,5.615,5.6216,5.6614,5.6216,5.5951,5.5463,5.5497,5.5554,5.5511,5.5521,5.5421,5.5355,5.5322,5.5322,5.4957,5.4593,5.403,5.3313,5.2397,5.1517,5.0824,5.014,4.9524,4.9034,4.8845,4.8747,4.8588,4.837,4.7869,4.7317,4.7027,4.6824,4.6621,4.6388,4.6185,4.6098,4.5576,4.4879,4.4385,4.3603,4.2304,4.0686,3.9267,3.7952,3.7031,3.6048,3.5475,3.5017,3.4823,3.4895,3.5064,3.5182,3.5226,3.4999,3.4769,3.3843,3.3083,3.3048,3.3101,3.2619,3.2306,3.2372,3.2416,3.2437,3.2525,5.3518,5.3518,5.3518,5.3518,5.3518,5.3518,5.3484,5.3518,5.3382,5.3484,5.3416,5.345,5.3348,5.3179,5.3315,5.345,5.3721,5.3822,5.4329,5.4803,5.5581,5.6292,5.6968,5.7509,5.7712,5.7848,5.7915,5.7983,5.822,5.8524,5.8863,5.9133,5.9607,5.9776,5.9742,6.008,6.0114,6.0148,6.0063,5.9944,5.9309,5.8708,5.8075,5.7785,5.7309,5.6812,5.6879,5.6846,5.6812,5.6846,5.6713,5.668,5.6647,5.6812,5.6713,5.6514,5.6349,5.6349,5.6349,5.6316,5.6415,5.6481,5.668,5.6415,5.5984,5.5587,5.5061,5.4546,5.3681,5.2784,5.2028,5.1138,5.0487,5.0027,4.9681,4.9516,4.9413,4.9018,4.8304,4.7811,4.7521,4.7346,4.7201,4.6969,4.6534,4.6417,4.5721,4.4792,4.424,4.3574,4.2365,4.0974,3.959,3.8368,3.7335,3.6521,3.5858,3.5379,3.5187,3.4919,3.5064,3.5325,3.5509,3.4973,3.4429,3.4198,3.372,3.3465,3.3188,3.3043,3.2874,3.3005,3.3049,3.3027,3.3071,5.3518,5.3518,5.3518,5.3518,5.3518,5.3518,5.3518,5.3518,5.3518,5.3518,5.3518,5.3518,5.3518,5.3518,5.3518,5.3687,5.4194,5.4262,5.5141,5.575,5.6359,5.6697,5.7442,5.7679,5.7881,5.7881,5.7949,5.8152,5.8524,5.8896,5.9336,5.9776,6.0216,6.0351,6.0385,6.0723,6.1028,6.1028,6.1255,6.0873,5.9967,5.9577,5.9042,5.864,5.8163,5.7839,5.7839,5.7773,5.8005,5.8171,5.7144,5.6812,5.668,5.721,5.7177,5.6812,5.6846,5.6912,5.6912,5.6945,5.6912,5.6779,5.6746,5.6713,5.6547,5.6282,5.5963,5.5509,5.489,5.393,5.309,5.2167,5.1364,5.0873,5.0431,5.0294,5.0154,4.9426,4.8711,4.842,4.8072,4.7927,4.7782,4.7433,4.6969,4.6301,4.5549,4.4851,4.4588,4.3979,4.2794,4.1463,3.9939,3.8655,3.7768,3.7322,3.693,3.6304,3.5966,3.5624,3.5184,3.5236,3.5292,3.4647,3.4088,3.4017,3.387,3.3413,3.3178,3.3289,3.3399,3.353,3.3573,3.3573,3.3726,5.3518,5.3518,5.3518,5.3518,5.3518,5.3518,5.3518,5.3518,5.3518,5.3518,5.3518,5.3518,5.3518,5.3518,5.3518,5.3923,5.4499,5.4566,5.5175,5.5987,5.6765,5.6934,5.7374,5.778,5.7848,5.7881,5.7881,5.8152,5.8761,5.9336,5.981,6.025,6.0554,6.1061,6.1129,6.1569,6.1738,6.1806,6.2212,6.1728,6.0728,6.0438,6.0035,5.9564,5.9106,5.8781,5.8568,5.8469,5.8601,5.8701,5.8071,5.7839,5.7839,5.8104,5.8071,5.7873,5.774,5.7674,5.7641,5.7541,5.7442,5.7276,5.7177,5.7276,5.6713,5.6448,5.6448,5.6072,5.5408,5.453,5.3638,5.2803,5.185,5.1143,5.0798,5.0478,5.025,4.9756,4.933,4.9146,4.8943,4.8885,4.8682,4.8333,4.7898,4.755,4.6567,4.5781,4.5341,4.469,4.347,4.2396,4.116,3.9903,3.907,3.8687,3.846,3.7779,3.6997,3.6102,3.5608,3.5294,3.4941,3.4606,3.4311,3.4119,3.3879,3.3573,3.3661,3.3923,3.401,3.4054,3.4076,3.4054,3.4054,5.3518,5.3518,5.3518,5.3518,5.3518,5.3518,5.3518,5.3518,5.3518,5.3518,5.3518,5.3518,5.3518,5.3518,5.3687,5.4093,5.4566,5.5108,5.5547,5.6055,5.6731,5.7137,5.7408,5.7611,5.7915,5.8017,5.7983,5.8389,5.893,5.9573,6.0148,6.0588,6.1434,6.2381,6.2415,6.2381,6.2279,6.2245,6.2381,6.2381,6.1964,6.1582,6.093,6.0278,5.9785,5.9372,5.9212,5.9098,5.9098,5.9231,5.9231,5.8899,5.88,5.8833,5.88,5.8668,5.8535,5.8601,5.8668,5.8601,5.8336,5.8104,5.7972,5.7674,5.7144,5.7011,5.7011,5.6744,5.6123,5.5196,5.4274,5.3684,5.2733,5.1416,5.1041,5.0662,5.0375,5.0057,4.9931,4.9737,4.9611,4.9553,4.9349,4.903,4.8682,4.8391,4.8021,4.7381,4.6674,4.5759,4.4678,4.4143,4.3381,4.2127,4.076,4.0324,4.0219,3.899,3.8166,3.6908,3.5968,3.5688,3.5328,3.5022,3.4825,3.4515,3.436,3.4207,3.4382,3.4425,3.436,3.4294,3.4338,3.4338,3.4403,5.3518,5.3518,5.3518,5.3518,5.3518,5.3518,5.3518,5.3518,5.3518,5.3518,5.3518,5.3518,5.3518,5.3551,5.416,5.46,5.4871,5.5615,5.6258,5.6731,5.7239,5.7543,5.7679,5.7746,5.8254,5.8355,5.8457,5.8998,5.9505,5.9979,6.0757,6.1738,6.1941,6.2415,6.2415,6.2415,6.2415,6.2415,6.2415,6.2415,6.2133,6.1784,6.1413,6.0939,6.0565,6.0536,6.0439,6.0059,6.0258,6.049,6.0523,5.9926,5.9628,5.9529,5.9529,5.9363,5.9231,5.9231,5.9264,5.9264,5.8999,5.88,5.8668,5.8601,5.827,5.8237,5.8204,5.8138,5.7346,5.6107,5.5357,5.5209,5.4445,5.2334,5.122,5.0905,5.0589,5.0338,4.996,4.9863,4.964,4.964,4.9582,4.9233,4.8885,4.8595,4.8333,4.7782,4.7565,4.6707,4.5832,4.5453,4.5145,4.4135,4.2679,4.2323,4.2012,4.064,3.9212,3.7702,3.6593,3.6026,3.5692,3.5378,3.5131,3.5019,3.484,3.4775,3.46,3.46,3.4534,3.4491,3.4534,3.4578,3.4622]},{"header":{"parameterUnit":"m.s-1","parameterCategory":1,"la1":31.0,"la2":29.5877,"lo1":-88.7671,"lo2":-86.6584,"dx":0.0162,"dy":0.0185,"nx":115,"ny":88,"refTime":"2023-02-03T06:00:00:Z","depth":0,"parameterNumber":3,"parameterNumberName":"V-component_of_WINDS"},"data":[0.0,0.0,0.0,0.0,0.0,0.0,0.0,0.0,0.0,0.0,0.0,0.0,0.0,0.0,0.0,0.0,0.0,0.0,0.0,0.0,0.0,0.0,0.0,0.0,0.0,0.0,0.0,0.0,0.0,0.0,0.0,0.0,0.0,0.0,0.0,0.0,0.0,0.0,0.0,0.0,0.0,0.0,0.0,0.0,0.0,0.0,0.0,0.0,0.0,0.0,0.0,0.0,0.0,0.0,0.0,0.0,0.0,0.0,0.0,0.0,0.0,0.0,0.0,0.0,0.0,0.0,0.0,0.0,0.0,0.0,0.0,0.0,0.0,0.0,0.0,0.0,0.0,0.0,0.0,0.0,0.0,0.0,0.0,0.0,0.0,0.0,0.0,0.0,0.0,0.0,0.0,0.0,0.0,0.0,0.0,0.0,0.0,0.0,0.0,0.0,0.0,0.0,0.0,0.0,0.0,0.0,0.0,0.0,0.0,0.0,0.0,0.0,0.0,0.0,0.0,0.0,0.0,0.0,0.0,0.0,0.0,0.0,0.0,0.0,0.0,0.0,0.0,0.0,0.0,0.0,0.0,0.0,0.0,0.0,0.0,0.0,0.0,0.0,0.0,0.0,0.0,0.0,0.0,0.0,0.0,0.0,0.0,0.0,0.0,0.0,0.0,0.0,0.0,0.0,0.0,0.0,0.0,0.0,0.0,0.0,0.0,0.0,0.0,0.0,0.0,0.0,0.0,0.0,0.0,0.0,0.0,0.0,0.0,0.0,0.0,0.0,0.0,0.0,0.0,0.0,0.0,0.0,0.0,0.0,0.0,0.0,0.0,0.0,0.0,0.0,0.0,0.0,0.0,0.0,0.0,0.0,0.0,0.0,0.0,0.0,0.0,0.0,0.0,0.0,0.0,0.0,0.0,0.0,0.0,0.0,0.0,0.0,0.0,0.0,0.0,0.0,0.0,0.0,0.0,0.0,0.0,0.0,0.0,0.0,0.0,0.0,0.0,0.0,0.0,0.0,0.0,0.0,0.0,0.0,0.0,0.0,0.0,0.0,0.0,0.0,0.0,0.0,0.0,0.0,0.0,0.0,0.0,0.0,0.0,0.0,0.0,0.0,0.0,0.0,0.0,0.0,0.0,0.0,0.0,0.0,0.0,0.0,0.0,0.0,0.0,0.0,0.0,0.0,0.0,0.0,0.0,0.0,0.0,0.0,0.0,0.0,0.0,0.0,0.0,0.0,0.0,0.0,0.0,0.0,0.0,0.0,0.0,0.0,0.0,0.0,0.0,0.0,0.0,0.0,0.0,0.0,0.0,0.0,0.0,0.0,0.0,0.0,0.0,0.0,0.0,0.0,0.0,0.0,0.0,0.0,0.0,0.0,0.0,0.0,0.0,0.0,0.0,0.0,0.0,0.0,0.0,0.0,0.0,0.0,0.0,0.0,0.0,0.0,0.0,0.0,0.0,0.0,0.0,0.0,0.0,0.0,0.0,0.0,0.0,0.0,0.0,0.0,0.0,0.0,0.0,0.0,0.0,0.0,0.0,0.0,0.0,0.0,0.0,0.0,0.0,0.0,0.0,0.0,0.0,0.0,0.0,0.0,0.0,0.0,0.0,0.0,0.0,0.0,0.0,0.0,0.0,0.0,0.0,0.0,0.0,0.0,0.0,0.0,0.0,0.0,0.0,0.0,0.0,0.0,0.0,0.0,0.0,0.0,0.0,0.0,0.0,0.0,0.0,0.0,0.0,0.0,0.0,0.0,0.0,0.0,0.0,0.0,0.0,0.0,0.0,0.0,0.0,0.0,0.0,0.0,0.0,0.0,0.0,0.0,0.0,0.0,0.0,0.0,0.0,0.0,0.0,0.0,0.0,0.0,0.0,0.0,0.0,0.0,0.0,0.0,0.0,0.0,0.0,0.0,0.0,0.0,0.0,0.0,0.0,0.0,0.0,0.0,0.0,0.0,0.0,0.0,0.0,0.0,0.0,0.0,0.0,0.0,0.0,0.0,0.0,0.0,0.0,0.0,0.0,0.0,0.0,0.0,0.0,0.0,0.0,0.0,0.0,0.0,0.0,0.0,0.0,0.0,0.0,0.0,0.0,0.0,0.0,0.0,0.0,0.0,0.0,0.0,0.0,0.0,0.0,0.0,0.0,0.0,0.0,0.0,0.0,0.0,0.0,0.0,0.0,0.0,0.0,0.0,0.0,0.0,0.0,0.0,0.0,0.0,0.0,0.0,0.0,0.0,0.0,0.0,0.0,0.0,0.0,0.0,0.0,0.0,0.0,0.0,0.0,0.0,0.0,0.0,0.0,0.0,0.0,0.0,0.0,0.0,0.0,0.0,0.0,0.0,0.0,0.0,0.0,0.0,0.0,0.0,0.0,0.0,0.0,0.0,0.0,0.0,0.0,0.0,0.0,0.0,0.0,0.0,0.0,0.0,0.0,0.0,0.0,0.0,0.0,0.0,0.0,0.0,0.0,0.0,0.0,0.0,0.0,0.0,0.0,0.0,0.0,0.0,0.0,0.0,0.0,0.0,0.0,0.0,0.0,0.0,0.0,0.0,0.0,0.0,0.0,0.0,0.0,0.0,0.0,0.0,0.0,0.0,0.0,0.0,0.0,0.0,0.0,0.0,0.0,0.0,0.0,0.0,0.0,0.0,0.0,0.0,0.0,0.0,0.0,0.0,0.0,0.0,0.0,0.0,0.0,0.0,0.0,0.0,0.0,0.0,0.0,0.0,0.0,0.0,0.0,0.0,0.0,0.0,0.0,0.0,0.0,0.0,0.0,0.0,0.0,0.0,0.0,0.0,0.0,0.0,0.0,0.0,0.0,0.0,0.0,0.0,0.0,0.0,0.0,0.0,0.0,0.0,0.0,0.0,0.0,0.0,0.0,0.0,0.0,0.0,0.0,0.0,0.0,0.0,0.0,0.0,0.0,0.0,0.0,0.0,0.0,0.0,0.0,0.0,0.0,0.0,0.0,0.0,0.0,0.0,0.0,0.0,0.0,0.0,0.0,0.0,0.0,0.0,0.0,0.0,0.0,0.0,0.0,0.0,0.0,0.0,0.0,0.0,0.0,0.0,0.0,0.0,0.0,0.0,0.0,0.0,0.0,0.0,0.0,0.0,0.0,0.0,0.0,0.0,0.0,0.0,0.0,0.0,0.0,0.0,0.0,0.0,0.0,0.0,0.0,0.0,0.0,0.0,0.0,0.0,0.0,0.0,0.0,0.0,0.0,0.0,0.0,0.0,0.0,0.0,0.0,0.0,0.0,0.0,0.0,0.0,0.0,0.0,0.0,0.0,0.0,0.0,0.0,0.0,0.0,0.0,0.0,0.0,0.0,0.0,0.0,0.0,0.0,0.0,0.0,0.0,0.0,0.0,0.0,0.0,0.0,0.0,0.0,0.0,0.0,0.0,0.0,0.0,0.0,0.0,0.0,0.0,0.0,0.0,0.0,0.0,0.0,0.0,0.0,0.0,0.0,0.0,0.0,0.0,0.0,0.0,0.0,0.0,0.0,0.0,0.0,0.0,0.0,0.0,0.0,0.0,0.0,0.0,0.0,0.0,0.0,0.0,0.0,0.0,0.0,0.0,0.0,0.0,0.0,0.0,0.0,0.0,0.0,0.0,0.0,0.0,0.0,0.0,0.0,0.0,0.0,0.0,0.0,0.0,0.0,0.0,0.0,0.0,0.0,0.0,0.0,0.0,0.0,0.0,0.0,0.0,0.0,0.0,0.0,0.0,0.0,0.0,0.0,0.0,0.0,0.0,0.0,0.0,0.0,0.0,0.0,0.0,0.0,0.0,0.0,0.0,0.0,0.0,0.0,0.0,0.0,0.0,0.0,0.0,0.0,0.0,0.0,0.0,0.0,0.0,0.0,0.0,0.0,0.0,0.0,0.0,0.0,0.0,0.0,0.0,0.0,0.0,0.0,0.0,0.0,0.0,0.0,0.0,0.0,0.0,0.0,0.0,0.0,0.0,0.0,0.0,0.0,0.0,0.0,0.0,0.0,0.0,0.0,0.0,0.0,0.0,0.0,0.0,0.0,0.0,0.0,0.0,0.0,0.0,0.0,0.0,0.0,0.0,0.0,0.0,0.0,0.0,0.0,0.0,0.0,0.0,0.0,0.0,0.0,0.0,0.0,0.0,0.0,0.0,0.0,0.0,0.0,0.0,0.0,0.0,0.0,0.0,0.0,0.0,0.0,0.0,0.0,0.0,0.0,0.0,0.0,0.0,0.0,0.0,0.0,0.0,0.0,0.0,-0.5297,0.0,0.0,0.0,0.0,0.0,0.0,0.0,0.0,0.0,0.0,0.0,0.0,0.0,0.0,0.0,0.0,0.0,0.0,0.0,0.0,0.0,0.0,0.0,0.0,0.0,0.0,0.0,0.0,0.0,0.0,0.0,0.0,0.0,0.0,0.0,0.0,0.0,0.0,0.0,0.0,0.0,0.0,0.0,0.0,0.0,0.0,0.0,0.0,0.0,0.0,0.0,0.0,0.0,0.0,0.0,0.0,0.0,0.0,0.0,0.0,0.0,0.0,0.0,0.0,0.0,0.0,0.0,0.0,0.0,0.0,0.0,0.0,0.0,0.0,0.0,0.0,0.0,0.0,0.0,0.0,0.0,0.0,0.0,0.0,0.0,0.0,0.0,0.0,0.0,0.0,0.0,0.0,0.0,0.0,0.0,0.0,0.0,0.0,0.0,0.0,0.0,0.0,0.0,0.0,0.0,0.0,0.0,0.0,0.0,0.0,-0.5891,-0.5352,-0.5297,-0.5297,-0.5297,0.0,0.0,0.0,0.0,0.0,0.0,0.0,0.0,0.0,0.0,0.0,0.0,0.0,0.0,0.0,0.0,0.0,0.0,0.0,0.0,0.0,0.0,0.0,0.0,0.0,0.0,0.0,0.0,0.0,0.0,0.0,0.0,0.0,0.0,0.0,0.0,0.0,0.0,0.0,0.0,0.0,0.0,0.0,0.0,0.0,0.0,0.0,0.0,0.0,0.0,0.0,0.0,0.0,0.0,0.0,0.0,0.0,0.0,0.0,0.0,0.0,0.0,0.0,0.0,0.0,0.0,0.0,0.0,0.0,0.0,0.0,0.0,0.0,0.0,0.0,0.0,0.0,0.0,0.0,0.0,0.0,0.0,0.0,0.0,0.0,0.0,0.0,0.0,0.0,0.0,0.0,0.0,0.0,0.0,0.0,0.0,0.0,0.0,0.0,0.0,0.0,0.0,0.0,0.0,0.0,0.0,0.0,0.0,0.0,0.0,0.0,0.0,-0.5394,-0.5418,-0.5418,0.0,0.0,0.0,0.0,0.0,0.0,0.0,0.0,0.0,0.0,0.0,0.0,0.0,0.0,0.0,0.0,0.0,0.0,0.0,0.0,0.0,0.0,0.0,0.0,0.0,0.0,0.0,0.0,0.0,0.0,0.0,0.0,0.0,0.0,0.0,0.0,0.0,0.0,0.0,0.0,0.0,0.0,0.0,0.0,0.0,0.0,0.0,0.0,0.0,0.0,0.0,0.0,0.0,0.0,0.0,0.0,0.0,0.0,0.0,0.0,0.0,0.0,0.0,0.0,0.0,0.0,0.0,0.0,0.0,0.0,0.0,0.0,0.0,0.0,0.0,0.0,0.0,0.0,0.0,0.0,0.0,0.0,0.0,0.0,0.0,0.0,0.0,0.0,0.0,0.0,0.0,0.0,0.0,0.0,0.0,0.0,0.0,0.0,0.0,0.0,0.0,0.0,0.0,0.0,0.0,0.0,0.0,0.0,0.0,0.0,-0.5425,-0.5588,-0.575,0.0,-0.5823,0.0,0.0,0.0,0.0,0.0,0.0,0.0,0.0,0.0,0.0,0.0,0.0,0.0,0.0,0.0,0.0,0.0,0.0,0.0,0.0,0.0,0.0,0.0,0.0,0.0,0.0,0.0,0.0,0.0,0.0,0.0,0.0,0.0,0.0,0.0,0.0,0.0,0.0,0.0,0.0,0.0,0.0,0.0,0.0,0.0,0.0,0.0,0.0,0.0,0.0,0.0,0.0,0.0,0.0,0.0,0.0,0.0,0.0,0.0,0.0,0.0,0.0,0.0,0.0,0.0,0.0,0.0,0.0,0.0,0.0,0.0,0.0,0.0,0.0,0.0,0.0,0.0,0.0,0.0,0.0,0.0,0.0,0.0,0.0,0.0,0.0,0.0,0.0,0.0,0.0,0.0,0.0,0.0,0.0,0.0,0.0,0.0,0.0,0.0,0.0,0.0,0.0,0.0,0.0,0.0,0.0,0.0,0.0,0.0,0.0,-0.5338,-0.5478,-0.5643,-0.5677,0.0,0.0,0.0,0.0,0.0,0.0,0.0,0.0,0.0,0.0,0.0,0.0,0.0,0.0,0.0,0.0,0.0,0.0,0.0,0.0,0.0,0.0,0.0,0.0,0.0,0.0,0.0,0.0,0.0,0.0,0.0,0.0,0.0,0.0,0.0,0.0,0.0,0.0,0.0,0.0,0.0,0.0,0.0,0.0,0.0,0.0,0.0,0.0,0.0,0.0,0.0,0.0,0.0,0.0,0.0,0.0,0.0,0.0,0.0,0.0,0.0,0.0,0.0,0.0,0.0,0.0,0.0,0.0,0.0,0.0,0.0,0.0,0.0,0.0,0.0,0.0,0.0,0.0,0.0,0.0,0.0,0.0,0.0,0.0,0.0,0.0,0.0,0.0,0.0,0.0,0.0,0.0,0.0,0.0,0.0,0.0,0.0,0.0,0.0,0.0,0.0,0.0,0.0,0.0,0.0,0.0,0.0,0.0,0.0,0.0,-0.5338,-0.549,-0.5604,-0.5578,-0.5466,-0.5442,0.0,0.0,0.0,0.0,0.0,0.0,0.0,0.0,0.0,0.0,0.0,0.0,0.0,0.0,0.0,0.0,0.0,0.0,0.0,0.0,0.0,0.0,0.0,0.0,0.0,0.0,0.0,0.0,0.0,0.0,0.0,0.0,0.0,0.0,0.0,0.0,0.0,0.0,0.0,0.0,0.0,0.0,0.0,0.0,0.0,0.0,0.0,0.0,0.0,0.0,0.0,0.0,0.0,0.0,0.0,0.0,0.0,0.0,0.0,0.0,0.0,0.0,0.0,0.0,0.0,0.0,0.0,0.0,0.0,0.0,0.0,0.0,0.0,0.0,0.0,0.0,0.0,0.0,0.0,0.0,0.0,0.0,0.0,0.0,0.0,0.0,0.0,0.0,0.0,0.0,0.0,0.0,0.0,0.0,0.0,0.0,0.0,0.0,0.0,0.0,0.0,0.0,0.0,0.0,0.0,0.0,0.0,0.0,-0.5831,-0.5685,-0.5766,-0.6083,-0.5628,-0.5466,0.0,0.0,0.0,0.0,0.0,0.0,0.0,0.0,0.0,0.0,0.0,0.0,0.0,0.0,0.0,0.0,0.0,0.0,0.0,0.0,0.0,0.0,0.0,0.0,0.0,0.0,0.0,0.0,0.0,0.0,0.0,0.0,0.0,0.0,0.0,0.0,0.0,0.0,0.0,0.0,0.0,0.0,0.0,0.0,0.0,0.0,0.0,0.0,0.0,0.0,0.0,0.0,0.0,0.0,0.0,0.0,0.0,0.0,0.0,0.0,0.0,0.0,0.0,0.0,0.0,0.0,0.0,0.0,0.0,0.0,0.0,0.0,0.0,0.0,0.0,0.0,0.0,0.0,0.0,0.0,0.0,0.0,0.0,0.0,0.0,0.0,0.0,0.0,0.0,0.0,0.0,0.0,0.0,0.0,0.0,0.0,0.0,0.0,0.0,0.0,0.0,0.0,0.0,0.0,0.0,0.0,0.0,0.0,0.0,-0.536,-0.51,-0.4938,-0.4949,-0.4912,-0.4941,0.0,0.0,0.0,0.0,0.0,0.0,0.0,0.0,0.0,0.0,0.0,0.0,0.0,0.0,0.0,0.0,0.0,0.0,0.0,0.0,0.0,0.0,0.0,0.0,0.0,0.0,0.0,0.0,0.0,0.0,0.0,0.0,0.0,0.0,0.0,0.0,0.0,0.0,0.0,0.0,0.0,0.0,0.0,0.0,0.0,0.0,0.0,0.0,0.0,0.0,0.0,0.0,0.0,0.0,0.0,0.0,0.0,0.0,0.0,0.0,0.0,0.0,0.0,0.0,0.0,0.0,0.0,0.0,0.0,0.0,0.0,0.0,0.0,0.0,0.0,0.0,0.0,0.0,0.0,0.0,0.0,0.0,0.0,0.0,0.0,0.0,0.0,0.0,0.0,0.0,0.0,0.0,0.0,0.0,0.0,0.0,0.0,0.0,0.0,0.0,0.0,0.0,0.0,0.0,0.0,0.0,0.0,0.0,0.0,-0.489,0.0,-0.4111,-0.4107,-0.441,-0.448,0.0,0.0,0.0,0.0,0.0,0.0,0.0,0.0,0.0,0.0,0.0,0.0,0.0,0.0,0.0,0.0,0.0,0.0,0.0,0.0,0.0,0.0,0.0,0.0,0.0,0.0,0.0,0.0,0.0,0.0,0.0,0.0,0.0,0.0,0.0,0.0,0.0,0.0,0.0,0.0,0.0,0.0,0.0,0.0,0.0,0.0,0.0,0.0,0.0,0.0,0.0,0.0,0.0,0.0,0.0,0.0,0.0,0.0,0.0,0.0,0.0,0.0,0.0,0.0,0.0,0.0,0.0,0.0,0.0,0.0,0.0,0.0,0.0,0.0,0.0,0.0,0.0,0.0,0.0,0.0,0.0,0.0,0.0,0.0,0.0,0.0,0.0,0.0,0.0,0.0,0.0,0.0,0.0,0.0,0.0,0.0,0.0,0.0,0.0,0.0,0.0,0.0,0.0,0.0,0.0,0.0,0.0,0.0,-0.4826,-0.4442,-0.3836,-0.3528,-0.3686,-0.4047,-0.4327,0.0,0.0,0.0,0.0,0.0,0.0,0.0,0.0,0.0,0.0,0.0,0.0,0.0,0.0,0.0,0.0,0.0,0.0,0.0,0.0,0.0,0.0,0.0,0.0,0.0,0.0,0.0,0.0,0.0,0.0,0.0,0.0,0.0,0.0,0.0,0.0,0.0,0.0,0.0,0.0,0.0,0.0,0.0,0.0,0.0,0.0,0.0,0.0,0.0,0.0,0.0,0.0,0.0,0.0,0.0,0.0,0.0,0.0,0.0,0.0,0.0,0.0,0.0,0.0,0.0,0.0,0.0,0.0,0.0,0.0,0.0,0.0,0.0,0.0,0.0,0.0,0.0,0.0,0.0,0.0,0.0,0.0,0.0,0.0,0.0,0.0,0.0,0.0,0.0,0.0,0.0,0.0,0.0,0.0,0.0,0.0,0.0,0.0,0.0,0.0,0.0,0.0,0.0,0.0,0.0,0.0,0.0,0.0,0.0,-0.3504,-0.2964,-0.2669,-0.2635,-0.2799,-0.3119,0.0,0.0,0.0,0.0,0.0,0.0,0.0,0.0,0.0,0.0,0.0,0.0,0.0,0.0,0.0,0.0,0.0,0.0,0.0,0.0,0.0,0.0,0.0,0.0,0.0,0.0,0.0,0.0,0.0,0.0,0.0,0.0,0.0,0.0,0.0,0.0,0.0,0.0,0.0,0.0,0.0,0.0,0.0,0.0,0.0,0.0,0.0,0.0,0.0,0.0,0.0,0.0,0.0,0.0,0.0,0.0,0.0,0.0,0.0,0.0,0.0,0.0,0.0,0.0,0.0,0.0,0.0,0.0,0.0,0.0,0.0,0.0,0.0,0.0,0.0,0.0,0.0,0.0,0.0,0.0,0.0,0.0,0.0,0.0,0.0,0.0,0.0,0.0,0.0,0.0,0.0,0.0,0.0,0.0,0.0,0.0,0.0,0.0,0.0,0.0,0.0,0.0,0.0,0.0,0.0,0.0,0.0,0.0,0.0,-0.1971,-0.1712,-0.1576,-0.1779,-0.2122,-0.2377,-0.2732,0.0,0.0,0.0,0.0,0.0,0.0,0.0,0.0,0.0,0.0,0.0,0.0,0.0,0.0,0.0,0.0,0.0,0.0,0.0,0.0,0.0,0.0,0.0,0.0,0.0,0.0,0.0,0.0,0.0,0.0,0.0,0.0,0.0,0.0,0.0,0.0,0.0,0.0,0.0,0.0,0.0,0.0,0.0,0.0,0.0,0.0,0.0,0.0,0.0,0.0,0.0,0.0,0.0,0.0,0.0,0.0,0.0,0.0,0.0,0.0,0.0,0.0,0.0,0.0,0.0,0.0,0.0,0.0,0.0,0.0,0.0,0.0,0.0,0.0,0.0,0.0,0.0,0.0,0.0,0.0,0.0,0.0,0.0,0.0,0.0,0.0,0.0,0.0,0.0,0.0,0.0,0.0,0.0,0.0,0.0,0.0,0.0,0.0,0.0,0.0,0.0,0.0,0.0,0.0,0.0,0.0,0.0,0.0,-0.0124,-0.0203,-0.0556,-0.128,-0.1812,-0.2168,0.0,0.0,0.0,0.0,0.0,0.0,0.0,0.0,0.0,0.0,0.0,0.0,0.0,0.0,0.0,0.0,0.0,0.0,0.0,0.0,0.0,0.0,0.0,0.0,0.0,0.0,0.0,0.0,0.0,0.0,0.0,0.0,0.0,0.0,0.0,0.0,0.0,0.0,0.0,0.0,0.0,0.0,0.0,0.0,0.0,0.0,0.0,0.0,0.0,0.0,0.0,0.0,0.0,0.0,0.0,0.0,0.0,0.0,0.0,0.0,0.0,0.0,0.0,0.0,0.0,0.0,0.0,0.0,0.0,0.0,0.0,0.0,0.0,0.0,0.0,0.0,0.0,0.0,0.0,0.0,0.0,0.0,0.0,0.0,0.0,0.0,0.0,0.0,0.0,0.0,0.0,0.0,0.0,0.0,0.0,0.0,0.0,0.0,0.0,0.0,0.0,0.0,0.0,0.0,0.0,0.0,0.0,0.0,0.0,-0.0203,-0.0293,-0.0592,-0.1112,-0.1292,-0.1574,0.0,0.0,0.0,0.0,0.0,0.0,0.0,0.0,0.0,0.0,0.0,0.0,0.0,0.0,0.0,0.0,0.0,0.0,0.0,0.0,0.0,0.0,0.0,0.0,0.0,0.0,0.0,0.0,0.0,0.0,0.0,0.0,0.0,0.0,0.0,0.0,0.0,0.0,0.0,0.0,0.0,0.0,0.0,0.0,0.0,0.0,0.0,0.0,0.0,0.0,0.0,0.0,0.0,0.0,0.0,0.0,0.0,0.0,0.0,0.0,0.0,0.0,0.0,0.0,0.0,0.0,0.0,0.0,0.0,0.0,0.0,0.0,0.0,0.0,0.0,0.0,0.0,0.0,0.0,0.0,0.0,0.0,0.0,0.0,0.0,0.0,0.0,0.0,0.0,0.0,0.0,0.0,0.0,0.0,0.0,0.0,0.0,0.0,0.0,0.0,0.0,0.0,0.0,0.0,0.0,0.0,0.0,0.0,0.0517,0.0688,0.0076,-0.0388,-0.0589,-0.0646,-0.0958,0.0,0.0,0.0,0.0,0.0,0.0,0.0,0.0,0.0,0.0,0.0,0.0,0.0,0.0,0.0,0.0,0.0,0.0,0.0,0.0,0.0,0.0,0.0,0.0,0.0,0.0,0.0,0.0,0.0,0.0,0.0,0.0,0.0,0.0,0.0,0.0,0.0,0.0,0.0,0.0,0.0,0.0,0.0,0.0,0.0,0.0,0.0,0.0,0.0,0.0,0.0,0.0,0.0,0.0,0.0,0.0,0.0,0.0,0.0,0.0,0.0,0.0,0.0,0.0,0.0,0.0,0.0,0.0,0.0,0.0,0.0,0.0,0.0,0.0,0.0,0.0,0.0,0.0,0.0,0.0,0.0,0.0,0.0,0.0,0.0,0.0,0.0,0.0,0.0,0.0,0.0,0.0,0.0,0.0,0.0,0.0,0.0,0.0,0.0,0.0,0.0,0.0,0.0,0.0,0.0,0.0,0.0,0.0,0.1379,0.1963,0.0764,0.016,0.0157,-0.0,-0.0426,0.0,0.0,0.0,0.0,0.0,0.0,0.0,0.0,0.0,0.0,0.0,0.0,0.0,0.0,0.0,0.0,0.0,0.0,0.0,0.0,0.0,0.0,0.0,0.0,0.0,0.0,0.0,0.0,0.0,0.0,0.0,0.0,0.0,0.0,0.0,0.0,0.0,0.0,0.0,0.0,0.0,0.0,0.0,0.0,0.0,0.0,0.0,0.0,0.0,0.0,0.0,0.0,0.0,0.0,0.0,0.0,0.0,0.0,0.0,0.0,0.0,0.0,0.0,0.0,0.0,0.0,0.0,0.0,0.0,0.0,0.0,0.0,0.0,0.0,0.0,0.0,0.0,0.0,0.0,0.0,0.0,0.0,0.0,0.0,0.0,0.0,0.0,0.0,0.0,0.0,0.0,0.0,0.0,0.0,0.0,0.0,0.0,0.0,0.0,0.0,0.0,0.0,0.0,0.0,0.0,0.0,0.0,0.0,0.1433,0.2146,0.1402,0.0963,0.1019,0.0221,-0.0487,0.0,0.0,0.0,0.0,0.0,0.0,0.0,0.0,0.0,0.0,0.0,0.0,0.0,0.0,0.0,0.0,0.0,0.0,0.0,0.0,0.0,0.0,0.0,0.0,0.0,0.0,0.0,0.0,0.0,0.0,0.0,0.0,0.0,0.0,0.0,0.0,0.0,0.0,0.0,0.0,0.0,0.0,0.0,0.0,0.0,0.0,0.0,0.0,0.9446,0.0,0.0,0.0,0.0,0.0,0.0,0.0,0.0,0.0,0.0,0.0,0.0,0.0,0.0,0.0,0.0,0.0,0.0,0.0,0.0,0.0,0.0,0.0,0.0,0.0,0.0,0.0,0.0,0.0,0.0,0.0,0.0,0.0,0.0,0.0,0.0,0.0,0.0,0.0,0.0,0.0,0.0,0.0,0.0,0.0,0.0,0.0,0.0,0.0,0.0,0.0,0.0,0.0,0.0,0.0,0.0,0.0,0.0,0.0,0.2551,0.2766,0.217,0.1826,0.1801,0.1254,0.063,0.0,0.0,0.0,0.0,0.0,0.0,0.0,0.0,0.0,0.0,0.0,0.0,0.0,0.0,0.0,0.0,0.0,0.0,0.0,0.0,0.0,0.0,0.0,0.0,0.0,0.0,0.0,0.0,0.0,0.0,0.0,0.0,0.0,0.0,0.0,0.0,0.0,0.0,0.0,0.0,0.0,0.0,0.0,0.0,0.0,0.0,0.0,0.0,0.0,0.0,0.0,0.0,0.0,0.0,0.0,0.0,0.0,0.0,0.0,0.0,0.0,0.0,0.0,0.0,0.0,0.0,0.0,0.0,0.0,0.0,0.0,0.0,0.0,0.0,0.0,0.0,0.0,0.0,0.0,0.0,0.0,0.0,0.0,0.0,0.0,0.0,0.0,0.0,0.0,0.0,0.0,0.0,0.0,0.0,0.0,0.0,0.0,0.0,0.0,0.0,0.0,0.0,0.0,0.0,0.0,0.0,0.0,0.3563,0.3811,0.3536,0.2994,0.2666,0.2663,0.2392,0.1989,0.1415,0.0,0.0,0.0,0.0,0.0,0.0,0.0,0.0,0.0,0.0,0.0,0.0,0.0,0.0,0.0,0.0,0.0,0.0,0.0,0.0,0.0,0.0,0.0,0.0,0.0,0.0,0.0,0.0,0.0,0.0,0.0,0.0,0.0,0.0,0.0,0.0,0.0,0.0,0.9275,1.0103,0.0,0.0,0.0,0.0,0.0,0.0,0.0,0.0,1.1962,0.0,0.0,0.0,0.0,0.0,0.0,0.0,0.0,0.0,0.0,0.0,0.0,0.0,0.0,0.0,0.0,0.0,0.0,0.0,0.0,0.0,0.0,0.0,0.0,0.0,0.0,0.0,0.0,0.0,0.0,0.0,0.0,0.0,0.0,0.0,0.0,0.0,0.0,0.0,0.0,0.0,0.0,0.0,0.0,0.0,0.0,0.0,0.0,0.0,0.0,0.0,0.0,0.0,0.0,0.0,0.0,0.3152,0.3671,0.3876,0.3712,0.3671,0.3604,0.3522,0.2691,0.2414,0.2827,0.0,0.0,0.0,0.0,0.0,0.0,0.0,0.0,0.0,0.0,0.0,0.0,0.0,0.0,0.0,0.0,0.0,0.0,0.0,0.0,0.0,0.0,0.0,0.0,0.0,0.0,0.0,0.0,0.0,0.0,0.0,0.0,0.0,0.0,0.0,0.0,0.0,0.0,0.0,1.2414,1.3105,0.0,0.0,0.0,0.0,0.0,0.0,0.0,0.0,1.2881,0.0,0.0,0.0,0.0,0.0,0.0,0.0,0.0,0.0,0.0,0.0,0.0,0.0,0.0,0.0,0.0,0.0,0.0,0.0,0.0,0.0,0.0,0.0,0.0,0.0,0.0,0.0,0.0,0.0,0.0,0.0,0.0,0.0,0.0,0.0,0.0,0.0,0.0,0.0,0.0,0.0,0.0,0.0,0.0,0.0,0.0,0.0,0.0,0.0,0.0,0.0,0.0,0.0,0.0,0.0,0.3991,0.4314,0.4432,0.4297,0.3999,0.3843,0.3839,0.3436,0.3197,0.0,0.0,0.0,0.0,0.0,0.0,0.0,0.0,0.0,0.0,0.0,0.0,0.0,0.0,0.0,0.0,0.0,0.0,0.0,0.0,0.0,0.0,0.0,0.0,0.0,0.0,0.0,0.0,0.0,0.0,0.0,0.0,0.0,0.0,0.0,0.0,0.0,0.0,0.0,0.0,1.3506,1.4371,1.5515,0.0,0.0,0.0,0.0,0.0,0.0,1.4076,1.4264,0.0,0.0,0.0,0.0,0.0,0.0,0.0,0.0,0.0,0.0,0.0,0.0,0.0,0.0,0.0,0.0,0.0,0.0,0.0,0.0,0.0,0.0,0.0,0.0,0.0,0.0,0.0,0.0,0.0,0.0,0.0,0.0,0.0,0.0,0.0,0.0,0.0,0.0,0.0,0.0,0.0,0.0,0.0,0.0,0.0,0.0,0.0,0.0,0.0,0.0,0.0,0.0,0.0,0.0,0.0,0.4733,0.5105,0.5138,0.4841,0.4307,0.3999,0.3995,0.4073,0.3867,0.0,0.0,0.0,0.0,0.0,0.0,0.0,0.0,0.0,0.0,0.0,0.0,0.0,0.0,0.0,0.0,0.0,0.0,0.0,0.0,0.0,0.0,0.0,0.0,0.0,0.0,0.0,0.0,0.0,0.0,0.0,0.0,0.0,0.0,0.0,0.0,0.0,0.0,0.0,0.0,0.0,1.5829,1.7524,1.6529,0.0,0.0,0.0,0.0,1.4515,1.571,0.0,0.0,0.0,0.0,0.0,0.0,0.0,0.0,0.0,0.0,0.0,0.0,0.0,0.0,0.0,0.0,0.0,0.0,0.0,0.0,0.0,0.0,0.0,0.0,0.0,0.0,0.0,0.0,0.0,0.0,0.0,0.0,0.0,0.0,0.0,0.0,0.0,0.0,0.0,0.0,0.0,0.0,0.0,0.0,0.0,0.0,0.0,0.0,0.0,0.0,0.0,0.0,0.0,0.0,0.0,0.0,0.4851,0.5504,0.5802,0.5455,0.4929,0.4623,0.4613,0.4146,0.3717,0.0,0.0,0.0,0.0,0.0,0.0,0.0,0.0,0.0,0.0,0.0,0.0,0.0,0.0,0.0,0.0,0.0,0.0,0.0,0.0,0.0,0.0,0.0,0.0,0.0,0.0,0.0,0.0,0.0,0.0,0.0,0.0,0.0,0.0,0.0,0.0,0.0,0.0,0.0,0.0,0.0,1.8304,1.8711,1.7896,1.7353,0.0,0.0,1.7147,1.7076,1.8647,0.0,0.0,0.0,0.0,0.0,0.0,0.0,0.0,0.0,0.0,0.0,0.0,0.0,0.0,0.0,0.0,0.0,0.0,0.0,0.0,0.0,0.0,0.0,0.0,0.0,0.0,0.0,0.0,0.0,0.0,0.0,0.0,0.0,0.0,0.0,0.0,0.0,0.0,0.0,0.0,0.0,0.0,0.0,0.0,0.0,0.0,0.0,0.0,0.0,0.0,0.0,0.0,0.0,0.0,0.0,0.6244,0.5756,0.6316,0.6497,0.6163,0.555,0.5085,0.4701,0.4751,0.4422,0.0,0.0,0.0,0.0,0.0,0.0,0.0,0.0,0.0,0.0,0.0,0.0,0.0,0.0,0.0,0.0,0.0,0.0,0.0,0.0,0.0,0.0,0.0,0.0,0.0,0.0,0.0,0.0,0.0,0.0,0.0,0.0,0.0,0.0,0.0,0.0,0.0,0.0,0.0,0.0,0.0,0.0,1.933,2.0001,0.0,0.0,0.0,1.8953,1.9373,0.0,0.0,0.0,0.0,0.0,0.0,0.0,0.0,0.0,0.0,0.0,0.0,0.0,0.0,0.0,0.0,0.0,0.0,0.0,0.0,0.0,0.0,0.0,0.0,0.0,0.0,0.0,0.0,0.0,0.0,0.0,0.0,0.0,0.0,0.0,0.0,0.0,0.0,0.0,0.0,0.0,0.0,0.0,0.0,0.0,0.0,0.0,0.0,0.0,0.0,0.0,0.0,0.0,0.0,0.0,0.0,0.0,0.6828,0.7333,0.7395,0.7096,0.6472,0.5931,0.5538,0.5661,0.0,0.0,0.0,0.0,0.0,0.0,0.0,0.0,0.0,0.0,0.0,0.0,0.0,0.0,0.0,0.0,0.0,0.0,0.0,0.0,0.0,0.0,0.0,0.0,0.0,0.0,0.0,0.0,0.0,0.0,0.0,0.0,0.0,0.0,0.0,0.0,0.0,0.0,0.0,0.0,0.0,0.0,1.7316,2.0461,2.2189,2.3075,0.0,0.0,2.0895,2.1418,2.1896,2.1423,0.0,0.0,0.0,0.0,0.0,0.0,0.0,0.0,0.0,0.0,0.0,0.0,0.0,0.0,0.0,0.0,0.0,0.0,0.0,0.0,0.0,0.0,0.0,0.0,0.0,0.0,0.0,0.0,0.0,0.0,0.0,0.0,0.0,0.0,0.0,0.0,0.0,0.0,0.0,0.0,0.0,0.0,0.0,0.0,0.0,0.0,0.0,0.0,0.0,0.0,0.0,0.0,0.0,0.0,0.0,0.7811,0.8351,0.8542,0.8551,0.7931,0.7625,0.754,0.6887,0.6117,0.0,0.0,0.0,0.0,0.0,0.0,0.0,0.0,0.0,0.0,0.0,0.0,0.0,0.0,0.0,0.0,0.0,0.0,0.0,0.0,0.0,0.0,0.0,0.0,0.0,0.0,0.0,0.0,0.0,0.0,0.0,0.0,0.0,0.0,0.0,0.0,0.0,0.0,0.0,0.0,0.0,1.9694,2.27,2.4161,2.5231,0.0,0.0,2.3133,2.3234,2.4823,2.4609,2.0398,0.0,0.0,0.0,0.0,0.0,0.0,0.0,0.0,0.0,0.0,0.0,0.0,0.0,0.0,0.0,0.0,0.0,0.0,0.0,0.0,0.0,0.0,0.0,0.0,0.0,0.0,0.0,0.0,0.0,0.0,0.0,0.0,0.0,0.0,0.0,0.0,0.0,0.0,0.0,0.0,0.0,0.0,0.0,0.0,0.0,0.0,0.0,0.0,0.0,0.0,0.0,0.0,0.0,0.8495,0.8052,0.8712,0.8932,0.8703,0.8475,0.8161,0.7778,0.7642,0.7121,0.0,0.0,0.0,0.0,0.0,0.0,0.0,0.0,0.0,0.0,0.0,0.0,0.0,0.0,0.0,0.0,0.0,0.0,0.0,0.0,0.0,0.0,0.0,0.0,0.0,0.0,0.0,0.0,1.1495,1.2212,1.2429,0.0,0.0,0.0,0.0,0.0,0.0,0.0,0.0,0.0,0.0,1.8995,2.3144,2.5821,0.0,0.0,2.5418,2.4925,2.5214,2.4957,2.3917,2.1526,1.9511,0.0,0.0,0.0,0.0,0.0,0.0,0.0,0.0,0.0,0.0,0.0,0.0,0.0,0.0,0.0,0.0,0.0,0.0,0.0,0.0,0.0,0.0,0.0,0.0,0.0,0.0,0.0,0.0,0.0,0.0,0.0,0.0,0.0,0.0,0.0,0.0,0.0,0.0,0.0,0.0,0.0,0.0,0.0,0.0,0.0,0.0,0.0,0.0,0.0,0.0,0.0,0.0,0.9367,0.8918,0.9475,0.9614,0.9301,0.916,0.8856,0.8466,0.8494,0.807,0.0,0.0,0.0,0.0,0.0,0.0,0.0,0.0,0.0,0.0,0.0,0.0,0.0,0.0,0.0,0.0,0.0,0.0,0.0,0.0,0.0,0.0,0.0,0.0,0.0,0.0,0.0,0.0,1.2411,1.3074,1.3332,0.0,0.0,0.0,0.0,0.0,0.0,0.0,0.0,0.0,0.0,1.9844,2.3731,2.6031,2.7097,2.6345,2.5693,2.544,2.5922,2.5182,2.413,2.2777,0.0,0.0,0.0,0.0,0.0,0.0,0.0,0.0,0.0,0.0,0.0,0.0,0.0,0.0,0.0,0.0,0.0,0.0,0.0,0.0,0.0,0.0,0.0,0.0,0.0,0.0,0.0,0.0,0.0,0.0,0.6263,0.0,0.0,0.0,0.0,0.0,0.0,0.0,0.0,0.0,0.0,0.0,0.0,0.0,0.0,0.0,0.0,0.0,0.0,0.0,0.0,0.0,0.0,1.0688,1.0837,1.0791,1.0755,1.0743,1.0218,0.9852,0.9841,0.9463,0.9099,0.8725,0.0,0.0,0.0,0.0,0.0,0.0,0.0,0.0,0.0,0.0,0.0,0.0,0.0,0.0,0.0,0.0,0.0,0.0,0.0,0.0,0.0,0.0,0.0,0.0,0.0,0.0,1.2747,1.3401,1.3979,0.0,0.0,0.0,0.0,0.0,0.0,0.0,0.0,0.0,0.0,2.1589,2.3122,2.4664,2.4588,2.4748,2.5661,2.4935,2.443,2.4958,2.5761,2.5922,0.0,0.0,0.0,0.0,0.0,0.0,0.0,0.0,0.0,0.0,0.0,0.0,0.0,0.0,0.0,0.0,0.0,0.0,0.0,0.0,0.0,0.0,0.0,0.0,0.0,0.0,0.0,0.7084,0.6568,0.0,0.0,0.0,0.0,0.0,0.0,0.0,0.0,0.0,0.0,0.0,1.3157,1.3735,0.0,0.0,0.0,0.0,0.0,0.0,0.0,0.0,0.0,0.0,0.0,0.0,1.1556,1.203,1.2035,1.1939,1.1688,1.1153,1.069,1.0519,0.9992,0.9553,0.9331,0.0,0.0,0.0,0.0,0.0,0.0,0.0,0.0,0.0,0.0,0.0,0.0,0.0,0.0,0.0,0.0,0.0,0.0,0.0,0.0,0.0,0.0,0.0,0.0,0.0,1.3123,0.0,0.0,0.0,0.0,0.0,0.0,0.0,0.0,0.0,0.0,0.0,2.1277,2.2275,2.3149,2.4116,2.5272,2.4715,2.49,0.0,0.0,0.0,0.0,0.0,0.0,0.0,0.0,0.0,0.0,0.0,0.0,0.0,0.0,2.583,2.2317,2.1789,2.1766,2.1261,0.0,0.0,0.0,0.0,0.0,0.0,0.0,0.0,0.0,0.0,0.0,0.0,0.0,0.0,0.9232,0.0,0.9072,0.0,0.0,0.0,0.0,0.0,0.0,0.0,0.0,1.4809,1.5321,1.5638,1.609,1.609,0.0,1.5588,1.4768,0.0,0.0,0.0,0.0,0.0,0.0,0.0,0.0,1.2541,1.3097,1.3078,1.2739,1.2235,1.1593,1.1058,1.0625,1.0286,1.0143,1.0067,0.9669,0.9281,0.0,0.0,0.0,0.0,0.0,0.0,0.0,0.0,0.0,0.0,0.0,0.0,0.0,0.0,0.0,0.0,0.0,0.0,0.0,0.0,0.0,0.0,0.0,1.4525,0.0,0.0,0.0,0.0,0.0,0.0,0.0,0.0,0.0,2.0917,2.1973,2.3098,2.4036,2.4203,2.4582,2.5547,0.0,0.0,0.0,0.0,0.0,0.0,0.0,2.4269,2.5119,2.4889,2.4912,2.5876,2.7415,2.8379,2.8035,0.0,0.0,2.4912,2.4246,2.4016,2.3374,2.3236,2.3213,2.3213,2.3351,2.3351,0.0,0.0,0.0,0.0,0.0,0.0,0.0,0.0,1.3434,1.2402,0.0,1.1589,0.0,0.0,0.0,0.0,0.0,1.4291,0.0,0.0,1.7461,1.7893,1.7442,1.7872,1.8105,1.8062,1.7051,1.6753,1.7007,1.5836,0.0,0.0,0.0,0.0,0.0,0.0,1.3723,1.4033,1.3791,1.3277,1.2312,1.1719,1.1031,1.039,1.045,1.0702,1.0918,1.0293,1.0046,1.0239,0.9026,0.0,0.0,0.0,0.0,0.0,0.0,0.0,0.0,0.0,0.0,0.0,0.0,0.0,0.0,0.0,0.0,0.0,0.0,0.0,0.0,1.6078,0.0,0.0,0.0,0.0,0.0,0.0,0.0,0.0,0.0,0.0,2.2016,2.3236,2.4522,2.5463,0.0,0.0,0.0,0.0,2.6335,2.4066,2.3555,2.3511,2.3098,2.4935,2.6611,2.7162,0.0,0.0,2.9642,2.9527,2.9274,2.831,2.8953,2.9366,2.8769,2.707,2.5876,2.5761,2.5073,2.4407,2.4384,2.4866,2.4866,2.342,0.0,0.0,0.0,0.0,1.6568,1.6518,1.6214,1.6392,1.6058,1.537,1.484,0.0,0.0,0.0,0.0,0.0,0.0,1.763,1.9239,1.9768,2.0194,2.0586,2.0515,2.0589,2.0586,1.9958,1.9667,1.9766,1.9306,1.7449,1.4428,0.0,0.0,0.0,0.0,1.4637,1.4953,1.5161,1.4903,1.4135,1.3534,1.2552,1.1019,1.0594,1.0423,1.0487,1.0616,1.0476,1.0046,0.9637,0.0,0.0,0.0,0.0,0.0,0.0,0.0,0.0,0.0,0.0,0.0,0.0,0.0,0.0,0.0,0.0,0.0,0.0,0.0,1.6309,1.7388,1.7627,0.0,0.0,0.0,0.0,0.0,0.0,0.0,0.0,0.0,2.4024,2.3863,2.3764,0.0,0.0,2.5494,2.5217,2.6729,2.7711,2.7244,2.6909,0.0,0.0,2.6932,2.6887,2.808,2.9504,3.0354,3.0055,3.0606,3.1019,3.0698,3.0308,2.9963,2.978,2.9068,2.8287,2.792,2.7598,2.7415,2.7415,2.7529,2.7506,2.8419,2.4803,2.2746,2.1404,2.0598,2.0329,2.0134,2.0015,1.9381,1.9039,1.8822,1.8047,1.8498,1.9733,1.8235,0.0,0.0,0.0,2.0292,2.2065,2.2065,2.2306,2.2789,2.2604,2.2381,2.2177,2.1541,2.1176,2.0954,2.0033,1.8627,1.675,0.0,0.0,1.5782,1.5786,1.5972,1.6215,1.5967,1.5474,1.4582,1.3764,1.276,1.1528,1.1055,1.066,1.0433,1.0692,1.0649,1.0218,0.9938,0.9669,0.0,0.0,0.0,0.0,0.0,0.0,0.0,0.0,0.0,0.0,0.0,1.2553,0.0,0.0,0.0,0.0,1.613,1.7236,1.7616,1.83,0.0,0.0,0.0,0.0,0.0,0.0,0.0,2.2266,2.3375,2.4396,2.5368,2.5254,2.5348,2.5965,2.6151,2.6353,2.6808,0.0,2.8503,2.8441,2.8172,2.8126,2.8517,2.808,2.8172,2.9665,3.0673,3.1158,3.1297,3.1855,3.2205,3.1946,3.1451,3.0932,3.0744,3.0461,2.9926,2.8966,2.8742,2.8695,2.857,2.8425,2.8373,3.0995,3.119,2.7964,2.6321,2.5661,2.3576,2.3422,2.4429,2.2313,2.1411,2.1442,2.0968,2.1339,2.2266,2.0848,0.0,2.2372,2.2263,2.2868,2.4181,2.4181,2.4181,2.4181,2.4108,2.3768,2.3202,2.2228,2.1639,2.1181,1.933,1.8809,1.9824,1.9512,1.9029,1.8479,1.7628,1.7242,1.7259,1.6329,1.5304,1.4185,1.3153,1.2358,1.1822,1.157,1.1227,1.0654,1.0595,1.0606,1.0503,0.9992,0.9834,1.0191,0.0,0.0,0.0,0.0,0.0,0.0,0.0,0.0,0.0,0.0,0.0,0.0,0.0,0.0,0.0,1.8197,0.0,1.8916,1.905,0.0,0.0,0.0,2.0764,2.2719,2.3478,2.4207,2.5202,0.0,0.0,2.6288,2.7157,2.8349,3.001,2.8075,2.7337,2.9571,2.9494,2.913,2.8518,2.8425,2.818,2.8254,2.8935,3.0183,3.146,3.2371,3.2602,3.2507,3.2768,3.2641,3.2103,3.2068,3.1896,3.1455,3.1283,3.088,2.9354,2.9117,2.8964,2.8526,2.8272,2.806,3.2026,3.205,3.0277,2.8742,2.7312,2.7124,2.6512,2.5407,2.4406,2.3919,2.3855,2.269,2.2728,2.3676,2.3236,2.3607,2.4515,2.4539,2.466,2.4992,2.5016,2.5016,2.5016,2.442,2.4348,2.4636,2.3216,2.2328,2.2059,2.1181,2.0269,1.9473,1.9648,1.9081,1.7729,1.7658,1.708,1.587,1.5903,1.5643,1.5032,1.4131,1.3521,1.3186,1.1944,1.1128,1.0789,1.0506,1.0379,1.0369,1.0218,1.0187,1.0454,1.0367,0.0,0.0,0.0,0.0,0.0,0.0,0.0,0.0,0.0,1.4013,1.3862,0.0,1.5616,0.0,1.9249,2.0918,2.1219,2.1255,0.0,0.0,2.2245,2.2876,2.3389,2.4998,2.5881,2.5301,2.6094,2.7005,2.786,2.8138,2.9223,3.1654,3.0368,2.9375,3.0008,3.0601,3.1004,3.0798,3.093,3.1258,3.1003,3.1317,3.1704,3.2115,3.2253,3.2308,3.1855,3.1858,3.1675,3.1111,3.067,3.0548,3.0768,3.0586,3.0482,3.0294,3.0294,3.0013,2.9463,2.8952,2.849,3.2137,3.1842,3.1245,2.993,2.8226,2.8217,2.7644,2.6587,2.5686,2.5203,2.5119,2.4584,2.4654,2.5134,2.5134,2.5441,2.5816,2.5816,2.5816,2.5816,2.5816,2.5816,2.5816,2.5346,2.5229,2.5253,2.3891,2.297,2.2658,2.1886,2.1214,2.0723,2.0957,2.041,1.9108,1.8064,1.7128,1.6329,1.5854,1.5583,1.5394,1.4775,1.4069,1.3402,1.24,1.1527,1.0767,1.0545,1.0479,1.0479,1.0467,1.056,1.0833,1.1022,1.1318,0.0,0.0,0.0,0.0,0.0,0.0,0.0,0.0,0.0,0.0,0.0,1.7308,1.8681,2.0642,2.2039,2.2428,2.2395,2.2709,2.3661,2.4333,2.5066,2.6029,2.7204,2.7893,2.785,2.8333,2.8915,2.9516,2.9873,3.0543,3.2098,3.1909,3.1655,3.158,3.1794,3.1884,3.1908,3.213,3.2228,3.2007,3.1736,3.1504,3.1589,3.1783,3.1938,3.1664,3.1863,3.1827,3.1297,3.112,3.1095,3.1145,3.0953,3.0933,3.1111,3.0998,3.0462,2.964,2.8797,2.8101,3.1685,3.1198,3.1317,3.0362,2.8797,2.8254,2.7722,2.7142,2.6077,2.5511,2.5435,2.6138,2.6533,2.6533,2.6533,2.6533,2.6533,2.6533,2.6533,2.6533,2.6533,2.6533,2.6533,2.6533,2.6094,2.5441,2.4394,2.369,2.3195,2.2188,2.1945,2.2246,2.2324,2.1894,2.0878,1.8639,1.7388,1.7189,1.5978,1.5351,1.5409,1.5072,1.4338,1.3175,1.281,1.2024,1.0886,1.0723,1.0723,1.0723,1.0723,1.0886,1.1365,1.1652,1.2004,0.0,1.2668,0.0,0.0,0.0,0.0,0.0,0.0,0.0,0.0,1.823,1.9553,2.0963,2.2134,2.2975,2.3376,2.3304,2.4038,2.6124,2.6392,2.7201,2.9098,2.9451,2.9879,3.0846,3.0973,3.0973,3.0947,3.1444,3.1731,3.1837,3.2541,3.2976,3.3173,3.2842,3.2599,3.2488,3.2463,3.2411,3.1854,3.1298,3.1026,3.0976,3.1461,3.1792,3.1741,3.2197,3.2332,3.1837,3.1993,3.215,3.181,3.1654,3.1628,3.1602,3.1135,3.0491,2.9478,2.8447,2.7551,3.0967,3.0462,3.0569,3.0157,2.9435,2.932,2.7569,2.472,2.4113,2.406,2.4406,2.5812,2.6533,2.6533,2.6533,2.6533,2.6533,2.6533,2.6533,2.6533,2.6533,2.6533,2.6533,2.6533,2.6465,2.6188,2.513,2.4476,2.4212,2.3286,2.2309,2.1194,2.1369,2.0859,1.9707,0.0,0.0,0.0,1.5374,1.5124,1.5394,1.4853,1.4176,1.3462,1.2935,0.0,1.145,1.0998,1.0723,1.0723,1.0723,0.0,0.0,0.0,0.0,0.0,0.0,0.0,0.0,0.0,0.0,0.0,1.7955,1.8713,1.8944,2.0029,2.1312,2.278,2.3195,2.4058,2.5795,2.5298,2.5636,2.7606,2.8076,2.8673,2.9758,3.034,3.0794,3.0973,3.0973,3.0973,3.0999,3.1078,3.1313,3.1731,3.2019,3.2306,3.2774,3.3416,3.3746,3.3411,3.3199,3.3075,3.2533,3.2326,3.2092,3.2354,3.238,3.2252,3.1863,3.1837,3.181,3.1287,3.1235,3.1313,3.1182,3.1156,3.1182,3.1156,3.0686,3.0021,2.9349,2.8689,2.7961,3.1565,0.0,3.1536,3.0976,0.0,2.9376,2.7797,2.555,2.6217,2.6585,2.6747,2.6601,2.6645,2.696,2.6089,2.5661,2.5636,2.5084,2.5259,2.6013,2.6038,2.6339,2.6936,2.6936,2.6866,2.6892,2.5877,2.5367,2.5237,2.4313,2.3247,2.2185,2.2154,2.1836,2.1211,2.056,1.9085,1.6834,1.6508,1.6206,1.5933,1.5584,1.5028,1.4253,0.0,0.0,0.0,0.0,0.0,0.0,0.0,0.0,0.0,0.0,0.0,1.5452,1.5677,1.6102,1.6756,1.7135,1.7714,1.8689,2.0298,2.1112,2.1062,2.2071,2.3235,2.4541,2.4682,2.5586,2.7726,2.758,2.7878,2.9403,2.9755,3.0033,3.0443,3.0748,3.0973,3.0973,3.0973,3.0973,3.0973,3.0973,3.1078,3.1392,3.1679,3.1836,3.194,3.2829,3.343,3.3169,3.2881,3.262,3.2333,3.2019,3.1862,3.1862,3.1862,3.1731,3.147,3.1418,3.1313,3.1052,3.0973,3.0973,3.0973,3.0973,3.0973,3.0947,3.0529,2.996,2.9383,2.8815,2.8298,3.2297,3.1427,3.2619,3.1867,2.9899,2.9657,2.8848,2.7738,0.0,0.0,0.0,2.7323,2.6858,2.7245,2.5851,2.5259,2.5209,2.428,2.4657,2.6013,2.6038,2.654,2.7419,2.7419,2.7419,2.7444,2.6554,2.6136,2.5984,2.4941,2.42,2.3627,2.326,2.3027,2.2921,2.2044,2.0534,1.8607,1.7941,1.7263,1.6433,1.6257,1.5804,1.4889,1.5204,1.4823,1.3726,1.3872,1.3962,1.383,1.4048,1.4533,1.5072,1.5454,1.5886,1.6388,1.6405,1.6924,1.8091,1.8352,1.9354,2.1346,2.256,2.3209,2.3189,2.4045,2.4961,2.6043,2.6238,2.7238,2.9247,2.9397,2.9802,3.0921,3.0973,3.0973,3.0973,3.0973,3.0973,3.0973,3.0973,3.0973,3.0973,3.0973,3.0973,3.1052,3.1365,3.1548,3.1235,3.194,3.2594,3.2515,3.2228,3.1862,3.1653,3.1365,3.0999,3.1078,3.1052,3.0973,3.0973,3.0973,3.0973,3.0999,3.0973,3.0973,3.0973,3.0973,3.0973,3.0973,3.0529,2.9954,2.9379,2.8804,2.8549,3.192,3.1447,3.2138,3.1989,3.1293,3.1811,3.1518,3.0443,2.7615,2.6303,2.6337,2.6926,2.6961,2.6671,2.6861,2.6942,2.6942,2.6766,2.7092,2.7745,2.777,2.7821,2.7996,2.7996,2.7996,2.7875,2.6818,2.6267,2.6109,2.4892,2.4231,2.3973,2.3308,2.2768,2.2617,2.2717,2.2233,2.1153,1.8701,1.7079,1.6433,1.5833,1.5379,1.4889,1.5013,1.4809,1.4355,1.4136,1.4305,1.4897,1.4728,1.5355,1.7004,1.7133,1.7674,1.8631,1.8699,1.8929,1.9255,2.0216,2.1666,2.363,2.4124,2.447,2.5226,2.5526,2.6164,2.7164,2.7752,2.8588,2.9813,2.9865,3.0099,3.0895,3.0973,3.0973,3.0973,3.0973,3.0973,3.0973,3.0973,3.0973,3.0973,3.0973,3.0973,3.0999,3.1182,3.113,3.1209,3.1522,3.1914,3.194,3.1888,3.1627,3.1261,3.1078,3.0973,3.0973,3.0973,3.0973,3.0973,3.1026,3.0999,3.0973,3.0999,3.0999,3.0999,3.0973,3.0973,3.0947,3.0529,2.9954,2.9502,2.8952,2.867,3.2741,3.2049,3.2646,3.2579,3.2077,3.2396,3.2033,3.117,2.917,2.8225,2.8173,2.7889,2.7784,2.7857,2.7177,2.6841,2.6816,2.6214,2.6565,2.762,2.767,2.7996,2.8524,2.8549,2.8301,2.7851,2.7766,2.7176,2.6043,2.5469,2.4723,2.3798,2.2972,2.2419,2.2227,2.2812,2.2599,2.1676,1.9815,1.8499,1.7673,1.6877,1.6301,1.5994,1.614,1.5994,1.5511,1.5526,1.5777,1.6231,1.6339,1.6876,1.7928,1.8313,1.8634,1.9144,1.8973,1.9358,2.0393,2.1574,2.3023,2.4632,2.4574,2.5059,2.6417,2.64,2.6892,2.83,2.8746,2.9369,3.0455,3.0481,3.0585,3.0947,3.0973,3.0973,3.0973,3.0973,3.0973,3.0973,3.0973,3.0973,3.0973,3.0973,3.0973,3.0999,3.1209,3.1548,3.1836,3.2097,3.2045,3.1522,3.1365,3.1287,3.1052,3.0973,3.0973,3.0973,3.0973,3.0973,3.0999,3.1029,3.1005,3.1052,3.0979,3.1005,3.1052,3.0973,3.0973,3.0947,3.0529,3.0032,3.0032,3.0121,3.005,3.3759,3.2879,3.3446,3.3275,3.263,3.2515,3.1962,3.1144,3.0485,3.0164,2.9945,2.886,2.8489,2.8692,2.7576,2.7017,2.6892,2.6138,2.6515,2.7745,2.7846,2.8298,2.9051,2.9126,2.8571,2.7811,2.8295,2.7567,2.5754,2.5686,2.4799,2.3227,2.2589,2.2221,2.1894,2.2812,2.2909,2.2199,2.1265,2.0171,1.8907,1.7897,1.7282,1.7004,1.7194,1.7091,1.6623,1.6936,1.7221,1.7486,1.785,1.836,1.8879,1.9245,1.9418,1.9401,1.911,1.972,2.1484,2.2776,2.4006,2.5213,2.5209,2.5859,2.7348,2.7496,2.7849,2.9076,2.9452,3.0031,3.0794,3.0973,3.0973,3.0973,3.0973,3.0973,3.0973,3.0973,3.1052,3.113,3.1078,3.1052,3.1287,3.1261,3.1287,3.147,3.1757,3.2202,3.2594,3.2672,3.228,3.1705,3.1365,3.1444,3.1365,3.1418,3.1444,3.1365,3.1418,3.147,3.147,3.1292,3.1216,3.1315,3.1187,3.1111,3.1107,3.1052,3.1075,3.1097,3.0677,3.0375,3.0495,3.0841,3.1061,3.4268,3.4243,3.4272,3.3858,3.3099,3.2523,3.1818,3.1003,3.0315,2.9977,2.9859,2.9152,2.8599,2.827,2.8499,2.8649,2.8649,2.8599,2.885,2.9428,2.9553,2.9628,2.9679,2.9704,2.9043,2.7859,2.7811,2.6745,2.4697,2.4508,2.3636,2.2291,2.2589,2.2498,2.207,2.3086,2.3621,2.3551,2.3074,2.1643,1.9461,1.8323,1.7618,1.7296,1.7311,1.7311,1.7194,1.7447,1.7887,1.8593,1.8881,1.9312,2.003,2.0172,2.0172,2.0245,2.0179,2.0961,2.2717,2.3803,2.4802,2.5753,2.6617,2.7566,2.8767,2.9294,2.9476,2.9449,3.0164,3.082,3.0973,3.0973,3.0973,3.0973,3.1026,3.0973,3.1026,3.0973,3.1182,3.1705,3.1392,3.1365,3.2176,3.2045,3.1967,3.2411,3.2542,3.2672,3.2829,3.2855,3.2829,3.2594,3.2542,3.2489,3.2463,3.2515,3.2385,3.2411,3.2489,3.2385,3.2176,3.1708,3.1268,3.2019,3.1705,3.1289,3.1394,3.1365,3.1123,3.1368,3.1043,3.0655,3.0512,3.0568,3.045,3.4522,3.3906,3.4254,3.3962,3.3185,3.2443,3.1829,3.1365,3.1472,3.1293,3.0763,3.0482,2.9905,2.9126,2.9352,2.9453,2.9428,2.9453,2.9578,2.9779,2.9779,2.9779,2.9779,2.9779,2.8836,2.7238,2.7502,2.6364,2.4089,2.3545,2.2835,2.181,2.2185,2.23,2.1973,2.2891,2.3398,2.3437,2.3055,2.2312,2.1119,1.9587,1.8312,1.7369,1.7326,1.7419,1.7699,1.7857,1.8302,1.9163,1.9323,1.9686,2.0275,2.0292,2.0473,2.0907,2.1747,2.2301,2.2656,2.4031,2.5166,2.5884,2.694,2.781,2.8554,2.9419,2.9883,2.9781,3.0444,3.0973,3.0973,3.0999,3.0973,3.1026,3.1287,3.1496,3.1496,3.181,3.2097,3.2306,3.215,3.2123,3.2542,3.2489,3.2594,3.3091,3.3221,3.33,3.3613,3.3692,3.3692,3.3692,3.3692,3.3378,3.2908,3.2672,3.2698,3.2698,3.2672,3.2672,3.2698,3.2644,3.2486,3.2751,3.2098,3.1707,3.1707,3.1619,3.1421,3.1636,3.1947,3.1728,3.1364,3.1335,3.131,3.4958,3.4002,3.3968,3.3578,3.2973,3.2253,3.1823,3.1707,3.2068,3.1928,3.1468,3.1386,3.0984,3.0281,3.008,3.0005,3.0005,2.9854,2.9779,2.9804,2.993,2.9852,2.9493,2.9877,2.8675,2.6729,2.7275,2.6286,2.3689,2.3022,2.2514,2.199,2.2247,2.2443,2.2577,2.324,2.3673,2.3663,2.3575,2.3243,2.2427,2.1223,1.9649,1.8067,1.764,1.7749,1.8224,1.8318,1.8814,1.9546,1.9729,1.9911,2.0292,2.0473,2.0944,2.1618,2.2573,2.3143,2.2948,2.4388,2.5419,2.5884,2.7021,2.7891,2.8474,2.9419,3.0037,3.0266,3.0748,3.0973,3.0999,3.113,3.1209,3.1261,3.1731,3.2071,3.2097,3.2489,3.2725,3.2881,3.2725,3.2777,3.2908,3.3064,3.3378,3.3718,3.3822,3.3901,3.4293,3.4371,3.4345,3.4397,3.4371,3.4058,3.3326,3.3247,3.3143,3.3143,3.3221,3.3247,3.3117,3.3349,3.3532,3.3352,3.2696,3.2489,3.2646,3.2402,3.1897,3.2036,3.2318,3.2636,3.2291,3.2401,3.1994,3.5769,3.4769,3.3532,3.2863,3.2594,3.1967,3.1602,3.1524,3.1493,3.1493,3.1461,3.1461,3.1386,3.1286,3.0834,3.0583,3.0507,3.0002,2.9777,2.988,3.0253,2.9861,2.8681,2.9886,2.8821,2.6078,2.6823,2.6262,2.4183,2.3366,2.2859,2.288,2.3099,2.3418,2.3861,2.4536,2.4906,2.4703,2.5006,2.4598,2.3186,2.3131,2.1825,1.9573,1.8656,1.8461,1.8605,1.9036,1.9365,1.9654,2.011,2.0292,2.0382,2.0997,2.1669,2.2244,2.2232,2.2938,2.42,2.4906,2.5448,2.5964,2.7348,2.8395,2.8924,2.9651,3.0266,3.0898,3.0973,3.0973,3.1026,3.1339,3.1679,3.1757,3.228,3.2568,3.2646,3.2777,3.2986,3.3326,3.3143,3.3091,3.3509,3.4005,3.4162,3.4293,3.4319,3.4345,3.4371,3.4397,3.4397,3.4397,3.4397,3.4371,3.4293,3.4058,3.4136,3.4084,3.3953,3.4162,3.411,3.4031,3.4031,3.3875,3.3167,3.3066,3.3622,3.3429,3.2739,3.2673,3.2858,3.3045,3.2835,3.2638,3.2314,3.5079,3.4689,3.3245,3.2909,3.3062,3.2316,3.1959,3.1938,3.2315,3.2466,3.2466,3.2466,3.2466,3.2441,3.1888,3.1436,3.1029,3.0318,3.0072,3.0198,2.9843,2.9542,2.9361,2.9327,2.8251,2.6447,2.6052,2.5178,2.3693,2.3577,2.3632,2.3689,2.421,2.4565,2.4746,2.5007,2.5168,2.5097,2.5257,2.4961,2.438,2.4107,2.3389,2.2482,2.0925,2.0071,1.999,1.986,2.0212,2.1003,2.1048,2.1177,2.1587,2.207,2.2294,2.2318,2.2892,2.3576,2.4429,2.5249,2.571,2.603,2.7672,2.8767,2.9238,3.0037,3.0748,3.0973,3.0999,3.0973,3.0999,3.1182,3.1444,3.1836,3.2359,3.2881,3.3247,3.3561,3.3875,3.4031,3.3901,3.3901,3.4005,3.4293,3.4397,3.4397,3.4397,3.4397,3.4397,3.4397,3.4397,3.4397,3.4397,3.4397,3.4397,3.4371,3.4397,3.4371,3.4345,3.4319,3.4267,3.4241,3.4241,3.4162,3.3613,3.3515,3.3993,3.3919,3.332,3.3356,3.3536,3.3255,3.3326,3.2876,3.2748,3.4607,3.434,3.3088,3.2787,3.3251,3.2541,3.2315,3.2516,3.2893,3.2968,3.2817,3.2792,3.2717,3.2541,3.2315,3.2039,3.153,3.063,3.0106,2.988,2.9682,2.9221,2.865,2.8723,2.7773,2.62,2.5621,2.4823,2.4052,2.4415,2.4702,2.4608,2.5178,2.5523,2.5625,2.5666,2.5666,2.5574,2.5574,2.5482,2.5338,2.5071,2.4813,2.4507,2.3419,2.2337,2.169,2.1319,2.1515,2.2135,2.2043,2.2199,2.2755,2.282,2.28,2.272,2.3246,2.395,2.4471,2.5271,2.5732,2.5968,2.7672,2.8846,2.916,3.0037,3.0672,3.0924,3.1182,3.1261,3.1313,3.1444,3.1679,3.215,3.2777,3.3378,3.3822,3.4162,3.4345,3.4371,3.4345,3.4371,3.4397,3.4397,3.4397,3.4397,3.4397,3.4397,3.4397,3.4397,3.4397,3.4371,3.4214,3.411,3.3979,3.3849,3.4136,3.4214,3.4319,3.4345,3.4397,3.4397,3.4371,3.4319,3.4357,3.4232,3.4176,3.4114,3.4094,3.4068,3.3691,3.3326,3.3213,3.3016,3.2973,3.4371,3.41,3.286,3.2575,3.2953,3.2365,3.2516,3.2968,3.3018,3.2742,3.2466,3.2315,3.2081,3.1655,3.1997,3.2131,3.163,3.0827,2.9861,2.91,2.9868,2.8773,2.6579,2.821,2.7625,2.5382,2.5521,2.5744,2.5647,2.5751,2.5813,2.5854,2.5937,2.6156,2.6579,2.6579,2.6465,2.6279,2.6186,2.6093,2.5926,2.604,2.5939,2.5799,2.5799,2.5102,2.3666,2.3419,2.3241,2.3161,2.31,2.3198,2.3367,2.3143,2.3072,2.341,2.3371,2.37,2.4451,2.5053,2.5557,2.6201,2.7417,2.8754,2.9303,2.9982,3.0624,3.1185,3.1575,3.1836,3.194,3.2306,3.2646,3.2803,3.3535,3.411,3.4319,3.4371,3.4397,3.4397,3.4397,3.4397,3.4397,3.4397,3.4397,3.4397,3.4397,3.4397,3.4397,3.4397,3.4397,3.4293,3.4058,3.3796,3.3483,3.3221,3.3639,3.4005,3.4162,3.4267,3.4371,3.4397,3.4481,3.4538,3.5114,3.5063,3.4893,3.4851,3.4409,3.4253,3.3775,3.3382,3.3213,3.3129,3.3185,3.3496,3.342,3.2609,3.2541,3.2918,3.2064,3.2164,3.2993,3.2667,3.2616,3.2767,3.2792,3.235,3.1712,3.1747,3.1231,3.0265,2.9824,2.9782,2.9857,2.9207,2.8459,2.7753,2.7734,2.7063,2.5911,2.5971,2.6093,2.5986,2.6206,2.6351,2.6413,2.6662,2.6889,2.7013,2.7034,2.7034,2.694,2.694,2.696,2.6845,2.694,2.6927,2.6839,2.688,2.6587,2.6064,2.4794,2.4108,2.4219,2.3996,2.3879,2.3795,2.3614,2.3617,2.3763,2.3743,2.4033,2.4867,2.5401,2.6037,2.6926,2.8397,2.9569,3.022,3.1153,3.1785,3.2123,3.2333,3.2411,3.2515,3.296,3.3273,3.3326,3.3639,3.4058,3.4345,3.4397,3.4397,3.4397,3.4397,3.4397,3.4397,3.4397,3.4397,3.4397,3.4397,3.4397,3.4397,3.4397,3.4397,3.4345,3.3927,3.3587,3.343,3.3221,3.33,3.3692,3.3927,3.4084,3.4214,3.435,3.4459,3.4817,3.5332,3.5678,3.5604,3.5363,3.4966,3.4478,3.4056,3.3719,3.341,3.3382,3.3466,3.2943,3.2742,3.2591,3.2742,3.2993,3.229,3.2416,3.2993,3.2692,3.2616,3.2742,3.24,3.1736,3.112,3.0866,3.022,2.9324,2.9127,2.942,2.9773,2.8788,2.7988,2.7525,2.6864,2.6499,2.6305,2.6368,2.6451,2.6413,2.6662,2.6827,2.6889,2.7117,2.7241,2.7262,2.7262,2.7262,2.7262,2.7262,2.7262,2.7262,2.7262,2.7262,2.7262,2.7262,2.7262,2.7241,2.6004,2.5382,2.5318,2.5058,2.4819,2.4674,2.4654,2.4612,2.4633,2.4654,2.4902,2.5446,2.6087,2.6649,2.7479,2.8911,3.0089,3.0713,3.1792,3.2354,3.2698,3.2908,3.3038,3.3091,3.3535,3.3849,3.3901,3.3927,3.4031,3.4345,3.4397,3.4397,3.4397,3.4397,3.4397,3.4397,3.4397,3.4397,3.4397,3.4397,3.4397,3.4397,3.4397,3.4397,3.4293,3.3901,3.3666,3.3561,3.33,3.3012,3.3326,3.3666,3.3796,3.3927,3.4173,3.4336,3.4687,3.5186,3.5471,3.5419,3.5675,3.5405,3.4899,3.4365,3.4056,3.3803,3.3719,3.3719,3.2717,3.2315,3.2742,3.2943,3.3043,3.2782,3.2671,3.2982,3.2685,3.2301,3.1808,3.1345,3.0601,2.9925,2.9741,2.9461,2.9059,2.8715,2.8544,2.8624,2.8298,2.7612,2.6557,2.6131,2.6289,2.6641,2.6682,2.6868,2.72,2.7262,2.7282,2.722,2.7241,2.7262,2.7262,2.7262,2.7262,2.7262,2.7262,2.7262,2.7262,2.7262,2.7262,2.7262,2.7262,2.7262,2.7262,2.7105,2.6898,2.6579,2.5991,2.5681,2.5813,2.5875,2.573,2.5689,2.5834,2.5813,2.6055,2.6665,2.7304,2.7657,2.8925,3.0049,3.0925,3.1687,3.2367,3.2932,3.3378,3.3613,3.3718,3.4031,3.4293,3.4371,3.4293,3.4345,3.4397,3.4397,3.4397,3.4397,3.4397,3.4397,3.4397,3.4397,3.4397,3.4397,3.4397,3.4397,3.4397,3.4397,3.4397,3.4188,3.3901,3.3692,3.3561,3.3117,3.2908,3.3326,3.3613,3.3744,3.4012,3.4257,3.4687,3.4974,3.5322,3.544,3.5591,3.5986,3.5761,3.5124,3.4702,3.4421,3.4169,3.3972,3.3747,3.234,3.219,3.1938,3.2315,3.2807,3.154,3.1296,3.1792,3.0842,3.0477,3.0383,3.1065,3.022,2.8767,2.9555,2.9239,2.8179,2.7746,2.762,2.7694,2.7598,2.7429,2.6983,2.6868,2.6981,2.7489,2.7785,2.791,2.7759,2.7759,2.7593,2.7282,2.7345,2.7303,2.7262,2.7303,2.7262,2.7262,2.7262,2.7282,2.7282,2.7262,2.7262,2.7262,2.7262,2.7262,2.7262,2.7262,2.7034,2.6579,2.6123,2.5896,2.5937,2.5937,2.5978,2.5958,2.5937,2.6061,2.6451,2.7008,2.7654,2.8426,2.95,3.0697,3.1773,3.2506,3.3206,3.3814,3.4136,3.4162,3.4188,3.4293,3.4397,3.4397,3.4397,3.4397,3.4397,3.4397,3.4397,3.4397,3.4397,3.4397,3.4397,3.4397,3.4397,3.4397,3.4397,3.4397,3.4397,3.4397,3.4397,3.4241,3.4005,3.3744,3.3456,3.3012,3.2934,3.3404,3.3666,3.3904,3.4307,3.4766,3.5385,3.5916,3.6179,3.6391,3.6476,3.6741,3.608,3.5628,3.526,3.5022,3.4297,3.3916,3.3635,3.1863,3.1863,3.1763,3.1863,3.2044,3.1051,3.0787,3.0861,3.014,2.9711,2.9892,3.0122,2.9648,2.8444,2.8778,2.8445,2.7357,2.7262,2.7461,2.7572,2.7835,2.7614,2.7407,2.7523,2.7793,2.7945,2.8551,2.8494,2.8235,2.8214,2.8048,2.7924,2.7841,2.7841,2.7862,2.7614,2.7531,2.751,2.7386,2.7324,2.751,2.7345,2.7407,2.7427,2.7386,2.7262,2.7262,2.7262,2.7117,2.6868,2.6599,2.6455,2.6455,2.6455,2.6455,2.6455,2.6455,2.6599,2.6931,2.75,2.8065,2.8848,2.9961,3.1009,3.1879,3.2785,3.3641,3.3869,3.423,3.4397,3.4397,3.4397,3.4397,3.4397,3.4397,3.4397,3.4397,3.4397,3.4397,3.4397,3.4397,3.4397,3.4397,3.4397,3.4397,3.4397,3.4397,3.4397,3.4397,3.4397,3.4371,3.4267,3.4214,3.4031,3.4091,3.3831,3.3646,3.4015,3.4364,3.4415,3.4768,3.5331,3.5456,3.6052,3.6731,3.7196,3.7214,3.7261,3.7135,3.6704,3.6127,3.5568,3.5011,3.4555,3.4243,3.1461,3.1512,3.2014,3.1734,3.1134,3.1233,3.0843,3.017,2.9761,2.9625,2.9488,2.8936,2.8707,2.8473,2.8113,2.7535,2.7365,2.751,2.7696,2.8007,2.8255,2.8152,2.7655,2.798,2.809,2.8255,2.8828,2.8932,2.8769,2.8628,2.8545,2.8317,2.8338,2.84,2.8131,2.7986,2.7903,2.7717,2.7531,2.7552,2.7738,2.7572,2.7572,2.7738,2.7448,2.7282,2.7262,2.7262,2.7241,2.7262,2.7262,2.7179,2.72,2.722,2.72,2.7179,2.7212,2.7253,2.7484,2.8107,2.8549,2.894,3.0099,3.111,3.1392,3.2154,3.2978,3.3471,3.3979,3.423,3.4397,3.4397,3.4397,3.4397,3.4397,3.4397,3.4397,3.4397,3.4397,3.4397,3.4397,3.4397,3.4397,3.4397,3.4397,3.4397,3.4397,3.4397,3.4397,3.4397,3.4397,3.4371,3.4345,3.4371,3.4568,3.4844,3.4764,3.4817,3.5197,3.5412,3.5613,3.5842,3.5599,3.5967,3.7353,3.7825,3.7606,3.7651,3.793,3.774,3.7259,3.6707,3.6112,3.5867,3.5536,3.2039,3.2039,3.2164,3.1956,3.1344,3.0754,2.992,2.9024,2.8279,2.7921,2.7572,2.8272,2.8064,2.7045,2.8211,2.8551,2.7841,2.811,2.84,2.8462,2.8545,2.8545,2.8317,2.8363,2.8549,2.8918,2.9513,2.9576,2.9226,2.8814,2.8442,2.8173,2.8028,2.7593,2.7696,2.7966,2.7738,2.7531,2.7634,2.78,2.7862,2.7821,2.78,2.7924,2.7552,2.7303,2.7282,2.7262,2.7262,2.7262,2.7303,2.7365,2.7282,2.7262,2.7262,2.7262,2.7357,2.7452,2.7746,2.7957,2.8269,2.861,2.9167,2.9619,3.0628,3.1023,3.2019,3.2893,3.3556,3.3894,3.4314,3.4397,3.4397,3.4397,3.4397,3.4397,3.4397,3.4397,3.4397,3.4397,3.4397,3.4397,3.4397,3.4397,3.4397,3.4397,3.4397,3.4397,3.4397,3.4397,3.4397,3.4397,3.4397,3.4481,3.4868,3.5332,3.5736,3.5816,3.6163,3.6452,3.6662,3.6931,3.6796,3.7461,3.8458,3.8458,3.8238,3.8648,3.8984,3.869,3.8411,3.7807,3.7293,3.7046,3.6553,3.1162,3.1168,3.1168,3.0808,3.0239,3.012,2.9591,2.8689,2.7944,2.7448,2.7398,2.8042,2.7883,2.7357,2.8389,2.8649,2.8458,2.8711,2.8938,2.9001,2.9145,2.927,2.9332,2.9291,2.9436,2.9435,2.9578,2.9559,2.9456,2.9208,2.898,2.8876,2.84,2.838,2.8152,2.8214,2.8007,2.7717,2.7779,2.7924,2.7924,2.7924,2.8069,2.8193,2.8028,2.7883,2.7924,2.7924,2.7903,2.7883,2.7862,2.7655,2.7324,2.7262,2.7282,2.7262,2.7262,2.7212,2.7378,2.7537,2.7757,2.8077,2.8555,2.9219,3.0083,3.0572,3.1528,3.261,3.3215,3.3641,3.4314,3.4397,3.4397,3.4397,3.4397,3.4397,3.4397,3.4397,3.4397,3.4397,3.4397,3.4397,3.4397,3.4397,3.4397,3.4397,3.4397,3.4397,3.4397,3.4397,3.4397,3.4397,3.4397,3.4564,3.5114,3.5736,3.666,3.6922,3.7309,3.7615,3.7878,3.8103,3.8355,3.8738,3.903,3.9133,3.9043,3.9553,3.9839,3.9688,3.9405,3.8862,3.8422,3.8112,3.7486,3.0413,3.0194,3.0194,2.9665,2.9095,2.972,2.9535,2.8624,2.8193,2.8028,2.8167,2.8028,2.8223,2.839,2.8603,2.8731,2.8938,2.9166,2.9415,2.9456,2.9704,2.9891,2.9951,3.0137,3.0158,2.9539,2.9787,2.9973,3.0056,2.9725,2.9539,2.9787,2.9352,2.8918,2.898,2.8814,2.84,2.809,2.8069,2.8193,2.8235,2.8255,2.8421,2.8628,2.8545,2.8483,2.8462,2.8504,2.8545,2.8607,2.8607,2.8193,2.7717,2.7469,2.7407,2.7427,2.751,2.7585,2.76,2.7501,2.7709,2.7546,2.8355,2.9034,2.9555,3.0462,3.1552,3.2364,3.3129,3.381,3.4314,3.4397,3.4397,3.4397,3.4397,3.4397,3.4397,3.4397,3.4397,3.4397,3.4397,3.4397,3.4397,3.4397,3.4397,3.4397,3.4397,3.4397,3.4397,3.4397,3.4397,3.4397,3.4397,3.4786,3.5277,3.6188,3.7049,3.7814,3.8219,3.859,3.8914,3.9205,3.9349,3.906,3.9205,3.9451,3.9666,3.991,4.0191,4.047,4.0278,3.9656,3.9334,3.9152,3.8572,3.2111,3.1221,3.1221,3.0673,2.9947,3.0046,2.9543,2.8707,2.8566,2.8363,2.8243,2.8384,2.8645,2.8911,2.9123,2.9373,2.9477,2.9621,2.9683,2.9683,2.9848,2.9908,3.0171,3.0463,3.0437,3.0445,3.0642,3.0921,3.0822,3.0367,2.9931,2.9849,2.9188,2.8817,2.8897,2.8649,2.8669,2.8462,2.8462,2.8628,2.8794,2.898,2.9083,2.9208,2.9021,2.8835,2.8731,2.8669,2.8607,2.8607,2.8628,2.8545,2.84,2.8359,2.8214,2.7966,2.809,2.8209,2.841,2.8421,2.8462,2.85,2.8672,2.8769,2.915,3.0036,3.1207,3.2302,3.336,3.423,3.4397,3.4397,3.4424,3.4424,3.4476,3.4502,3.4502,3.4554,3.458,3.4659,3.4554,3.4397,3.4397,3.4397,3.4397,3.4397,3.4397,3.4397,3.4397,3.4397,3.4397,3.4397,3.4397,3.495,3.5521,3.6503,3.751,3.8339,3.8884,3.932,3.9707,4.0091,4.0161,3.9737,3.9737,4.0091,4.0261,4.0261,4.0331,4.047,4.0439,4.0409,4.0239,4.0069,4.0576,3.1054,3.0416,3.0318,3.0141,2.9806,2.9939,2.9842,2.9393,2.9083,2.9001,2.9102,2.9102,2.9245,2.9411,2.9497,2.9372,2.9268,2.9493,2.9431,2.9309,2.9452,2.9693,3.0032,3.0343,3.062,3.0873,3.134,3.1309,3.0901,3.014,3.0171,3.0191,2.9554,2.9249,2.9271,2.9168,2.8961,2.8755,2.8876,2.898,2.9083,2.9373,2.9746,2.9891,2.9829,2.9704,2.9642,2.9394,2.9352,2.9352,2.9332,2.9208,2.9104,2.9104,2.9001,2.8504,2.8524,2.8603,2.8613,2.8359,2.8177,2.7952,2.8364,2.8858,2.9238,2.9935,3.1032,3.2228,3.3104,3.4063,3.4314,3.445,3.4554,3.4789,3.4868,3.4999,3.5182,3.5234,3.5208,3.5077,3.4763,3.458,3.4397,3.4397,3.4397,3.4397,3.4424,3.4476,3.4528,3.4554,3.4633,3.4914,3.5133,3.5846,3.6571,3.7565,3.8434,3.9151,3.9541,3.997,4.0252,4.0523,4.0532,4.0161,4.0401,4.0593,4.0501,4.0431,4.0501,4.0601,4.0562,4.0685,4.097,4.1186,4.1595,2.9992,2.9435,2.9435,2.9435,2.9497,2.9829,2.9973,2.9911,2.9601,2.96,2.9889,2.96,2.96,2.9849,2.9683,2.9265,2.8649,2.9011,2.889,2.8813,2.9071,2.9494,2.9728,3.0359,3.0822,3.1037,3.1371,3.1291,3.0882,3.0339,3.0429,3.0628,3.0227,3.0099,3.0219,2.9908,2.9435,2.9415,2.9373,2.9373,2.9435,2.987,3.0429,3.0781,3.0822,3.0739,3.0491,3.0243,2.9994,2.9932,2.9891,2.9808,2.958,2.9787,2.9642,2.9042,2.8897,2.8669,2.8504,2.8473,2.8549,2.8344,2.8784,2.9316,2.9849,3.0628,3.147,3.2558,3.342,3.4187,3.4751,3.4789,3.4999,3.5286,3.5469,3.5574,3.5835,3.5913,3.5861,3.56,3.5103,3.4972,3.5025,3.5025,3.5129,3.5129,3.5155,3.5129,3.5155,3.5077,3.5247,3.5535,3.6088,3.6955,3.7855,3.8975,3.9787,4.0497,4.0588,4.072,4.0769,4.0878,4.0747,4.0769,4.0808,4.097,4.0816,4.0909,4.1247,4.137,4.1063,4.1124,4.1586,4.1965,4.2345,3.0863,2.9911,2.9911,2.9911,2.9911,2.9973,2.9994,2.9994,2.9891,2.9911,2.9933,2.9849,2.9808,2.9766,2.9618,2.9303,2.9051,2.8946,2.8825,2.8605,2.9186,2.9519,2.9669,3.0569,3.0844,3.0991,3.1265,3.1516,3.1271,3.091,3.1035,3.1238,3.0913,3.0847,3.0689,3.0396,3.0781,3.0864,3.0636,3.0636,3.0884,3.1071,3.1195,3.1278,3.1278,3.1153,3.0884,3.0677,3.047,3.0139,3.0036,2.9973,2.9932,2.9932,2.9973,2.9849,2.9829,2.9808,2.9663,2.9555,2.9437,2.9397,3.0044,3.0561,3.0921,3.1646,3.2763,3.45,3.4692,3.497,3.5505,3.5809,3.594,3.5966,3.6018,3.607,3.6227,3.6593,3.6541,3.6462,3.607,3.5992,3.5992,3.5966,3.594,3.5913,3.5887,3.5809,3.573,3.56,3.5634,3.5955,3.6658,3.7534,3.8546,3.9718,4.0546,4.1492,4.1556,4.1361,4.1309,4.1278,4.1463,4.1494,4.1494,4.1586,4.1678,4.1863,4.2202,4.2109,4.1801,4.2017,4.2417,4.2736,4.2942,3.0391,2.9994,2.9994,2.9994,2.9994,2.9994,2.9994,2.9932,2.9601,2.927,2.9188,2.8901,2.8838,2.8999,2.9011,2.878,2.845,2.8608,2.8522,2.8549,2.9045,2.949,2.9872,3.0379,3.0659,3.0897,3.0956,3.0895,3.0932,3.1027,3.1082,3.097,3.0678,3.0389,3.0628,3.0417,3.0425,3.0642,3.088,3.1174,3.1402,3.1609,3.1754,3.1754,3.1754,3.1609,3.1443,3.1174,3.1029,3.0739,3.0574,3.0387,3.0305,3.016,2.9994,2.9994,2.9973,2.9973,2.9932,2.9995,2.9947,2.9918,3.0378,3.0976,3.145,3.2271,3.3219,3.4198,3.4765,3.5442,3.5973,3.6096,3.6332,3.6462,3.6619,3.6828,3.6933,3.709,3.7246,3.7168,3.7116,3.7063,3.6907,3.6593,3.6436,3.6279,3.6227,3.6149,3.6044,3.594,3.6,3.6286,3.7115,3.8007,3.9008,4.0032,4.0786,4.1571,4.2211,4.2017,4.174,4.174,4.2017,4.2355,4.254,4.2602,4.2633,4.2417,4.2355,4.2417,4.2582,4.2859,4.3179,4.3046,4.3363,2.9994,2.9994,2.9994,2.9994,2.9994,2.9889,2.9807,2.9662,2.9044,2.8777,2.8593,2.8389,2.8304,2.8316,2.8569,2.8483,2.7891,2.8164,2.8184,2.832,2.8691,2.9238,2.9629,2.998,3.0449,3.0879,3.0684,3.0741,3.0586,3.0623,3.064,3.0551,3.0478,3.0234,3.0098,3.0289,3.058,3.1003,3.154,3.1754,3.1836,3.2064,3.2188,3.2209,3.2209,3.2168,3.2002,3.1754,3.1547,3.1257,3.1029,3.0801,3.0615,3.0387,3.0139,3.0056,2.9994,2.9994,2.9994,3.0016,2.9891,3.0015,3.0406,3.1345,3.1828,3.2529,3.3408,3.449,3.5203,3.5814,3.6389,3.6619,3.6854,3.7116,3.7246,3.7534,3.7769,3.7691,3.7795,3.7926,3.7952,3.8161,3.7874,3.7299,3.6933,3.6671,3.6567,3.6515,3.6488,3.6462,3.7156,3.7524,3.8328,3.9423,4.067,4.1311,4.1716,4.1802,4.2444,4.2694,4.2479,4.2479,4.2694,4.3063,4.3445,4.363,4.3599,4.2971,4.2479,4.3063,4.3568,4.3611,4.3758,4.3697,4.3867,2.9764,2.9994,3.0015,3.0015,2.9994,2.9764,2.9413,2.9044,2.8735,2.8468,2.8448,2.8685,2.87,2.8628,2.8542,2.8495,2.8242,2.8281,2.8203,2.8242,2.8516,2.9082,2.9531,3.0,3.043,3.0703,3.0625,3.0625,3.0644,3.0469,3.025,3.0063,3.0517,3.0505,3.0549,3.0721,3.1257,3.1697,3.2282,3.2416,3.2457,3.254,3.2602,3.2602,3.2602,3.2499,3.2085,3.2023,3.1878,3.1567,3.1402,3.1195,3.0967,3.0739,3.0512,3.0305,3.0222,3.0243,3.0222,3.0077,3.0266,3.066,3.1073,3.1381,3.1961,3.291,3.4048,3.499,3.56,3.6565,3.7221,3.7769,3.7586,3.7586,3.7612,3.7691,3.7874,3.7978,3.8135,3.8501,3.871,3.8841,3.8893,3.8292,3.7821,3.756,3.7273,3.722,3.7415,3.7595,3.8566,3.9262,3.9981,4.1191,4.2981,4.3364,4.3062,4.2969,4.3359,4.3433,4.3279,4.3371,4.3433,4.3556,4.3938,4.4247,4.4432,4.3908,4.3648,4.4172,4.4493,4.4471,4.4789,4.4993,4.5087,2.9823,3.0175,3.0302,3.0137,2.9743,2.9393,2.9103,2.8914,2.8485,2.7998,2.7614,2.8009,2.8226,2.8199,2.8329,2.8408,2.834,2.8594,2.8652,2.9004,2.9394,2.9668,2.9941,3.0156,3.0605,3.0566,3.0508,3.0469,3.041,3.0566,3.0351,3.0348,3.0738,3.0438,3.0545,3.0983,3.1726,3.2125,3.2477,3.2623,3.2375,3.2582,3.2602,3.2333,3.2664,3.2644,3.2499,3.2478,3.2354,3.2168,3.1919,3.1671,3.1443,3.1236,3.1008,3.0801,3.076,3.076,3.0615,3.0346,3.0099,3.0183,3.0495,3.0909,3.1505,3.2196,3.3377,3.4435,3.5738,3.659,3.7387,3.7782,3.7848,3.7874,3.7926,3.7952,3.8109,3.8292,3.8553,3.8945,3.9181,3.9337,3.9364,3.9337,3.8867,3.8475,3.8161,3.7926,3.8044,3.8292,3.9141,3.9913,4.0575,4.1532,4.322,4.3711,4.4144,4.4113,4.411,4.3956,4.3833,4.411,4.4172,4.4339,4.4308,4.4463,4.4555,4.4541,4.4648,4.4648,4.4905,4.5173,4.5583,4.6064,4.6115,2.9728,3.0099,3.0335,3.015,2.9717,2.9326,2.8995,2.8765,2.8192,2.7708,2.7246,2.7656,2.7851,2.7949,2.8125,2.8301,2.8398,2.8691,2.9043,2.9336,2.9648,3.0039,3.0273,3.0449,3.0547,3.0469,3.0664,3.0723,3.0762,3.0957,3.0976,3.1035,3.1152,3.1015,3.0655,3.1305,3.197,3.2207,3.2601,3.2685,3.2395,3.254,3.2644,3.2354,3.2602,3.2706,3.2685,3.2664,3.2664,3.2561,3.2395,3.2188,3.1981,3.1774,3.1547,3.1443,3.1381,3.1402,3.1174,3.0739,3.0222,3.0369,3.014,3.0412,3.0785,3.1586,3.2778,3.3773,3.4921,3.6118,3.7041,3.7294,3.7872,3.7976,3.824,3.8318,3.8658,3.8893,3.9128,3.939,3.9625,3.9913,4.0069,4.0069,3.9573,3.9181,3.8945,3.8579,3.8385,3.8648,3.9123,3.9936,4.0831,4.1835,4.2951,4.3633,4.4251,4.4373,4.4295,4.4264,4.4264,4.4479,4.4572,4.4524,4.4524,4.4541,4.4572,4.4572,4.4723,4.4799,4.5204,4.5646,4.5953,4.6352,4.655,2.9599,2.9796,2.9836,2.9924,3.012,2.9884,2.9186,2.8252,2.7944,2.78,2.7695,2.8066,2.8223,2.8242,2.832,2.8398,2.8516,2.8828,2.9121,2.9316,2.9766,2.9941,3.0176,3.043,3.0742,3.0859,3.1055,3.125,3.1426,3.1484,3.1641,3.2012,3.2207,3.2051,3.1133,3.1976,3.221,3.2044,3.2991,3.2963,3.2736,3.2736,3.2871,3.2664,3.2871,3.2996,3.2871,3.2871,3.2913,3.2954,3.283,3.2602,3.2375,3.223,3.1981,3.1671,3.1547,3.1485,3.1381,3.0926,3.076,3.0657,3.045,3.0474,3.0912,3.157,3.2272,3.3265,3.4501,3.5405,3.6123,3.6836,3.7784,3.8272,3.8564,3.8789,3.9102,3.9468,3.9677,3.9886,4.0226,4.054,4.0749,4.0775,4.0252,3.9886,3.9677,3.9285,3.8762,3.9253,3.9788,4.0225,4.1169,4.2275,4.3269,4.3849,4.4312,4.4465,4.4479,4.4418,4.4418,4.451,4.4572,4.4572,4.4572,4.4572,4.4648,4.4678,4.498,4.5309,4.5728,4.6198,4.6421,4.6528,4.6726,2.9996,3.0478,3.0569,3.0569,3.0489,2.9819,2.9025,2.8357,2.8192,2.8086,2.8105,2.8262,2.8301,2.8359,2.8594,2.8711,2.8828,2.9512,2.9766,2.9824,3.0195,3.0469,3.0703,3.0937,3.1133,3.1348,3.1543,3.1738,3.1934,3.1992,3.2226,3.2598,3.2891,3.2936,3.2631,3.2835,3.2773,3.2832,3.315,3.3284,3.2916,3.3272,3.3327,3.2851,3.3285,3.341,3.3182,3.3182,3.3265,3.343,3.3327,3.3161,3.3141,3.3078,3.283,3.2602,3.2499,3.2271,3.2168,3.1857,3.1443,3.1257,3.0967,3.093,3.1314,3.1422,3.204,3.29,3.4333,3.5365,3.6356,3.7754,3.8729,3.8947,3.912,3.9242,3.9573,3.9939,4.0226,4.0383,4.0644,4.088,4.1115,4.1115,4.0723,4.0409,4.02,3.9547,3.8972,4.0015,4.0752,4.0914,4.1587,4.2629,4.3536,4.4112,4.4419,4.4541,4.4541,4.4541,4.4541,4.4572,4.4572,4.4572,4.4572,4.4572,4.4723,4.498,4.552,4.5959,4.6223,4.6442,4.6657,4.6763,4.6828,3.0187,3.0576,3.0849,3.0809,3.0497,2.9944,2.9361,2.8789,2.873,2.873,2.875,2.875,2.8769,2.8848,2.8984,2.9141,2.9238,2.9844,3.0371,3.0469,3.0898,3.1152,3.1387,3.1582,3.168,3.1875,3.2148,3.2383,3.2402,3.2559,3.2754,3.3027,3.3262,3.3309,3.3282,3.3331,3.3134,3.3135,3.3376,3.3615,3.3469,3.3526,3.3762,3.3534,3.3658,3.3906,3.3699,3.3679,3.3741,3.3906,3.3886,3.3762,3.3886,3.3824,3.3617,3.3492,3.341,3.3182,3.2942,3.2996,3.2664,3.2457,3.1836,3.1402,3.1381,3.1387,3.2017,3.2962,3.4238,3.5385,3.6662,3.8214,3.9205,3.9329,3.9907,4.0057,4.0749,4.1167,4.101,4.1141,4.0958,4.1193,4.1324,4.1298,4.1141,4.0906,4.0697,3.9965,3.9285,4.0183,4.1091,4.1255,4.1645,4.2519,4.3427,4.4266,4.4496,4.4572,4.4572,4.4572,4.4572,4.4572,4.4572,4.4572,4.4572,4.4723,4.4949,4.5278,4.5782,4.6144,4.6397,4.6615,4.6892,4.6892,4.6892,3.0215,3.0273,3.0703,3.0625,3.0388,3.0557,3.0207,2.957,2.9531,2.9512,2.9531,2.9453,2.9414,2.9492,2.957,2.9629,2.9726,3.0137,3.0566,3.0918,3.1289,3.168,3.1992,3.2168,3.2246,3.2363,3.2578,3.2812,3.2851,3.3027,3.3262,3.3359,3.3379,3.3359,3.3426,3.3532,3.3446,3.3291,3.3739,3.3903,3.3801,3.406,3.4159,3.4155,3.4217,3.4238,3.4134,3.4113,3.4155,3.4196,3.4134,3.4134,3.4134,3.4113,3.4093,3.4031,3.3969,3.3767,3.3706,3.3762,3.3782,3.3389,3.2457,3.1795,3.1692,3.1961,3.258,3.3377,3.4594,3.5514,3.6542,3.8036,3.9548,4.0081,4.0795,4.1438,4.2267,4.2448,4.2108,4.1847,4.1428,4.1376,4.1324,4.1324,4.135,4.1141,4.088,4.054,4.0009,3.9849,4.0695,4.0991,4.151,4.2275,4.316,4.4082,4.4496,4.4572,4.4572,4.4572,4.4572,4.4633,4.4695,4.4726,4.4678,4.4874,4.529,4.5687,4.5936,4.6294,4.6775,4.6781,4.6989,4.6925,4.6989,3.0684,3.0703,3.084,3.0801,3.0703,3.0819,3.0564,3.0019,2.9726,2.957,2.957,2.957,2.9668,2.959,2.9883,3.0195,3.043,3.0723,3.1211,3.1504,3.1601,3.2031,3.2363,3.2617,3.2773,3.2969,3.3144,3.3184,3.3242,3.3418,3.3437,3.3398,3.3535,3.3496,3.3594,3.3858,3.3564,3.3552,3.4087,3.4342,3.449,3.4738,3.48,3.4817,3.4817,3.4776,3.461,3.4569,3.4652,3.4921,3.4693,3.4652,3.5024,3.4734,3.4465,3.3772,3.3891,3.4051,3.4212,3.4212,3.4134,3.4176,3.3513,3.3451,3.3306,3.3277,3.333,3.4146,3.5402,3.6626,3.7679,3.9037,4.0282,4.1131,4.175,4.2268,4.297,4.3075,4.2709,4.2265,4.1847,4.169,4.1585,4.1428,4.1455,4.1246,4.0984,4.0697,4.0376,4.0139,4.0387,4.0775,4.1312,4.2058,4.2921,4.3849,4.4236,4.4572,4.4572,4.4633,4.4756,4.4818,4.488,4.5094,4.5308,4.5614,4.5945,4.6215,4.6638,4.6898,4.7244,4.7184,4.7119,4.7216,4.7346,3.0898,3.0898,3.0898,3.0898,3.0898,3.0898,3.0723,3.0449,3.0195,3.0098,3.0098,3.0117,3.0098,3.0156,3.0391,3.0605,3.082,3.0859,3.1191,3.1582,3.1836,3.2246,3.2617,3.2969,3.3144,3.3359,3.3418,3.3359,3.3476,3.3633,3.3691,3.373,3.3789,3.3906,3.4023,3.4199,3.418,3.423,3.4507,3.4764,3.5107,3.5301,3.5292,3.5335,3.55,3.5231,3.5086,3.5045,3.519,3.5397,3.5086,3.5128,3.5376,3.5128,3.4962,3.4489,3.451,3.4714,3.4856,3.4693,3.4631,3.459,3.4569,3.4569,3.4341,3.4113,3.4421,3.4954,3.6518,3.7947,3.8999,4.0062,4.1189,4.2251,4.2648,4.2938,4.3176,4.3362,4.3101,4.2605,4.2343,4.216,4.1977,4.1768,4.1585,4.1507,4.1036,4.0409,3.9965,3.9607,4.0145,4.0686,4.1198,4.1782,4.26,4.3536,4.4004,4.4419,4.4572,4.4664,4.488,4.5233,4.5495,4.5818,4.614,4.6582,4.7029,4.7197,4.7493,4.7684,4.7896,4.7993,4.8058,4.8091,4.822,3.0898,3.0898,3.0898,3.0898,3.0898,3.0898,3.0879,3.0898,3.082,3.0879,3.084,3.0859,3.0801,3.0703,3.0781,3.0859,3.1016,3.1074,3.1367,3.1641,3.209,3.25,3.2891,3.3203,3.332,3.3398,3.3437,3.3476,3.3613,3.3789,3.3984,3.4141,3.4414,3.4512,3.4492,3.4687,3.4707,3.4726,3.5028,3.531,3.5461,3.5625,3.5763,3.5933,3.5811,3.55,3.5542,3.5521,3.55,3.5521,3.5438,3.5418,3.5397,3.55,3.5438,3.5314,3.5211,3.5211,3.5211,3.519,3.5252,3.5293,3.5418,3.5252,3.4983,3.4734,3.4909,3.5423,3.6721,3.7999,3.9028,4.0314,4.1434,4.2351,4.2997,4.3424,4.3717,4.375,4.3493,4.3049,4.2788,4.2631,4.25,4.2291,4.1899,4.1794,4.1167,4.0331,4.0009,3.958,3.9853,4.0618,4.0997,4.1506,4.2386,4.314,4.3693,4.4082,4.4435,4.4695,4.488,4.5418,4.6067,4.6622,4.717,4.7723,4.8157,4.824,4.8289,4.853,4.8738,4.8933,4.8997,4.8965,4.903,3.0898,3.0898,3.0898,3.0898,3.0898,3.0898,3.0898,3.0898,3.0898,3.0898,3.0898,3.0898,3.0898,3.0898,3.0898,3.0996,3.1289,3.1328,3.1836,3.2187,3.2539,3.2734,3.3164,3.3301,3.3418,3.3418,3.3457,3.3574,3.3789,3.4004,3.4258,3.4512,3.4766,3.4844,3.4863,3.5059,3.5234,3.5234,3.5544,3.55,3.55,3.5621,3.5828,3.6111,3.5992,3.6142,3.6142,3.6101,3.6246,3.6349,3.5707,3.55,3.5418,3.5749,3.5728,3.55,3.5521,3.5562,3.5562,3.5583,3.5562,3.548,3.5459,3.5438,3.5335,3.5169,3.531,3.5876,3.6676,3.7938,3.9105,4.0392,4.1594,4.2499,4.3263,4.372,4.4177,4.4115,4.3859,4.3598,4.3284,4.3154,4.3023,4.2709,4.2291,4.169,4.0833,4.0207,4.0324,4.0123,4.0081,4.0568,4.082,4.1453,4.2315,4.3123,4.3817,4.4237,4.4613,4.4786,4.5033,4.6129,4.7261,4.7688,4.8233,4.8807,4.9052,4.8844,4.8957,4.9354,4.9515,4.971,4.9775,4.9775,4.9766,3.0898,3.0898,3.0898,3.0898,3.0898,3.0898,3.0898,3.0898,3.0898,3.0898,3.0898,3.0898,3.0898,3.0898,3.0898,3.1133,3.1465,3.1504,3.1855,3.2324,3.2773,3.2871,3.3125,3.3359,3.3398,3.3418,3.3418,3.3574,3.3926,3.4258,3.4531,3.4785,3.4961,3.5254,3.5293,3.5547,3.5644,3.5684,3.5918,3.5818,3.5593,3.5778,3.6073,3.6322,3.6398,3.6552,3.6597,3.6535,3.6618,3.668,3.6287,3.6142,3.6142,3.6308,3.6287,3.6163,3.608,3.6039,3.6018,3.5956,3.5894,3.579,3.5728,3.579,3.5438,3.5273,3.5273,3.5722,3.6674,3.7829,3.915,4.0334,4.1614,4.2724,4.3194,4.3687,4.4068,4.4214,4.4222,4.4251,4.4068,4.4016,4.3833,4.352,4.3127,4.2814,4.1745,4.1041,4.1005,4.1311,4.1072,4.1121,4.1702,4.2049,4.2824,4.3536,4.4049,4.443,4.4881,4.6001,4.6827,4.7697,4.8536,4.8966,4.9459,4.9876,4.9992,4.9775,4.9904,5.0293,5.0422,5.0487,5.0519,5.0487,5.0487,3.0898,3.0898,3.0898,3.0898,3.0898,3.0898,3.0898,3.0898,3.0898,3.0898,3.0898,3.0898,3.0898,3.0898,3.0996,3.123,3.1504,3.1816,3.207,3.2363,3.2754,3.2988,3.3144,3.3262,3.3437,3.3496,3.3476,3.3711,3.4023,3.4394,3.4726,3.498,3.5469,3.6016,3.6035,3.6016,3.5957,3.5937,3.6016,3.6016,3.5955,3.5913,3.625,3.6577,3.6636,3.6562,3.682,3.6929,3.6929,3.7011,3.7011,3.6804,3.6742,3.6763,3.6742,3.666,3.6577,3.6618,3.666,3.6618,3.6453,3.6308,3.6225,3.6039,3.5707,3.5625,3.5625,3.5976,3.6796,3.7758,3.9072,4.027,4.1571,4.2762,4.3209,4.3653,4.3984,4.4287,4.437,4.4587,4.467,4.4617,4.4434,4.4147,4.3833,4.3572,4.3049,4.2475,4.221,4.2858,4.3145,4.319,4.3571,4.3814,4.371,4.4006,4.4472,4.545,4.6094,4.7454,4.8608,4.9346,4.9987,5.0249,5.0671,5.093,5.094,5.0714,5.0973,5.1038,5.094,5.0843,5.0908,5.0908,5.1005,3.0898,3.0898,3.0898,3.0898,3.0898,3.0898,3.0898,3.0898,3.0898,3.0898,3.0898,3.0898,3.0898,3.0918,3.1269,3.1523,3.168,3.2109,3.248,3.2754,3.3047,3.3223,3.3301,3.334,3.3633,3.3691,3.375,3.4062,3.4355,3.4629,3.5078,3.5644,3.5762,3.6035,3.6035,3.6035,3.6035,3.6035,3.6035,3.6035,3.6054,3.6032,3.6356,3.6616,3.6933,3.7278,3.7583,3.7529,3.7653,3.7798,3.7819,3.7446,3.726,3.7198,3.7198,3.7094,3.7011,3.7011,3.7032,3.7032,3.6867,3.6742,3.666,3.6618,3.6411,3.639,3.637,3.6328,3.7064,3.7667,3.8761,4.0112,4.1401,4.2569,4.3361,4.367,4.3976,4.4145,4.4396,4.4505,4.4696,4.4696,4.4643,4.433,4.4016,4.3755,4.352,4.3023,4.3205,4.413,4.5039,4.5255,4.5342,4.4912,4.4583,4.4599,4.5052,4.6138,4.7357,4.8914,5.0136,5.0976,5.1449,5.1476,5.1597,5.1674,5.1653,5.1556,5.1297,5.1297,5.1199,5.1135,5.1199,5.1264,5.1329]}]]